     2.10           OBSERVATION DATA    G (GPS)             RINEX VERSION / TYPE
teqc 2002Apr3 Duncan Agnew 20050511 23:58:35UTC             PGM / RUN BY / DATE
OSX 5.3|G3|cc|OSX 5.3+|G3+                                  COMMENT
BIT 2 OF LLI FLAGS DATA COLLECTED UNDER A/S CONDITION       COMMENT
Q 1225 1971                                                 MARKER NAME
9498                                                        MARKER NUMBER
Mark Wyatt Caltrans District 11                             OBSERVER / AGENCY
220309498 TRIMBLE 5700 NP 1.24 / SP 1.24                    REC # / TYPE / VERS
12235206 TRM41249.00                                        ANT # / TYPE
 -2303729.0000 -4827962.0000  3461563.0000                  APPROX POSITION XYZ
        1.8900        0.0000        0.0000                  ANTENNA: DELTA H/E/N
     1     1                                                WAVELENGTH FACT L1/2
     7    C1    L1    L2    P1    P2    S1    S2            # / TYPES OF OBSERV
    10.0000                                                 INTERVAL
SNR is mapped to RINEX snr flag value [1-9]                 COMMENT
L1: 3 -> 1; 8 -> 5; 40 -> 9                                 COMMENT
L2: 1 -> 1; 5 -> 5; 60 -> 9                                 COMMENT
  2004     6    30    14    24   20.0000000     GPS         TIME OF FIRST OBS
                                                            END OF HEADER
 04  6 30 14 24 20.0000000  0  6G 6G18G21G26G29G30
  20350201.0394     -43951.17659    -30367.05758                  20350198.5394
        51.0004         42.0004
  21702558.5554    -121640.39859    -76633.40957                  21702556.0744
        48.0004         37.7504
  21453487.8524     -91749.96559    -58119.80358                  21453484.9734
        49.5004         39.5004
  21984328.0164     -91695.44559    -58073.34557                  21984327.5124
        44.2504         33.5004
  22556160.5474     -56677.25059    -38026.13157                  22556159.5274
        46.0004         31.5004
  23564450.7974      44022.75859     22769.78857                  23564449.6884
        44.5004         29.5004
 04  6 30 14 24 30.0000000  0  6G 6G18G21G26G29G30
  20347358.8984     -58885.73449    -42004.38248                  20347357.1174
        51.2504         41.7504
  21694709.4844    -162887.28549   -108773.82747                  21694707.2464
        47.0004         38.0004
  21447625.1334    -122558.83249    -82126.71447                  21447622.3134
        48.0004         39.0004
  21978486.6564    -122393.21549    -81993.66347                  21978485.7544
        45.2504         33.0004
  22552510.1804     -75862.51649    -52975.67347                  22552508.6374
        45.7504         31.0004
  23567193.9534      58441.94149     34005.50047                  23567193.6914
        44.5004         28.0004
 04  6 30 14 24 40.0000000  0  6G 6G18G21G26G29G30
  20344508.7034     -73863.89549    -53675.68248                  20344506.6724
        51.0004         41.2504
  21686850.2734    -204188.78549   -140956.82747                  21686847.8014
        47.2504         38.0004
  21441746.9534    -153448.87949   -106196.87547                  21441744.0314
        48.7504         39.0004
  21972638.8754    -153123.10949   -105939.05047                  21972638.2304
        44.5004         32.2504
  22548852.7734     -95083.78149    -67953.31447                  22548851.2384
        45.5004         31.7504
  23569920.7664      72769.87949     45170.08547                  23569920.3324
        44.2504         27.0004
 04  6 30 14 24 50.0000000  0 11G 6G10G15G16G17G18G21G22G26G29G30
  20341653.7114     -88868.51249    -65367.61048                  20341651.6024
        52.0004         41.2504
  24029748.2734      46617.86359     25695.66557                  24029747.8794
        43.5004         27.0004
  24643349.5234    -125283.69959    -85680.29456                  24643349.0084
        40.2504         22.0004
  24298925.0944     -97488.71559    -71333.60156                  24298923.2194
        43.0004         23.5004
  23777471.1954       7487.68859       541.21456                  23777470.7544
        42.5004         23.5004
  21678983.6254    -245527.62149   -173168.91347                  21678981.3984
        46.7504         38.0004
  21435856.7664    -184402.80549   -130316.82047                  21435853.2114
        48.5004         38.5004
  24195212.2114    -149305.18759   -102076.38857                  24195209.4774
        42.0004         26.2504
  21966788.2894    -183867.78149   -129895.94547                  21966787.2774
        44.5004         32.5004
  22545191.5634    -114323.82449    -82945.55647                  22545189.6724
        45.7504         31.2504
  23572633.3054      87023.60549     56276.84247                  23572632.8364
        44.0004         27.0004
 04  6 30 14 25  0.0000000  0 11G 6G10G15G16G17G18G21G22G26G29G30
  20338795.8364    -103885.56649    -77069.21248                  20338794.0784
        51.5004         41.5004
  24032804.1094      62675.76249     38208.28147                  24032803.5234
        43.5004         27.0004
  24635045.2424    -168924.01249   -119685.60846                  24635044.9224
        40.2504         21.0004
  24292096.8834    -133374.61749    -99296.61546                  24292094.3554
        42.2504         24.2504
  23777936.9384       9934.80549      2448.03946                  23777936.4104
        42.2504         25.2504
  21671112.7424    -286889.83649   -205399.20047                  21671110.1804
        47.2504         38.0004
  21429956.5864    -215406.72749   -154475.73647                  21429953.6804
        48.7504         38.2504
  24185326.9844    -201252.72749   -142554.96747                  24185324.0664
        40.5004         26.0004
  21960937.7424    -214613.23849   -153853.42847                  21960936.5004
        45.5004         32.5004
  22541529.3284    -133568.66049    -97941.52247                  22541527.6054
        46.0004         31.2504
  23575334.0004     101216.93049     67336.57447                  23575333.1844
        43.7504         27.5004
 04  6 30 14 25 10.0000000  0 11G 6G10G15G16G17G18G21G22G26G29G30
  20335936.6724    -118909.93049    -88776.51248                  20335934.9494
        51.5004         41.0004
  24035849.3754      78681.08249     50679.93547                  24035849.0274
        43.2504         27.0004
  24626729.5784    -212621.26649   -153735.40346                  24626729.1134
        40.2504         21.5004
  24285266.5704    -169268.89549   -127266.24146                  24285263.8164
        43.2504         24.0004
  23778391.9304      12327.64549      4312.55746                  23778392.0744
        41.5004         25.0004
  21663238.2584    -328270.30149   -237643.71847                  21663235.3874
        47.7504         38.0004
  21424048.6024    -246455.54349   -178669.61047                  21424045.3284
        49.0004         38.5004
  24175433.8914    -253240.14849   -183064.60646                  24175431.7344
        41.5004         24.5004
  21955088.1644    -245354.23449   -177807.45547                  21955086.7464
        46.7504         33.5004
  22537867.1414    -152813.11349   -112937.20647                  22537865.8794
        46.0004         31.2504
  23578024.3754     115354.92649     78353.14047                  23578023.8404
        43.7504         26.7504
 04  6 30 14 25 20.0000000  0 11G 6G10G15G16G17G18G21G22G26G29G30
  20333077.1254    -133937.40649   -100486.25048                  20333075.0784
        51.7504         41.0004
  24038886.1484      94637.90249     63113.80647                  24038885.3484
        43.0004         27.0004
  24618404.7274    -256371.20749   -187826.30846                  24618403.6524
        40.2504         20.2504
  24278434.8914    -205167.34049   -155239.03646                  24278432.8754
        43.0004         24.0004
  23778838.3754      14670.54749      6138.18446                  23778837.7504
        41.7504         23.5004
  21655360.9924    -369664.79349   -269899.16447                  21655358.6294
        47.5004         38.0004
  21418132.4924    -277545.00849   -202895.18347                  21418129.2854
        49.0004         39.0004
  24165534.5704    -305263.23449   -223602.12346                  24165531.7464
        42.0004         24.0004
  21949239.7734    -276086.57449   -201754.71947                  21949238.6564
        45.2504         33.5004
  22534205.7034    -172053.09449   -127929.41147                  22534204.8484
        46.2504         32.0004
  23580705.3364     129441.57849     89329.72547                  23580704.7504
        43.7504         27.7504
 04  6 30 14 25 30.0000000  0 11G 6G10G15G16G17G18G21G22G26G29G30
  20330217.4064    -148965.09449   -112196.14548                  20330215.6414
        51.5004         41.2504
  24041913.5634     110549.12949     75512.14147                  24041912.8834
        42.5004         26.7504
  24610070.0704    -300170.99649   -221956.03046                  24610069.4614
        39.7504         19.7504
  24271603.8284    -241066.85249   -183212.69246                  24271601.0474
        41.7504         22.5004
  23779274.6174      16966.23849      7927.02646                  23779274.7194
        41.5004         23.5004
  21647481.8984    -411070.28549   -302163.18847                  21647479.0274
        48.0004         37.7504
  21412208.9614    -308672.24649   -227150.17247                  21412205.7664
        50.0004         38.7504
  24155628.4144    -357318.96949   -264164.97546                  24155625.5984
        41.5004         24.5004
  21943393.6564    -306807.23849   -225692.89647                  21943392.6174
        46.0004         33.5004
  22530545.6414    -191285.51249   -142915.71647                  22530545.0164
        46.5004         31.5004
  23583376.6644     143479.76649    100268.54347                  23583376.2034
        44.0004         27.0004
 04  6 30 14 25 40.0000000  0 11G 6G10G15G16G17G18G21G22G26G29G30
  20327358.4534    -163989.68049   -123903.61948                  20327356.4884
        51.5004         41.5004
  24044933.7274     126417.81349     87877.28147                  24044932.7974
        42.5004         26.0004
  24601726.0164    -344017.35949   -256122.02846                  24601724.6764
        40.0004         19.5004
  24264772.7344    -276964.29349   -211184.71646                  24264769.7344
        41.5004         22.5004
  23779703.7114      19218.06649      9681.66547                  23779702.9964
        42.7504         26.0004
  21639601.3204    -452483.56249   -334433.27847                  21639598.9224
        47.0004         38.0004
  21406279.0864    -339833.93749   -251432.01947                  21406276.1334
        48.7504         38.7504
  24145716.9924    -409404.19149   -304750.88546                  24145714.2544
        41.5004         23.7504
  21937550.6564    -337512.84449   -249619.34247                  21937549.7074
        47.7504         34.0004
  22526887.8054    -210507.23049   -157893.66847                  22526886.6764
        46.2504         31.0004
  23586038.6644     157472.58649    111172.01247                  23586038.6844
        43.2504         26.0004
 04  6 30 14 25 50.0000000  0 11G 6G10G15G16G17G18G21G22G26G29G30
  20324500.3834    -179008.12949   -135606.32948                  20324498.4454
        51.0004         41.7504
  24047945.8364     142246.83249    100211.61746                  24047944.6254
        42.7504         25.0004
  24593374.5004    -387907.40249   -290322.02946                  24593373.1724
        40.0004         20.0004
  24257942.3364    -312856.65249   -239152.81046                  24257939.1454
        42.5004         24.0004
  23780124.1174      21428.88749     11404.35946                  23780123.9144
        42.5004         23.7504
  21631719.4224    -493901.68449   -366707.12947                  21631717.0274
        47.2504         38.0004
  21400343.3054    -371027.23449   -275738.49247                  21400340.4384
        49.0004         39.0004
  24135801.1174    -461515.84449   -345357.33247                  24135797.6024
        42.5004         25.7504
  21931710.8524    -368200.42249   -273531.73547                  21931709.7734
        47.2504         34.0004
  22523233.1484    -229715.26249   -172860.98647                  22523231.9454
        45.7504         31.5004
  23588693.5554     171422.87149    122042.30647                  23588693.4184
        43.7504         26.5004
 04  6 30 14 26  0.0000000  0 11G 6G10G15G16G17G18G21G22G26G29G30
  20321644.2424    -194017.96549   -147302.29848                  20321642.4654
        51.0004         41.7504
  24050950.7344     158038.78549    112516.98346                  24050950.1994
        42.5004         25.2504
  24585014.1094    -431838.52049   -324554.03946                  24585013.6564
        39.0004         20.7504
  24251113.5314    -348741.22349   -267114.80146                  24251111.0784
        42.0004         22.7504
  23780537.2344      23601.33649     13097.13746                  23780537.2814
        43.0004         24.5004
  21623837.6094    -535321.94149   -398982.66147                  21623834.9774
        47.5004         37.7504
  21394401.9384    -402249.63349   -300067.63347                  21394398.7544
        49.0004         39.0004
  24125879.6174    -513651.21149   -385982.29647                  24125876.4534
        43.0004         26.0004
  21925875.5394    -398867.30949   -297428.00347                  21925874.2664
        47.5004         34.0004
  22519580.5474    -248906.90649   -187815.51747                  22519579.7194
        46.0004         29.7504
  23591341.1884     185333.10249    132881.44047                  23591340.6684
        43.7504         25.7504
 04  6 30 14 26 10.0000000  0 11G 6G10G15G16G17G18G21G22G26G29G30
  20318789.8754    -209016.87149   -158989.77748                  20318788.0554
        51.5004         41.5004
  24053949.1804     173795.65249    124795.01846                  24053948.1804
        41.7504         24.5004
  24576646.8284    -475808.55549   -358816.40646                  24576645.9574
        38.5004         19.0004
  24244287.0944    -384615.77049   -295069.05146                  24244284.7464
        41.7504         22.5004
  23780944.2034      25737.59449     14761.75247                  23780944.0044
        42.5004         26.0004
  21615955.3984    -576742.08249   -431258.09047                  21615952.9414
        48.2504         38.0004
  21388455.6254    -433498.89149   -324417.71947                  21388452.2774
        50.5004         38.5004
  24115954.7344    -565808.12949   -426624.03046                  24115951.4384
        43.2504         25.5004
  21920044.0784    -429511.28949   -321306.43247                  21920043.0634
        46.7504         34.0004
  22515931.9534    -268080.05949   -202755.64947                  22515931.1564
        45.2504         30.0004
  23593981.2664     199205.34849    143690.95747                  23593980.4144
        44.0004         26.5004
 04  6 30 14 26 20.0000000  0 11G 6G10G15G16G17G18G21G22G26G29G30
  20315937.8134    -224004.93049   -170668.78948                  20315936.1724
        51.0004         41.0004
  24056941.0704     189517.30549    137045.65646                  24056940.3954
        41.0004         24.7504
  24568272.2734    -519817.52349   -393109.10746                  24568271.0434
        39.5004         19.2504
  24237462.4844    -420480.31649   -323015.44746                  24237460.3634
        42.0004         22.7504
  23781343.9144      27837.64849     16398.10846                  23781343.3284
        42.2504         24.5004
  21608073.4454    -618162.19549   -463533.50347                  21608070.8794
        48.0004         38.5004
  21382503.8204    -464775.03549   -348788.73547                  21382500.5004
        49.5004         38.5004
  24106025.5474    -617986.49649   -467282.49146                  24106022.1914
        43.0004         25.2504
  21914217.0944    -460132.19949   -345166.88247                  21914216.2274
        47.5004         34.2504
  22512287.3444    -287234.73849   -217681.36347                  22512286.2464
        45.5004         30.2504
  23596613.2734     213039.50449    154470.80147                  23596612.7934
        42.7504         26.0004
 04  6 30 14 26 30.0000000  0 11G 6G10G15G16G17G18G21G22G26G29G30
  20313088.4774    -238978.56649   -182336.56848                  20313086.6524
        51.0004         41.5004
  24059926.7194     205207.24249    149271.54546                  24059926.3284
        41.7504         25.0004
  24559890.5944    -563861.81249   -427429.37446                  24559889.8914
        38.5004         19.5004
  24230639.9224    -456331.21549   -350951.22946                  24230638.0664
        41.5004         22.7504
  23781736.9224      29905.10949     18009.11346                  23781736.6804
        42.7504         24.5004
  21600192.3204    -659578.71149   -495806.10847                  21600189.9304
        49.0004         38.0004
  21376547.4224    -496074.49649   -373177.94147                  21376544.2384
        50.0004         39.2504
  24096091.9534    -670182.76649   -507954.91147                  24096089.4734
        43.5004         26.5004
  21908394.9144    -490726.44949   -369006.56247                  21908393.9884
        48.0004         34.5004
  22508646.1804    -306367.33249   -232589.87647                  22508644.9384
        46.2504         31.0004
  23599239.3754     226838.97349    165223.59147                  23599239.2304
        43.5004         25.7504
 04  6 30 14 26 40.0000000  0 11G 6G10G15G16G17G18G21G22G26G29G30
  20310241.8054    -253937.84849   -193993.16248                  20310239.8244
        50.7504         41.5004
  24062905.9064     220865.32849    161472.62446                  24062905.4844
        40.5004         24.5004
  24551502.4924    -607941.61749   -461777.28646                  24551501.8094
        38.0004         18.2504
  24223820.4694    -492168.59049   -378876.44946                  24223818.5314
        41.2504         24.0004
  23782124.2974      31939.80949     19594.53346                  23782123.9454
        41.7504         24.7504
  21592311.4614    -700991.59049   -528075.88847                  21592309.5394
        49.5004         38.5004
  21370587.3914    -527397.32449   -397585.33247                  21370583.5354
        51.0004         39.2504
  24086156.1954    -722396.93449   -548641.32646                  24086153.4494
        43.5004         24.5004
  21902578.1174    -521294.16849   -392825.55547                  21902577.2154
        46.7504         34.2504
  22505010.0234    -325477.98849   -247481.29947                  22505008.0554
        45.7504         31.0004
  23601859.2274     240603.54349    175949.21046                  23601858.2504
        43.7504         24.7504
 04  6 30 14 26 50.0000000  0 11G 6G10G15G16G17G18G21G22G26G29G30
  20307398.4064    -268879.80549   -205636.24548                  20307396.7344
        50.5004         41.5004
  24065880.6254     236494.30149    173651.00346                  24065879.6994
        40.5004         23.0004
  24543108.8524    -652054.03149   -496150.54446                  24543107.1334
        38.7504         19.7504
  24217004.0394    -527989.40649   -406788.79746                  24217001.6254
        41.5004         24.2504
  23782506.0234      33944.64149     21156.70646                  23782505.4104
        42.2504         24.5004
  21584432.2734    -742397.97349   -560340.59047                  21584429.4344
        50.0004         38.2504
  21364622.8054    -558740.62549   -422008.69747                  21364619.3754
        51.2504         39.0004
  24076217.1414    -774625.99249   -589339.24947                  24076214.5594
        43.0004         26.0004
  21896767.1094    -551832.29749   -416621.49847                  21896766.2074
        47.2504         34.2504
  22501378.0784    -344563.69149   -262353.28547                  22501376.2974
        45.7504         31.7504
  23604472.2034     254336.07049    186649.86646                  23604471.3094
        44.0004         25.5004
 04  6 30 14 27  0.0000000  0 11G 6G10G15G16G17G18G21G22G26G29G30
  20304558.5634    -283804.60549   -217265.97948                  20304556.9024
        51.0004         42.0004
  24068848.5634     252093.95349    185806.53946                  24068848.3204
        39.7504         22.5004
  24534707.6804    -696199.24249   -530549.41946                  24534707.1454
        37.0004         19.5004
  24210191.1334    -563793.86349   -434688.38546                  24210188.3364
        42.0004         24.7504
  23782881.4534      35919.41449     22695.47746                  23782882.0594
        41.7504         24.0004
  21576554.4384    -783798.00049   -592600.36047                  21576551.5394
        50.0004         37.5004
  21358654.4694    -590104.56249   -446448.13647                  21358651.3014
        51.5004         38.7504
  24066276.0394    -826870.18049   -630049.00147                  24066273.0234
        42.7504         26.0004
  21890961.6954    -582340.92649   -440394.46647                  21890960.4104
        46.7504         34.0004
  22497750.8444    -363624.62149   -277205.96047                  22497748.9264
        46.5004         31.0004
  23607079.0004     268036.14149    197325.21747                  23607078.2344
        44.0004         26.0004
 04  6 30 14 27 10.0000000  0 11G 6G10G15G16G17G18G21G22G26G29G30
  20301721.9844    -298710.89549   -228881.27348                  20301720.0204
        51.5004         41.7504
  24071812.4454     267665.62549    197940.30946                  24071811.6374
        40.0004         22.7504
  24526301.4614    -740375.77349   -564972.63746                  24526300.1564
        38.2504         19.0004
  24203380.6094    -599580.45749   -462574.03546                  24203378.1374
        42.0004         24.0004
  23783251.9614      37865.58249     24211.95046                  23783252.1294
        42.5004         24.7504
  21568677.6254    -825190.21549   -624854.03647                  21568675.0004
        50.7504         38.2504
  21352682.5864    -621487.64549   -470902.49447                  21352679.3364
        51.5004         38.7504
  24056331.7344    -879127.97749   -670769.39146                  24056328.1054
        43.2504         24.2504
  21885162.1254    -612818.50449   -464143.20747                  21885160.9494
        47.2504         34.0004
  22494128.4614    -382659.30149   -292038.17647                  22494126.7274
        46.2504         31.5004
  23609680.6644     281705.20349    207976.36946                  23609679.5784
        43.5004         24.7504
 04  6 30 14 27 20.0000000  0 11G 6G10G15G16G17G18G21G22G26G29G30
  20298889.0004    -313597.89149   -240481.53848                  20298887.2344
        51.2504         41.5004
  24074769.8914     283209.91449    210052.67546                  24074769.3874
        40.0004         22.7504
  24517889.0474    -784582.96949   -599419.81046                  24517887.4534
        38.0004         18.5004
  24196574.4384    -635348.51649   -490445.22546                  24196571.8324
        41.7504         25.5004
  23783617.3204      39783.90649     25706.73346                  23783617.4024
        42.5004         25.5004
  21560802.4844    -866573.85249   -657101.02547                  21560800.1254
        50.5004         38.0004
  21346706.9224    -652889.27049   -495371.29548                  21346703.6254
        50.7504         39.5004
  24046384.8134    -931398.55549   -711499.69446                  24046381.6054
        43.2504         24.5004
  21879368.3914    -643264.38749   -487867.28247                  21879366.9344
        47.5004         34.5004
  22490511.4224    -401667.11749   -306849.46347                  22490510.1844
        45.2504         31.0004
  23612275.5084     295343.78549    218603.82346                  23612274.8984
        43.7504         25.5004
 04  6 30 14 27 30.0000000  0 11G 6G10G15G16G17G18G21G22G26G29G30
  20296060.2734    -328464.20749   -252065.69248                  20296058.0274
        50.5004         41.5004
  24077723.0704     298728.15649    222144.81646                  24077722.1374
        39.7504         22.2504
  24509470.7504    -828819.42249   -633889.73546                  24509470.0354
        37.5004         19.0004
  24189771.6644    -671096.53149   -518300.87346                  24189769.4884
        42.5004         25.0004
  23783977.5704      41675.66849     27180.77146                  23783977.4384
        42.5004         25.2504
  21552929.2034    -907947.46149   -689340.21247                  21552926.9494
        50.0004         38.5004
  21340728.1644    -684308.06249   -519853.47247                  21340725.1644
        51.2504         39.2504
  24036435.5084    -983680.51649   -752238.87946                  24036432.7234
        43.0004         24.2504
  21873580.6484    -673677.07049   -511565.48947                  21873579.7194
        47.5004         33.7504
  22486899.1644    -420646.67649   -321638.72747                  22486898.5744
        45.2504         30.0004
  23614865.3674     308953.21149    229208.49446                  23614864.3954
        43.7504         24.5004
 04  6 30 14 27 40.0000000  0 11G 6G10G15G16G17G18G21G22G26G29G30
  20293235.4924    -343306.64149   -263631.23448                  20293233.7154
        51.0004         41.5004
  24080672.0554     314223.40249    234218.97146                  24080670.6564
        39.0004         21.7504
  24501048.2034    -873081.95349   -668380.02146                  24501047.4104
        38.5004         19.2504
  24182973.6334    -706821.28149   -546138.33446                  24182971.3754
        42.0004         24.5004
  23784332.9844      43544.22749     28636.76947                  23784333.0204
        42.2504         26.5004
  21545058.7504    -949307.85949   -721569.08347                  21545056.1684
        50.5004         38.7504
  21334746.4694    -715740.79749   -544346.50847                  21334743.5274
        49.7504         39.0004
  24026485.1484   -1035970.55149   -792984.33446                  24026481.9924
        42.2504         22.7504
  21867800.3054    -704053.20749   -535235.19447                  21867799.1724
        47.0004         33.5004
  22483293.7664    -439594.68449   -336403.43647                  22483292.9304
        45.5004         30.7504
  23617450.2584     322536.52749    239792.91546                  23617449.0434
        42.5004         23.5004
 04  6 30 14 27 50.0000000  0 11G 6G10G15G16G17G18G21G22G26G29G30
  20290416.0164    -358123.99249   -275177.22848                  20290413.6484
        51.0004         41.0004
  24083616.3134     329696.67649    246276.07846                  24083614.9964
        39.5004         22.0004
  24492621.1024    -917369.56249   -702889.85746                  24492619.9964
        38.2504         19.5004
  24176180.3754    -742521.63349   -573956.78746                  24176177.5434
        42.5004         25.0004
  23784684.1484      45390.44949     30075.38047                  23784684.7974
        42.0004         26.2504
  21537191.0004    -990653.96149   -753786.82347                  21537188.4534
        49.5004         38.5004
  21328762.8054    -747186.50049   -568849.65847                  21328759.5354
        50.2504         39.0004
  24016533.1724   -1088267.65649   -833735.30346                  24016530.8594
        43.0004         23.0004
  21862027.2504    -734391.75849   -558875.63247                  21862026.3594
        47.7504         34.0004
  22479695.2344    -458510.05949   -351142.67847                  22479693.3984
        45.5004         31.2504
  23620030.2974     336094.63749    250357.64546                  23620029.4344
        43.0004         22.7504
 04  6 30 14 28  0.0000000  0 11G 6G10G15G16G17G18G21G22G26G29G30
  20287600.5944    -372918.72349   -286705.58848                  20287598.8134
        50.7504         41.2504
  24086556.4304     345145.51649    258314.13446                  24086554.8324
        40.5004         22.0004
  24484187.9774    -961684.59049   -737421.04146                  24484187.0634
        37.0004         20.2504
  24169391.0704    -778199.89149   -601758.04446                  24169388.1454
        43.0004         22.5004
  23785031.2584      47212.07849     31494.80547                  23785031.2464
        42.5004         26.2504
  21529325.3284   -1031987.98049   -785995.14947                  21529322.3984
        50.0004         38.2504
  21322775.8204    -778647.45749   -593364.70048                  21322772.4024
        50.0004         39.5004
  24006579.8754   -1140573.99249   -874493.52146                  24006576.5784
        43.0004         24.0004
  21856260.7274    -764694.90649   -582488.47447                  21856259.8324
        47.5004         34.0004
  22476101.0554    -477395.10949   -365858.30847                  22476099.7194
        45.7504         31.0004
  23622604.4534     349625.20349    260900.96246                  23622604.0434
        43.7504         23.0004
 04  6 30 14 28 10.0000000  0 11G 6G10G15G16G17G18G21G22G26G29G30
  20284789.9384    -387688.55949   -298214.56048                  20284788.1994
        50.7504         40.7504
  24089492.2274     360572.03549    270334.80846                  24089490.5944
        39.5004         22.5004
  24475750.2424   -1006024.72349   -771971.76246                  24475749.0944
        37.2504         19.5004
  24162606.5864    -813853.82049   -629540.32746                  24162603.1054
        43.0004         22.2504
  23785373.6094      49011.35249     32896.82246                  23785373.6884
        42.0004         25.5004
  21521462.4064   -1073307.75849   -818192.37847                  21521459.9304
        50.5004         38.2504
  21316786.2424    -810121.49649   -617889.92847                  21316783.1134
        50.7504         39.0004
  23996625.1094   -1192887.38349   -915257.18246                  23996620.9344
        43.0004         22.5004
  21850501.8834    -794960.45349   -606072.01447                  21850500.6884
        47.0004         33.5004
  22472513.3054    -496247.72749   -380548.65047                  22472511.8484
        45.5004         31.5004
  23625174.6804     363130.28149    271424.33746                  23625174.2774
        44.2504         24.5004
 04  6 30 14 28 20.0000000  0 11G 6G10G15G16G17G18G21G22G26G29G30
  20281984.4384    -402432.79749   -309703.59248                  20281982.2544
        51.2504         41.2504
  24092423.0394     375976.84049    282338.45946                  24092421.7814
        41.0004         22.7504
  24467307.6724   -1050389.43049   -806541.65846                  24467307.0904
        37.2504         18.5004
  24155826.1644    -849482.69149   -657303.08346                  24155823.7974
        42.7504         24.0004
  23785711.1644      50788.98449     34281.98047                  23785711.7664
        42.0004         26.5004
  21513602.2894   -1114612.55149   -850377.92747                  21513599.9384
        49.7504         38.5004
  21310794.6954    -841608.02349   -642424.89247                  21310791.8794
        50.5004         38.5004
  23986669.1644   -1245207.00849   -956025.73746                  23986665.4224
        43.0004         23.5004
  21844749.5004    -825187.52349   -629625.58347                  21844748.2464
        48.0004         34.2504
  22468932.7114    -515067.08649   -395213.10147                  22468931.1884
        45.5004         31.0004
  23627740.4304     376610.40249    281928.28846                  23627740.0084
        44.5004         25.2504
 04  6 30 14 28 30.0000000  0 11G 6G10G15G16G17G18G21G22G26G29G30
  20279183.5784    -417150.48449   -321171.92848                  20279181.8754
        51.0004         41.0004
  24095350.2974     391360.75049    294325.91346                  24095349.6604
        40.5004         22.5004
  24458860.2584   -1094777.79749   -841130.01946                  24458860.5164
        37.2504         18.2504
  24149051.0634    -885085.55549   -685045.56846                  24149048.9144
        41.7504         24.0004
  23786045.7114      52545.77349     35650.86546                  23786045.8324
        42.0004         25.2504
  21505745.4304   -1155901.43049   -882551.07647                  21505742.6804
        47.5004         38.2504
  21304800.9064    -873105.91049   -666968.70647                  21304797.4694
        48.5004         38.5004
  23976712.1024   -1297531.95749   -996798.43546                  23976708.6094
        42.5004         24.5004
  21839004.7194    -855375.19949   -653148.44947                  21839003.6564
        47.5004         34.5004
  22465357.6334    -533852.34849   -409850.99447                  22465356.1914
        46.2504         31.0004
  23630300.8524     390066.35949    292413.44847                  23630300.6174
        44.5004         25.7504
 04  6 30 14 28 40.0000000  0 11G 6G10G15G16G17G18G21G22G26G29G30
  20276388.1564    -431840.53949   -332618.74148                  20276386.6134
        51.2504         40.7504
  24098274.9384     406724.84049    306297.90446                  24098273.5634
        40.0004         22.7504
  24450409.7974   -1139188.68449   -875735.87946                  24450409.2304
        36.7504         17.7504
  24142280.6804    -920661.15649   -712766.81647                  24142278.4224
        41.5004         26.0004
  23786376.4844      54282.89149     37004.44146                  23786376.6024
        42.0004         25.5004
  21497891.4534   -1197173.22349   -914710.90847                  21497888.8524
        49.5004         38.7504
  21298805.1884    -904614.07449   -691520.52947                  21298802.0554
        50.5004         38.5004
  23966753.8444   -1349861.00049  -1037574.28046                  23966751.2814
        43.0004         23.5004
  21833268.1564    -885522.35249   -676639.72247                  21833267.2934
        48.5004         35.0004
  22461789.5314    -552602.33249   -424461.35447                  22461788.3634
        46.2504         31.7504
  23632857.2424     403499.19549    302880.54847                  23632856.7704
        45.0004         25.7504
 04  6 30 14 28 50.0000000  0 11G 6G10G15G16G17G18G21G22G26G29G30
  20273597.9614    -446502.73049   -344043.81848                  20273596.3364
        51.0004         41.2504
  24101194.6094     422069.12149    318254.45146                  24101193.1604
        40.5004         22.7504
  24441953.6884   -1183621.95349   -910359.21546                  24441953.4454
        36.0004         17.2504
  24135516.3674    -956209.44149   -740466.77146                  24135514.0124
        42.0004         25.5004
  23786703.4694      56000.51249     38342.79446                  23786703.1134
        41.0004         23.5004
  21490040.9454   -1238427.84849   -946857.36947                  21490038.6884
        48.0004         38.5004
  21292807.5864    -936132.46949   -716080.32047                  21292804.2384
        48.5004         38.5004
  23956795.3754   -1402194.02749  -1078353.26546                  23956792.4884
        43.0004         24.7504
  21827539.0634    -915628.66449   -700099.19447                  21827538.1174
        48.5004         35.0004
  22458227.8524    -571316.91849   -439044.14547                  22458227.0944
        46.0004         31.7504
  23635409.0784     416908.96149    313329.69046                  23635408.2504
        44.7504         25.5004
 04  6 30 14 29  0.0000000  0 11G 6G10G15G16G17G18G21G22G26G29G30
  20270813.5394    -461135.65649   -355446.10948                  20270811.7424
        51.2504         41.5004
  24104110.8524     437394.98849    330196.69146                  24104109.7854
        41.0004         22.2504
  24433494.2344   -1228076.08649   -944998.87646                  24433494.1214
        36.7504         18.2504
  24128757.6954    -991728.82849   -768144.24346                  24128755.4064
        41.7504         22.2504
  23787026.7424      57699.98849     39667.03647                  23787026.3014
        40.5004         26.0004
  21482193.8674   -1279663.74249   -978989.23747                  21482191.3754
        49.7504         38.2504
  21286807.6954    -967659.55949   -740646.88647                  21286804.6564
        50.5004         38.7504
  23946836.4844   -1454529.43049  -1119134.11446                  23946833.7114
        43.0004         25.0004
  21821818.4924    -945692.72349   -723525.73847                  21821817.2734
        47.7504         34.5004
  22454674.1174    -589994.66449   -453598.24247                  22454672.5474
        45.5004         31.5004
  23637956.7734     430297.01649    323761.91047                  23637956.3954
        44.5004         26.5004
 04  6 30 14 29 10.0000000  0 11G 6G10G15G16G17G18G21G22G26G29G30
  20268034.5474    -475739.12149   -366825.43448                  20268032.6174
        51.0004         41.2504
  24107023.8754     452702.39149    342124.53446                  24107022.0784
        41.0004         22.2504
  24425030.8674   -1272551.03549   -979654.57846                  24425030.8134
        37.7504         17.7504
  24122003.9844   -1027219.12949   -795799.04046                  24122001.5944
        42.0004         22.7504
  23787346.7424      59381.60949     40977.37246                  23787346.4614
        41.2504         22.7504
  21474350.6174   -1320880.77749  -1011106.41047                  21474348.2624
        47.2504         38.2504
  21280806.8674    -999195.32449   -765220.21747                  21280804.0354
        48.5004         39.0004
  23936876.6174   -1506867.09449  -1159916.64646                  23936873.8164
        43.0004         25.0004
  21816104.9064    -975714.28949   -746919.15347                  21816103.9964
        48.2504         34.0004
  22451127.1174    -608635.39849   -468123.50147                  22451125.2504
        46.0004         30.7504
  23640500.2194     443663.30949    334177.18346                  23640499.7584
        44.5004         25.0004
 04  6 30 14 29 20.0000000  0 11G 6G10G15G16G17G18G21G22G26G29G30
  20265261.6644    -490311.45749   -378180.50648                  20265260.0744
        51.0004         41.5004
  24109933.2734     467993.14549    354039.35346                  24109932.4844
        40.2504         21.7504
  24416564.4304   -1317044.95349  -1014325.13246                  24416563.8594
        37.2504         19.0004
  24115256.6094   -1062678.52349   -823429.71646                  24115254.1804
        41.7504         22.7504
  23787663.5164      61047.05949     42275.07346                  23787662.7234
        40.7504         22.5004
  21466511.2344   -1362077.05149  -1043207.39447                  21466508.2814
        46.2504         38.5004
  21274804.5084   -1030737.84449   -789798.81047                  21274801.3874
        48.0004         39.0004
  23926916.8984   -1559205.13349  -1200699.54946                  23926914.3134
        43.2504         24.5004
  21810400.8444   -1005691.47349   -770278.00247                  21810399.6134
        48.5004         34.5004
  22447587.2894    -627237.32849   -482618.51347                  22447585.2584
        45.5004         29.7504
  23643039.7814     457009.60249    344576.87846                  23643039.3954
        45.2504         24.5004
 04  6 30 14 29 30.0000000  0 11G 6G10G15G16G17G18G21G22G26G29G30
  20262494.2344    -504852.61749   -389511.29748                  20262492.7424
        51.0004         42.0004
  24112840.0634     483266.89849    365940.98346                  24112838.1024
        40.7504         22.5004
  24408093.9144   -1361558.10949  -1049010.74546                  24408093.8484
        37.7504         18.5004
  24108514.5784   -1098107.18749   -851036.46646                  24108512.1134
        41.0004         22.7504
  23787977.6484      62696.22749     43560.11846                  23787976.3874
        41.0004         22.5004
  21458675.9144   -1403252.82049  -1075292.41347                  21458673.1134
        48.0004         38.5004
  21268801.0314   -1062287.35249   -814382.84447                  21268797.9024
        48.7504         39.0004
  23916956.8524   -1611543.64149  -1241482.78947                  23916954.7774
        43.2504         26.2504
  21804704.4844   -1035624.41849   -793602.36847                  21804703.3554
        48.7504         34.0004
  22444054.4774    -645800.61749   -497083.42847                  22444053.0474
        46.2504         30.5004
  23645575.7974     470335.49649    354960.69147                  23645575.1334
        44.5004         26.0004
 04  6 30 14 29 40.0000000  0 11G 6G10G15G16G17G18G21G22G26G29G30
  20259733.6024    -519363.09449   -400818.16448                  20259731.5084
        51.0004         41.0004
  24115743.1954     498523.29349    377829.02946                  24115742.1134
        41.2504         22.7504
  24399620.1254   -1406090.78949  -1083711.50046                  24399618.6174
        38.2504         19.0004
  24101778.2504   -1133505.38749   -878619.49446                  24101775.8444
        41.7504         22.5004
  23788288.0004      64328.75849     44832.19546                  23788287.5824
        41.5004         21.7504
  21450844.1724   -1444408.34049  -1107361.64947                  21450841.6954
        47.7504         38.5004
  21262795.9384   -1093844.22749   -838972.61647                  21262792.7624
        47.7504         38.7504
  23906997.7194   -1663882.94149  -1282266.62447                  23906994.7734
        43.0004         26.0004
  21799016.8594   -1065513.32849   -816892.43247                  21799015.7544
        48.0004         34.2504
  22440529.2194    -664325.60949   -511518.47247                  22440527.7894
        46.0004         30.5004
  23648107.8284     483640.62949    365328.30847                  23648106.7274
        44.7504         26.0004
 04  6 30 14 29 50.0000000  0 11G 6G10G15G16G17G18G21G22G26G29G30
  20256978.3754    -533840.97749   -412099.63548                  20256976.1454
        51.0004         41.2504
  24118643.5394     513764.02749    389704.96246                  24118642.5594
        41.5004         22.2504
  24391141.8524   -1450641.27049  -1118426.20846                  24391140.8364
        38.2504         18.5004
  24095048.7034   -1168871.25049   -906177.36646                  24095045.8164
        42.0004         22.7504
  23788596.0164      65946.48049     46092.76146                  23788595.5314
        41.7504         22.2504
  21443017.1024   -1485541.78149  -1139413.68247                  21443014.3984
        48.5004         38.5004
  21256789.6484   -1125406.52749   -863566.62147                  21256786.6684
        48.5004         38.5004
  23897038.0084   -1716221.07849  -1323049.59246                  23897035.0314
        44.0004         25.5004
  21793338.0164   -1095356.25449   -840146.66347                  21793337.0124
        48.2504         34.2504
  22437011.5634    -682810.30549   -525922.14247                  22437009.9654
        46.2504         31.0004
  23650635.7194     496926.70349    375681.04946                  23650634.7154
        45.0004         25.5004
 04  6 30 14 30  0.0000000  0 11G 6G10G15G16G17G18G21G22G26G29G30
  20254229.4384    -548286.24249   -423355.70348                  20254227.7704
        51.5004         41.2504
  24121540.0944     528989.02749    401568.56046                  24121539.9694
        40.7504         22.7504
  24382661.9694   -1495209.51449  -1153154.70846                  24382659.7974
        39.0004         19.2504
  24088324.4924   -1204204.86349   -933710.03546                  24088322.0664
        41.2504         22.7504
  23788900.8594      67549.21949     47341.59946                  23788900.7114
        42.0004         23.7504
  21435193.3914   -1526653.16849  -1171448.52547                  21435190.9264
        47.5004         38.7504
  21250782.6024   -1156974.44549   -888165.00347                  21250779.6134
        48.0004         39.2504
  23887078.6804   -1768558.17249  -1363831.75847                  23887075.8054
        43.7504         26.7504
  21787667.8524   -1125153.44149   -863365.24147                  21787666.1804
        47.2504         34.2504
  22433501.7274    -701254.98049   -540294.61447                  22433499.7934
        46.5004         30.0004
  23653160.9844     510193.51649    386018.79647                  23653160.0314
        45.0004         26.5004
 04  6 30 14 30 10.0000000  0 11G 6G10G15G16G17G18G21G22G26G29G30
  20251487.1484    -562697.25849   -434585.06948                  20251485.6174
        51.0004         41.2504
  24124435.2504     544199.83649    413421.10046                  24124434.4924
        39.5004         23.0004
  24374177.1334   -1539793.97349  -1187895.83746                  24374175.7894
        39.5004         20.0004
  24081607.3134   -1239504.44549   -961216.21746                  24081604.5704
        41.5004         22.5004
  23789203.7504      69138.80149     48580.22946                  23789203.9304
        42.5004         22.5004
  21427374.7424   -1567740.80549  -1203464.86647                  21427372.4964
        49.7504         39.0004
  21244774.8134   -1188546.21149   -912766.38247                  21244771.7704
        49.2504         38.7504
  23877119.6094   -1820892.39149  -1404611.66347                  23877116.6334
        43.7504         26.2504
  21782007.0704   -1154902.85549   -886546.60947                  21782005.1764
        46.7504         34.7504
  22430000.1564    -719657.90649   -554634.57147                  22429998.1954
        46.2504         30.5004
  23655682.0474     523442.69949    396342.79847                  23655680.9104
        44.5004         26.5004
 04  6 30 14 30 20.0000000  0 11G 6G10G15G16G17G18G21G22G26G29G30
  20248751.4844    -577072.44149   -445786.51948                  20248749.4844
        50.7504         41.0004
  24127327.4534     559397.96549    425263.78546                  24127327.2704
        39.5004         24.0004
  24365690.2504   -1584392.99649  -1222648.29246                  24365688.5124
        38.5004         19.5004
  24074897.1024   -1274768.37149   -988694.61546                  24074894.2114
        41.7504         22.7504
  23789504.0164      70716.71549     49809.71246                  23789504.1134
        43.5004         22.5004
  21419560.9384   -1608802.99249  -1235461.36047                  21419558.4884
        49.5004         38.7504
  21238765.9844   -1220120.52749   -937369.75047                  21238763.3324
        49.7504         38.5004
  23867162.3054   -1873222.10249  -1445388.04447                  23867158.9844
        44.5004         26.0004
  21776354.8914   -1184603.00849   -909689.58647                  21776353.3164
        46.5004         34.5004
  22426506.2974    -738017.41049   -568940.68147                  22426504.7774
        46.2504         30.7504
  23658200.3134     536675.66849    406654.17147                  23658199.2974
        45.0004         27.0004
 04  6 30 14 30 30.0000000  0 11G 6G10G15G16G17G18G21G22G26G29G30
  20246022.1484    -591415.21149   -456962.70448                  20246020.5274
        50.5004         41.0004
  24130216.7504     574579.92649    437093.83646                  24130216.2154
        40.0004         24.0004
  24357200.4384   -1629010.05949  -1257414.82546                  24357198.2704
        38.7504         19.0004
  24068192.3054   -1310000.00849  -1016147.82046                  24068190.1844
        41.0004         22.7504
  23789801.4454      72279.66849     51027.58546                  23789801.6804
        43.0004         22.2504
  21411751.0864   -1649843.17649  -1267440.72847                  21411749.0124
        47.2504         38.5004
  21232756.4144   -1251700.57849   -961977.59347                  21232753.9654
        48.0004         38.7504
  23857204.0554   -1925550.74649  -1486163.61047                  23857200.8674
        43.7504         26.2504
  21770712.1954   -1214257.19149   -932796.74747                  21770710.5394
        46.7504         34.0004
  22423020.1174    -756336.85549   -583215.57147                  22423018.8244
        46.0004         30.5004
  23660714.2664     549888.96149    416950.21147                  23660713.9064
        45.5004         27.0004
 04  6 30 14 30 40.0000000  0 11G 6G10G15G16G17G18G21G22G26G29G30
  20243299.3914    -605722.63349   -468111.35048                  20243297.7624
        51.0004         40.5004
  24133102.6564     589748.54349    448913.52546                  24133102.3594
        41.2504         23.0004
  24348706.9924   -1673642.21949  -1292193.13646                  24348705.2424
        39.2504         19.5004
  24061494.3364   -1345196.41449  -1043573.62346                  24061492.4184
        41.5004         22.0004
  23790096.3054      73830.54749     52236.05946                  23790096.0514
        42.5004         22.2504
  21403946.0234   -1690858.42249  -1299400.66047                  21403943.8594
        48.0004         39.0004
  21226746.5554   -1283283.31649   -986587.51947                  21226744.1214
        48.7504         38.2504
  23847247.3204   -1977875.28149  -1526935.96747                  23847243.9184
        44.2504         26.2504
  21765078.3444   -1243862.52349   -955865.83847                  21765076.2854
        46.5004         34.0004
  22419541.9534    -774613.41849   -597457.08047                  22419540.8634
        45.5004         30.7504
  23663225.6254     563085.32049    427233.07247                  23663225.1524
        45.2504         28.0004
 04  6 30 14 30 50.0000000  0 11G 6G10G15G16G17G18G21G22G26G29G30
  20240583.7814    -619995.23049   -479232.86448                  20240581.9614
        51.2504         40.7504
  24135987.1334     604903.08649    460722.24346                  24135986.5944
        41.7504         25.0004
  24340210.0474   -1718290.09849  -1326983.73646                  24340208.8444
        39.5004         20.5004
  24054803.5394   -1380358.21149  -1070972.46846                  24054801.3204
        41.0004         22.7504
  23790388.4774      75368.59049     53434.55646                  23790388.6644
        42.5004         21.7504
  21396145.7894   -1731849.40649  -1331341.68647                  21396143.2544
        49.2504         39.0004
  21220736.1174   -1314869.50449  -1011200.13447                  21220733.4964
        50.0004         38.7504
  23837290.6024   -2030196.34449  -1567705.66447                  23837287.1804
        44.0004         25.7504
  21759453.6724   -1273419.52349   -978897.26147                  21759452.4414
        47.2504         33.2504
  22416072.2034    -792847.77749   -611665.64947                  22416071.0824
        45.7504         31.0004
  23665733.7664     576263.95349    437502.10647                  23665732.6684
        44.5004         26.7504
 04  6 30 14 31  0.0000000  0 11G 6G10G15G16G17G18G21G22G26G29G30
  20237874.6024    -634231.35249   -490325.95448                  20237872.6764
        50.5004         40.5004
  24138868.3674     620045.28149    472521.29946                  24138867.7814
        40.7504         24.5004
  24331711.2814   -1762951.84849  -1361785.03346                  24331709.6804
        39.0004         19.7504
  24048119.5554   -1415483.47349  -1098342.75546                  24048117.3284
        41.2504         22.5004
  23790679.3204      76895.70749     54624.46146                  23790679.4734
        41.5004         22.5004
  21388350.5864   -1772814.16049  -1363262.27147                  21388348.4534
        49.7504         38.7504
  21214725.0704   -1346457.21949  -1035813.94147                  21214722.4414
        50.2504         38.5004
  23827335.3134   -2082512.02049  -1608471.07847                  23827332.0744
        44.0004         26.7504
  21753838.7504   -1302926.28149  -1001889.53347                  21753837.1644
        47.5004         33.0004
  22412610.1804    -811037.99249   -625839.85347                  22412609.5784
        45.5004         30.0004
  23668238.2274     589426.71149    447758.74247                  23668237.6844
        45.7504         28.2504
 04  6 30 14 31 10.0000000  0 11G 6G10G15G16G17G18G21G22G26G29G30
  20235171.9774    -648432.10949   -501391.48048                  20235170.1334
        51.0004         40.7504
  24141747.1804     635173.78149    484309.74147                  24141746.8014
        42.0004         26.2504
  24323210.3204   -1807628.78149  -1396598.30246                  24323208.2814
        39.5004         19.5004
  24041442.6804   -1450573.36749  -1125685.53546                  24041440.1134
        39.7504         22.2504
  23790968.1804      78410.72749     55804.96646                  23790968.5164
        41.2504         21.2504
  21380560.0164   -1813753.97349  -1395163.42747                  21380557.7384
        49.5004         39.0004
  21208713.5784   -1378047.73449  -1060429.93248                  21208710.8134
        50.0004         39.5004
  23817381.0784   -2134823.50049  -1649233.27247                  23817377.6294
        44.7504         27.5004
  21748233.3524   -1332383.92249  -1024843.54347                  21748232.2114
        47.0004         33.5004
  22409157.8054    -829185.34049   -639980.66447                  22409156.5274
        45.5004         30.7504
  23670739.4064     602572.18449    458001.94247                  23670739.4534
        45.5004         27.5004
 04  6 30 14 31 20.0000000  0 11G 6G10G15G16G17G18G21G22G26G29G30
  20232476.8284    -662596.42249   -512428.62148                  20232474.9414
        51.2504         41.2504
  24144624.0474     650289.50849    496088.22146                  24144623.1414
        41.5004         25.5004
  24314705.8134   -1852319.91449  -1431422.48946                  24314704.2114
        39.0004         20.5004
  24034771.1334   -1485626.89849  -1152999.96946                  24034769.6374
        41.0004         22.2504
  23791253.8984      79914.52049     56976.70846                  23791253.8634
        40.7504         19.7504
  21372774.4694   -1854667.75849  -1427044.28747                  21372772.2304
        49.5004         38.7504
  21202701.6954   -1409640.16449  -1085047.41547                  21202698.8674
        50.0004         38.7504
  23807427.5234   -2187129.78149  -1689991.41347                  23807424.3634
        44.5004         27.5004
  21742637.1564   -1361791.43749  -1047758.48047                  21742635.6134
        47.7504         34.0004
  22405712.7034    -847288.82049   -654087.28047                  22405711.8094
        45.7504         30.2504
  23673237.7194     615701.22749    468232.34847                  23673237.3874
        44.5004         26.2504
 04  6 30 14 31 30.0000000  0 11G 6G10G15G16G17G18G21G22G26G29G30
  20229788.2114    -676724.51649   -523437.53048                  20229786.6024
        51.2504         41.2504
  24147497.6484     665392.30149    507856.59046                  24147496.9884
        42.2504         24.7504
  24306198.0084   -1897025.22749  -1466257.82146                  24306196.4654
        39.2504         20.0004
  24028107.9774   -1520644.11349  -1180286.13746                  24028105.7774
        40.7504         24.2504
  23791538.5394      81407.15249     58139.79946                  23791538.0434
        40.5004         21.0004
  21364993.8134   -1895555.57449  -1458904.91747                  21364991.4774
        49.7504         39.0004
  21196689.7194   -1441234.46549  -1109666.35247                  21196686.6954
        50.5004         39.0004
  23797474.3674   -2239430.73449  -1730745.39047                  23797472.1374
        44.5004         27.5004
  21737050.5394   -1391148.82449  -1070634.34947                  21737049.2384
        47.5004         33.7504
  22402276.1954    -865348.41049   -668159.68747                  22402274.6454
        45.2504         30.2504
  23675732.7664     628813.68049    478449.84247                  23675732.5594
        44.0004         26.2504
 04  6 30 14 31 40.0000000  0 11G 6G10G15G16G17G18G21G22G26G29G30
  20227107.2894    -690814.26249   -534416.55048                  20227105.3244
        51.0004         41.0004
  24150369.3444     680484.17649    519616.45446                  24150368.9964
        41.0004         24.0004
  24297688.6564   -1941742.75449  -1501102.62746                  24297687.2854
        39.5004         19.7504
  24021452.3444   -1555622.96149  -1207542.39746                  24021449.7464
        41.5004         22.2504
  23791820.3914      82890.63749     59295.75146                  23791819.8524
        40.0004         20.2504
  21357218.2424   -1936415.31249  -1490743.68647                  21357216.2464
        50.0004         39.0004
  21190677.2974   -1472828.68749  -1134285.22647                  21190674.6484
        50.5004         38.7504
  23787523.5944   -2291724.34049  -1771493.64547                  23787520.8794
        43.7504         27.5004
  21731473.7344   -1420453.98449  -1093469.55947                  21731472.7934
        48.0004         33.0004
  22398848.0164    -883362.09849   -682196.34047                  22398846.7894
        45.7504         31.0004
  23678225.7194     641911.55949    488655.91647                  23678225.0594
        43.5004         26.0004
 04  6 30 14 31 50.0000000  0 11G 6G10G15G16G17G18G21G22G26G29G30
  20224433.3134    -704865.67249   -545365.71548                  20224431.3204
        51.5004         41.2504
  24153239.2424     695564.93449    531367.66546                  24153238.7544
        41.5004         24.2504
  24289175.9694   -1986472.55549  -1535957.03246                  24289175.5784
        39.5004         20.0004
  24014803.0394   -1590563.51249  -1234768.79746                  24014800.7584
        41.5004         25.2504
  23792101.2424      84364.75049     60444.33246                  23792100.8754
        39.2504         19.7504
  21349448.3284   -1977247.09849  -1522560.65647                  21349446.2894
        50.2504         39.0004
  21184665.0394   -1504423.07049  -1158904.23348                  21184662.2974
        50.5004         39.5004
  23777573.1644   -2344010.69549  -1812236.23847                  23777571.2584
        43.5004         25.7504
  21725907.2424   -1449706.91449  -1116264.03847                  21725906.1054
        48.0004         33.5004
  22395429.0704    -901330.06649   -696197.35947                  22395427.4264
        46.2504         31.5004
  23680715.6954     654994.57049    498850.44247                  23680714.5554
        44.0004         25.7504
 04  6 30 14 32  0.0000000  0 11G 6G10G15G16G17G18G21G22G26G29G30
  20221766.6484    -718878.56649   -556284.85548                  20221765.0044
        51.2504         41.2504
  24156106.8204     710634.59449    543110.22446                  24156106.5554
        41.5004         24.0004
  24280663.2664   -2031214.52749  -1570820.93046                  24280661.0984
        39.7504         20.0004
  24008162.0944   -1625465.49249  -1261965.15146                  24008158.9884
        41.2504         24.7504
  23792380.5864      85829.69149     61585.86546                  23792379.1804
        40.5004         20.2504
  21341683.4224   -2018050.74649  -1554355.70847                  21341681.4414
        50.7504         39.0004
  21178653.0554   -1536017.28949  -1183523.11947                  21178649.9924
        51.0004         39.0004
  23767625.1804   -2396289.57849  -1852973.02547                  23767622.3714
        42.5004         26.2504
  21720350.5634   -1478907.44949  -1139017.71047                  21720349.7894
        48.0004         33.5004
  22392018.7894    -919252.05549   -710162.56247                  22392017.7424
        46.0004         30.2504
  23683202.2114     668062.69949    509033.37847                  23683201.3794
        43.5004         27.0004
 04  6 30 14 32 10.0000000  0 11G 6G10G15G16G17G18G21G22G26G29G30
  20219107.2734    -732853.34049   -567174.29148                  20219105.4654
        51.0004         41.0004
  24158972.7664     725692.85249    554843.90646                  24158971.6804
        41.2504         25.0004
  24272146.0164   -2075968.94149  -1605694.49446                  24272145.0164
        40.0004         20.2504
  24001527.2114   -1660329.15249  -1289131.64346                  24001524.7544
        41.5004         22.7504
  23792657.3364      87285.26249     62720.02846                  23792656.0944
        39.2504         20.5004
  21333924.1954   -2058826.48049  -1586129.00447                  21333921.9184
        50.2504         38.5004
  21172641.0554   -1567611.52349  -1208141.99147                  21172637.9344
        51.0004         39.0004
  23757677.9064   -2448561.12549  -1893704.10346                  23757675.6914
        42.7504         25.2504
  21714803.6024   -1508055.75449  -1161730.67547                  21714802.5084
        47.5004         34.2504
  22388616.6564    -937128.37549   -724092.16647                  22388615.4614
        46.2504         30.5004
  23685685.7734     681115.66049    519204.48746                  23685685.3284
        44.0004         25.5004
 04  6 30 14 32 20.0000000  0 11G 6G10G15G16G17G18G21G22G26G29G30
  20216455.1414    -746789.91849   -578033.97248                  20216453.6484
        51.0004         41.0004
  24161836.1414     740739.78949    566568.76846                  24161835.1954
        41.7504         24.5004
  24263627.4614   -2120735.62149  -1640577.63046                  24263626.2384
        41.2504         21.5004
  23994899.9924   -1695154.21149  -1316268.06046                  23994898.0164
        42.5004         24.0004
  23792932.1644      88731.61749     63847.02846                  23792931.1484
        40.5004         20.5004
  21326170.5234   -2099574.02749  -1617880.33947                  21326168.3594
        50.2504         38.5004
  21166628.6644   -1599205.61749  -1232760.77647                  21166625.8014
        50.0004         39.0004
  23747732.9614   -2500825.16849  -1934429.30647                  23747730.2544
        43.0004         26.5004
  21709267.1414   -1537151.54349  -1184402.73747                  21709265.9694
        47.5004         33.5004
  22385224.1644    -954958.81649   -737986.02147                  22385222.1684
        46.0004         30.5004
  23688167.3524     694153.53549    529363.85347                  23688166.9144
        43.0004         26.7504
 04  6 30 14 32 30.0000000  0 11G 6G10G15G16G17G18G21G22G26G29G30
  20213810.8754    -760687.36349   -588863.15848                  20213809.0744
        51.0004         41.0004
  24164697.3674     755775.73049    578285.02846                  24164696.7624
        42.7504         24.5004
  24255106.5474   -2165514.16049  -1675470.03646                  24255105.3834
        40.7504         21.2504
  23988280.8524   -1729940.31649  -1343374.12946                  23988278.6764
        42.0004         23.0004
  23793206.1024      90169.10949     64967.17746                  23793204.8674
        40.7504         21.5004
  21318421.7274   -2140292.96549  -1649609.38047                  21318419.5474
        50.2504         38.5004
  21160616.6954   -1630799.18449  -1257379.15147                  21160613.6724
        50.5004         38.5004
  23737788.7194   -2553081.20349  -1975148.29046                  23737785.7304
        43.0004         24.5004
  21703740.0704   -1566194.45349  -1207033.58047                  21703738.9494
        47.7504         33.0004
  22381839.7734    -972742.95349   -751843.79447                  22381837.9184
        46.2504         30.2504
  23690645.5394     707176.63749    539511.63947                  23690645.1804
        43.7504         26.0004
 04  6 30 14 32 40.0000000  0 11G 6G10G15G16G17G18G21G22G26G29G30
  20211173.7344    -774544.87949   -599661.23248                  20211172.1644
        51.2504         40.7504
  24167557.2424     770801.78549    589993.64547                  24167556.2074
        42.2504         26.0004
  24246583.9224   -2210303.44949  -1710370.76446                  24246582.8204
        41.2504         21.2504
  23981668.6484   -1764686.27349  -1370448.89646                  23981666.5984
        41.5004         24.7504
  23793477.3754      91599.01649     66081.33946                  23793476.8914
        40.2504         19.7504
  21310678.7114   -2180982.20349  -1681315.27747                  21310676.6294
        50.5004         38.7504
  21154604.9844   -1662391.14549  -1281996.25847                  21154601.9224
        51.0004         39.0004
  23727845.9534   -2605328.07049  -2015860.14646                  23727843.3524
        42.2504         25.5004
  21698224.0394   -1595183.19549  -1229622.20847                  21698222.6294
        47.0004         32.5004
  22378464.3524    -990479.67249   -765664.64547                  22378463.0084
        46.0004         30.5004
  23693121.1094     720185.94549    549648.74747                  23693120.5164
        43.7504         26.0004
 04  6 30 14 32 50.0000000  0 11G 6G10G15G16G17G18G21G22G26G29G30
  20208544.5084    -788361.49649   -610427.43648                  20208542.6764
        51.2504         40.5004
  24170413.7344     785818.68449    601695.09647                  24170413.6644
        41.7504         26.0004
  24238058.6884   -2255102.54349  -1745279.16746                  24238057.6994
        41.5004         22.0004
  23975064.9924   -1799391.16849  -1397491.69346                  23975062.3324
        42.0004         24.2504
  23793748.4144      93022.20749     67190.27346                  23793747.7894
        40.5004         19.5004
  21302941.7034   -2221640.78549  -1712997.28247                  21302939.4884
        50.7504         39.0004
  21148593.7034   -1693980.58249  -1306611.42247                  21148590.6254
        51.2504         39.0004
  23717906.0084   -2657564.83249  -2056564.11247                  23717903.3754
        42.7504         26.0004
  21692717.6954   -1624116.80149  -1252167.86647                  21692716.6644
        47.0004         33.0004
  22375098.0634   -1008168.03549   -779447.76847                  22375096.7274
        46.0004         31.0004
  23695594.4384     733182.25049    559775.71447                  23695593.9494
        42.5004         25.7504
 04  6 30 14 33  0.0000000  0 11G 6G10G15G16G17G18G21G22G26G29G30
  20205923.1954    -802136.90649   -621161.52748                  20205921.4804
        51.5004         40.7504
  24173270.3674     800826.98849    613389.83046                  24173269.8984
        41.5004         25.2504
  24229532.1024   -2299910.93049  -1780194.78746                  24229531.3134
        41.5004         22.0004
  23968468.0554   -1834054.32849  -1424501.92846                  23968465.6994
        42.0004         25.5004
  23794017.7734      94439.20749     68294.42846                  23794017.1214
        39.7504         20.5004
  21295210.6884   -2262268.10949  -1744654.93747                  21295208.3094
        49.7504         38.5004
  21142583.1094   -1725566.85249  -1331224.09147                  21142579.9844
        50.5004         39.0004
  23707967.6334   -2709790.72749  -2097259.58747                  23707965.1844
        42.2504         26.0004
  21687222.8524   -1652994.60249  -1274670.05847                  21687221.4454
        47.5004         33.0004
  22371741.4614   -1025807.52749   -793192.83347                  22371740.3674
        45.7504         30.5004
  23698064.9844     746166.09049    569892.96346                  23698064.6884
        42.5004         25.0004
 04  6 30 14 33 10.0000000  0 11G 6G10G15G16G17G18G21G22G26G29G30
  20203309.4224    -815872.19949   -631864.36048                  20203307.7704
        52.0004         41.2504
  24176124.3524     815825.17249    625076.67746                  24176123.8954
        40.7504         23.0004
  24221003.4224   -2344730.02049  -1815118.74246                  24221002.5394
        40.7504         22.0004
  23961879.4774   -1868677.13349  -1451480.75846                  23961877.7424
        41.0004         24.5004
  23794286.2664      95848.64549     69392.68846                  23794285.4804
        39.5004         20.7504
  21287484.8674   -2302865.57849  -1776289.32447                  21287482.6484
        51.0004         38.5004
  21136572.6884   -1757151.36349  -1355835.40447                  21136569.5824
        51.5004         39.0004
  23698031.2974   -2762007.23049  -2137947.76447                  23698028.7114
        42.5004         25.7504
  21681737.7274   -1681818.06649  -1297129.89847                  21681736.4184
        47.0004         33.5004
  22368393.7584   -1043399.52749   -806900.87947                  22368392.5904
        46.0004         31.5004
  23700532.6564     759135.86349    579999.26347                  23700533.3484
        42.5004         26.0004
 04  6 30 14 33 20.0000000  0 11G 6G10G15G16G17G18G21G22G26G29G30
  20200703.6804    -829566.27749   -642535.08848                  20200702.1294
        51.2504         41.2504
  24178976.6254     830814.27349    636756.50446                  24178976.6094
        40.0004         24.2504
  24212472.6174   -2389558.66449  -1850050.14646                  24212471.8754
        41.2504         22.0004
  23955299.2504   -1903258.48049  -1478427.27146                  23955296.8484
        42.0004         25.5004
  23794553.6174      97251.60549     70485.84546                  23794552.9304
        40.0004         19.7504
  21279765.6334   -2343432.06249  -1807899.57547                  21279763.3014
        50.7504         38.7504
  21130562.6564   -1788733.10549  -1380444.55447                  21130560.0514
        51.2504         39.0004
  23688096.6334   -2814213.13349  -2178627.68647                  23688094.1804
        41.7504         25.7504
  21676263.6884   -1710585.98849  -1319546.45147                  21676262.1564
        47.2504         33.0004
  22365055.7734   -1060942.92249   -820571.06847                  22365054.3524
        46.2504         31.2504
  23702998.3914     772092.67249    590095.43446                  23702998.3404
        42.0004         24.2504
 04  6 30 14 33 30.0000000  0 11G 6G10G15G16G17G18G21G22G26G29G30
  20198105.5394    -843219.16849   -653173.69848                  20198104.2034
        51.0004         41.0004
  24181826.9534     845794.05949    648428.98346                  24181827.0744
        40.5004         24.2504
  24203940.1954   -2434397.09449  -1884989.15546                  24203939.6764
        40.5004         22.5004
  23948726.3284   -1937798.40249  -1505341.49446                  23948724.3984
        41.5004         24.5004
  23794819.1094      98647.89149     71573.79646                  23794819.1844
        39.5004         21.0004
  21272051.9454   -2383967.64849  -1839485.74547                  21272049.4614
        49.5004         39.0004
  21124553.5944   -1820312.31249  -1405051.73447                  21124550.4224
        50.5004         38.7504
  23678164.6094   -2866408.54349  -2219299.39747                  23678161.8834
        41.0004         26.2504
  21670799.6174   -1739298.41849  -1341919.77547                  21670798.3834
        47.0004         33.0004
  22361726.5314   -1078437.77049   -834203.43347                  22361725.2704
        45.7504         31.0004
  23705461.4304     785036.12949    600181.21646                  23705461.2424
        42.5004         24.7504
 04  6 30 14 33 40.0000000  0 11G 6G10G15G16G17G18G21G22G26G29G30
  20195515.5634    -856830.62149   -663780.04548                  20195513.5594
        51.2504         41.0004
  24184676.3834     860764.98049    660094.63646                  24184675.8364
        42.0004         23.5004
  24195405.4304   -2479244.69949  -1919935.33246                  24195405.7424
        41.0004         21.5004
  23942161.7194   -1972296.34049  -1532223.03146                  23942159.1024
        41.0004         24.5004
  23795083.8444     100038.24649     72657.21346                  23795083.7154
        40.2504         20.5004
  21264344.1724   -2424471.69549  -1871047.34347                  21264341.7234
        50.5004         38.5004
  21118544.7664   -1851888.41449  -1429656.48047                  21118541.5124
        51.2504         38.5004
  23668234.4534   -2918592.81649  -2259962.46147                  23668231.3244
        42.7504         26.5004
  21665346.3054   -1767954.73449  -1364249.36947                  21665345.5004
        48.0004         32.5004
  22358406.9844   -1095883.65249   -847797.63947                  22358405.2424
        46.0004         30.5004
  23707922.5164     797966.75049    610256.99547                  23707922.2194
        42.2504         26.2504
 04  6 30 14 33 50.0000000  0 11G 6G10G15G16G17G18G21G22G26G29G30
  20192932.9534    -870401.09049   -674354.44048                  20192931.1684
        51.0004         41.0004
  24187523.2034     875726.32849    671752.82746                  24187522.6094
        42.0004         24.5004
  24186869.5864   -2524102.18049  -1954889.22446                  24186869.1844
        38.5004         21.5004
  23935605.0554   -2006752.91449  -1559072.30546                  23935602.4184
        41.2504         24.7504
  23795347.2194     101421.84449     73735.29146                  23795346.5634
        40.2504         20.2504
  21256642.3444   -2464944.93049  -1902584.91747                  21256639.6524
        50.7504         39.0004
  21112536.5474   -1883461.77749  -1454259.10347                  21112533.3284
        51.2504         39.0004
  23658305.8674   -2970766.56249  -2300617.31147                  23658303.2664
        43.0004         28.2504
  21659904.1804   -1796555.52049  -1386535.70147                  21659903.0004
        47.0004         33.7504
  22355095.9384   -1113281.06249   -861354.05047                  22355094.4924
        45.5004         31.5004
  23710380.7034     810883.81649    620322.21147                  23710379.8754
        42.5004         25.7504
 04  6 30 14 34  0.0000000  0 11G 6G10G15G16G17G18G21G22G26G29G30
  20190358.8054    -883929.41049   -684895.98948                  20190356.7704
        51.2504         41.5004
  24190368.7344     890679.00849    683404.24146                  24190368.3324
        42.2504         25.5004
  24178331.4694   -2568968.60249  -1989850.10146                  24178330.7854
        39.5004         22.0004
  23929055.9384   -2041167.13349  -1585888.56846                  23929053.9304
        41.0004         25.2504
  23795609.7734     102799.62949     74808.84946                  23795608.7544
        39.5004         20.7504
  21248946.8284   -2505386.29349  -1934097.67747                  21248944.3874
        50.7504         39.0004
  21106529.0864   -1915031.49249  -1478858.90347                  21106526.1374
        50.5004         38.7504
  23648379.7424   -3022928.75449  -2341263.15947                  23648376.5634
        42.7504         28.0004
  21654471.9774   -1825099.81249  -1408778.00847                  21654471.1564
        47.5004         33.5004
  22351794.8594   -1130629.05949   -874871.98647                  22351793.5594
        45.5004         30.2504
  23712836.4304     823788.20349    630377.51546                  23712835.6564
        42.2504         25.5004
 04  6 30 14 34 10.0000000  0 11G 6G10G15G16G17G18G21G22G26G29G30
  20187792.1954    -897416.19549   -695405.18448                  20187790.1954
        52.0004         41.7504
  24193212.3284     905622.84849    695048.79946                  24193211.9454
        42.7504         24.0004
  24169793.0784   -2613843.90649  -2024817.79746                  24169791.6644
        39.0004         21.5004
  23922514.9224   -2075538.96549  -1612671.81846                  23922513.0204
        42.0004         25.0004
  23795871.2734     104171.63749     75877.90746                  23795870.0554
        39.0004         21.0004
  21241256.9924   -2545795.84449  -1965585.62847                  21241254.3404
        50.5004         38.7504
  21100522.2344   -1946597.63349  -1503455.89247                  21100519.3674
        51.5004         39.0004
  23638455.8444   -3075079.43749  -2381900.08047                  23638452.5944
        43.0004         27.0004
  21649050.7584   -1853587.46549  -1430976.17647                  21649050.2034
        47.0004         33.2504
  22348502.3914   -1147927.77049   -888351.50847                  22348501.3054
        46.0004         31.7504
  23715288.7814     836679.64849    640422.78946                  23715288.8284
        42.5004         25.2504
 04  6 30 14 34 20.0000000  0 11G 6G10G15G16G17G18G21G22G26G29G30
  20185234.2734    -910857.83249   -705879.19248                  20185232.6804
        51.0004         41.7504
  24196054.6254     920560.87949    706688.79146                  24196054.4534
        42.5004         22.7504
  24161251.2814   -2658725.12549  -2059790.19946                  24161251.3984
        39.2504         21.5004
  23915983.1174   -2109865.33249  -1639419.65646                  23915980.5554
        42.2504         25.0004
  23796130.9384     105540.95349     76944.90946                  23796130.7854
        40.0004         20.2504
  21233573.9774   -2586170.43449  -1997046.33947                  21233571.4614
        50.5004         38.2504
  21094516.6094   -1978157.09049  -1528047.67247                  21094513.8284
        51.0004         39.2504
  23628535.0784   -3127215.45349  -2422525.52447                  23628531.7704
        43.5004         28.0004
  21643641.0554   -1882015.48849  -1453127.88847                  21643640.6524
        47.0004         33.5004
  22345220.8914   -1165174.09449   -901790.20347                  22345219.5314
        46.0004         31.5004
  23717739.9534     849561.09049    650460.23846                  23717739.9184
        42.0004         24.5004
 04  6 30 14 34 30.0000000  0 11G 6G10G15G16G17G18G21G22G26G29G30
  20182684.3054    -924257.09449   -716320.18448                  20182682.4534
        51.5004         41.7504
  24198896.2504     935490.46549    718322.17746                  24198895.1804
        43.0004         22.7504
  24152709.6174   -2703614.71549  -2094769.12646                  24152708.4734
        38.5004         20.7504
  23909459.5234   -2144148.69149  -1666133.96846                  23909456.8324
        41.7504         24.5004
  23796391.2194     106905.09049     78007.78146                  23796390.6054
        40.5004         21.0004
  21225897.1094   -2626512.57849  -2028481.77347                  21225894.7464
        50.7504         39.0004
  21088511.8524   -2009712.48449  -1552636.30347                  21088509.0354
        50.5004         39.0004
  23618615.7194   -3179339.24649  -2463141.46247                  23618612.4414
        43.7504         26.2504
  21638242.6954   -1910386.30949  -1475235.02047                  21638241.6604
        47.0004         32.7504
  22341948.6484   -1182370.54749   -915190.04747                  22341947.7544
        46.2504         32.0004
  23720189.7194     862430.08249    660488.03546                  23720188.4804
        42.2504         22.7504
 04  6 30 14 34 40.0000000  0 11G 6G10G15G16G17G18G21G22G26G29G30
  20180143.0394    -937612.80149   -726727.23548                  20180141.6454
        51.2504         41.2504
  24201735.4304     950412.32449    729949.64646                  24201735.2624
        42.0004         21.5004
  24144165.6334   -2748511.87549  -2129753.88546                  24144165.0634
        39.5004         20.2504
  23902943.9304   -2178388.10549  -1692814.02646                  23902941.3594
        42.5004         25.0004
  23796648.6414     108264.90249     79067.38746                  23796649.8164
        40.2504         21.2504
  21218226.3054   -2666821.39849  -2059891.25147                  21218224.0164
        50.5004         38.7504
  21082508.1174   -2041262.93449  -1577221.05947                  21082505.0434
        51.0004         39.0004
  23608699.1334   -3231449.87949  -2503747.15947                  23608695.9104
        43.7504         26.7504
  21632854.5864   -1938698.95349  -1497296.82347                  21632853.7074
        46.7504         33.0004
  22338685.5164   -1199516.23049   -928550.32447                  22338685.0234
        45.5004         30.7504
  23722636.2274     875287.31349    670506.56046                  23722635.8014
        42.0004         24.5004
 04  6 30 14 34 50.0000000  0 11G 6G10G15G16G17G18G21G22G26G29G30
  20177609.8364    -950925.03949   -737100.40648                  20177608.1454
        51.0004         41.0004
  24204573.5944     965326.67649    741571.15646                  24204572.9574
        41.7504         24.0004
  24135620.6884   -2793416.30949  -2164744.32546                  24135620.3244
        39.2504         19.5004
  23896436.0554   -2212583.34049  -1719459.62446                  23896434.3714
        42.2504         22.2504
  23796908.1024     109620.62149     80123.76846                  23796907.7304
        40.0004         21.5004
  21210562.5234   -2707096.57049  -2091274.48747                  21210559.9884
        50.2504         38.5004
  21076505.1804   -2072808.21149  -1601801.78647                  21076502.2194
        50.5004         38.7504
  23598785.1564   -3283547.03149  -2544342.31547                  23598782.3484
        42.2504         28.0004
  21627478.2974   -1966953.05949  -1519313.01347                  21627476.9304
        47.2504         32.7504
  22335432.5784   -1216610.90649   -941870.85447                  22335432.0704
        46.5004         30.0004
  23725080.3914     888132.82049    680516.03846                  23725080.1604
        41.7504         24.5004
 04  6 30 14 35  0.0000000  0 11G 6G10G15G16G17G18G21G22G26G29G30
  20175084.9534    -964193.16449   -747439.22648                  20175083.2774
        51.0004         41.0004
  24207410.5634     980233.82849    753187.11646                  24207410.1564
        41.7504         22.5004
  24127073.1724   -2838327.62949  -2199740.18146                  24127073.8204
        39.2504         20.7504
  23889938.3524   -2246733.93049  -1746070.51246                  23889936.0904
        42.5004         22.2504
  23797165.0554     110972.66749     81177.22046                  23797164.7114
        39.2504         21.7504
  21202905.0704   -2747337.71149  -2122631.22147                  21202902.3014
        50.2504         38.7504
  21070503.3674   -2104347.96949  -1626378.23047                  21070500.1454
        50.7504         38.7504
  23588874.3914   -3335630.35949  -2584926.70447                  23588871.4064
        43.7504         28.7504
  21622112.6414   -1995148.25449  -1541283.28647                  21622111.5234
        47.5004         33.5004
  22332190.2734   -1233654.17249   -955151.32147                  22332188.7704
        45.0004         31.0004
  23727522.7734     900967.00449    690516.63646                  23727522.3754
        42.5004         24.0004
 04  6 30 14 35 10.0000000  0 11G 6G10G15G16G17G18G21G22G26G29G30
  20172568.5474    -977415.90649   -757742.66048                  20172567.1294
        51.0004         41.2504
  24210245.6484     995134.98049    764798.40446                  24210245.3634
        40.0004         21.7504
  24118527.3914   -2883244.61749  -2234740.40846                  24118526.1684
        40.5004         20.7504
  23883448.4384   -2280838.66849  -1772645.66546                  23883445.9414
        42.0004         23.5004
  23797421.8444     112322.21949     82228.87246                  23797421.4024
        40.7504         22.0004
  21195254.0784   -2787543.53149  -2153960.42247                  21195251.5984
        50.0004         38.2504
  21064502.8674   -2135881.02749  -1650949.45447                  21064499.6954
        50.2504         39.0004
  23578966.1804   -3387698.49649  -2625499.25847                  23578963.1914
        44.5004         28.7504
  21616759.3444   -2023283.23049  -1563206.63947                  21616757.8984
        47.5004         33.2504
  22328956.5704   -1250644.75849   -968390.74447                  22328955.7894
        45.5004         31.5004
  23729963.3914     913790.98049    700509.35046                  23729962.7544
        43.0004         25.2504
 04  6 30 14 35 20.0000000  0 11G 6G10G15G16G17G18G21G22G26G29G30
  20170060.9224    -990594.58249   -768011.77648                  20170059.2854
        51.2504         40.7504
  24213079.6414    1010029.10249    776404.11346                  24213080.6334
        39.0004         20.0004
  24109978.5004   -2928168.18449  -2269745.81946                  24109977.3794
        40.0004         21.7504
  23876967.1094   -2314898.39549  -1799185.69246                  23876964.7194
        42.0004         24.7504
  23797677.8914     113668.36349     83277.75546                  23797677.7974
        40.0004         21.7504
  21187609.4694   -2827714.87949  -2185262.77947                  21187607.1174
        50.5004         39.0004
  21058503.3914   -2167408.06649  -1675515.97048                  21058500.5354
        50.7504         39.5004
  23569060.2274   -3439752.29349  -2666060.67247                  23569057.9694
        44.5004         29.5004
  21611415.9774   -2051358.85949  -1585083.75047                  21611415.0634
        47.0004         33.0004
  22325733.2734   -1267583.66449   -981589.90147                  22325732.2274
        45.5004         31.5004
  23732400.9304     926603.68849    710493.25846                  23732400.6844
        41.7504         24.7504
 04  6 30 14 35 30.0000000  0 11G 6G10G15G16G17G18G21G22G26G29G30
  20167561.4454   -1003729.51249   -778246.78648                  20167559.9144
        51.0004         41.0004
  24215912.2274    1024915.21549    788003.64646                  24215913.2304
        38.7504         20.0004
  24101427.2034   -2973099.38349  -2304757.07446                  24101427.1644
        40.0004         20.2504
  23870493.6484   -2348914.02749  -1825691.38946                  23870491.3324
        41.5004         22.7504
  23797932.8594     115010.22349     84323.34246                  23797932.8244
        41.2504         21.7504
  21179971.6644   -2867852.84449  -2216539.10947                  21179969.1454
        50.5004         38.5004
  21052504.8054   -2198930.12549  -1700078.61747                  21052502.4104
        50.2504         39.0004
  23559157.7584   -3491792.72749  -2706611.63247                  23559155.2504
        44.0004         29.2504
  21606084.7034   -2079376.09849  -1606915.36347                  21606083.8914
        46.7504         33.2504
  22322519.4844   -1284471.77749   -994749.47947                  22322518.3444
        45.7504         32.0004
  23734837.3754     939404.09849    720467.53946                  23734836.9384
        42.0004         24.5004
 04  6 30 14 35 40.0000000  0 11G 6G10G15G16G17G18G21G22G26G29G30
  20165070.4534   -1016819.71949   -788446.95548                  20165068.6254
        51.5004         41.0004
  24218743.6094    1039794.75449    799598.08946                  24218743.8364
        38.2504         19.7504
  24092876.6334   -3018036.62949  -2339773.20746                  24092875.6214
        39.5004         19.5004
  23864028.6884   -2382884.00849  -1852161.51246                  23864026.9454
        42.5004         22.5004
  23798187.9694     116349.29749     85366.75346                  23798188.0944
        41.2504         22.0004
  21172340.2814   -2907955.80949  -2247788.17547                  21172337.5784
        50.5004         38.7504
  21046507.6644   -2230445.62549  -1724636.14147                  21046504.8484
        50.5004         38.5004
  23549257.7814   -3543818.12549  -2747150.91747                  23549255.1884
        43.5004         29.0004
  21600764.5474   -2107333.24249  -1628700.15347                  21600763.8634
        47.2504         32.7504
  22319315.4844   -1301307.60949  -1007868.30947                  22319314.4734
        46.5004         32.2504
  23737271.1024     952193.59849    730433.32047                  23737271.0084
        42.5004         25.7504
 04  6 30 14 35 50.0000000  0 11G 6G10G15G16G17G18G21G22G26G29G30
  20162588.5234   -1029863.72749   -798611.12448                  20162586.1844
        51.0004         41.0004
  24221574.6884    1054668.85249    811188.26046                  24221574.1254
        39.2504         18.5004
  24084324.6174   -3062978.68749  -2374792.94446                  24084323.6914
        41.0004         19.7504
  23857573.8914   -2416807.12949  -1878595.13746                  23857571.1764
        42.0004         22.5004
  23798442.5474     117686.76249     86408.87946                  23798442.3554
        40.7504         22.7504
  21164715.5784   -2948022.56649  -2279009.02647                  21164713.4534
        50.2504         39.0004
  21040511.8524   -2261953.38349  -1749187.63747                  21040509.3554
        50.5004         38.7504
  23539360.4384   -3595827.25449  -2787677.48947                  23539357.7544
        44.2504         27.2504
  21595456.4534   -2135229.09049  -1650437.18047                  21595455.4774
        47.5004         33.2504
  22316121.9384   -1318089.96149  -1020945.47547                  22316121.2584
        46.0004         31.0004
  23739703.5164     964973.31349    740391.56147                  23739703.3674
        42.5004         26.0004
 04  6 30 14 36  0.0000000  0 11G 6G10G15G16G17G18G21G22G26G29G30
  20160114.7504   -1042862.02749   -808739.68048                  20160112.9024
        52.0004         41.0004
  24224404.3914    1069536.93049    822773.82646                  24224403.8404
        40.0004         19.7504
  24075771.0234   -3107926.05149  -2409816.91446                  24075770.3874
        40.7504         22.0004
  23851127.5394   -2450683.71149  -1904992.44546                  23851124.8484
        43.0004         22.5004
  23798696.9224     119022.27749     87449.51346                  23798696.3714
        41.5004         23.5004
  21157098.0634   -2988053.42249  -2310201.89147                  21157095.4344
        50.2504         39.0004
  21034517.5234   -2293453.85949  -1773733.47147                  21034514.5514
        50.2504         38.7504
  23529467.0084   -3647820.45349  -2828191.66347                  23529463.7854
        43.5004         27.7504
  21590159.2664   -2163063.96549  -1672126.69747                  21590158.3674
        47.2504         33.2504
  22312938.6644   -1334819.12549  -1033981.18747                  22312937.6724
        45.5004         31.2504
  23742133.0474     977742.73049    750341.71246                  23742133.1454
        42.0004         25.2504
 04  6 30 14 36 10.0000000  0 11G 6G10G15G16G17G18G21G22G26G29G30
  20157649.7194   -1055816.15249   -818833.80948                  20157647.9774
        51.2504         40.5004
  24227231.7504    1084397.35549    834353.33346                  24227231.9494
        41.2504         20.0004
  24067216.4534   -3152880.30949  -2444846.19746                  24067215.7464
        39.5004         20.7504
  23844689.1884   -2484515.34849  -1931354.78746                  23844687.1094
        42.5004         22.5004
  23798949.9534     120354.13349     88487.31246                  23798950.1804
        41.2504         22.7504
  21149486.8834   -3028050.03949  -2341368.08947                  21149484.6024
        50.0004         38.7504
  21028524.4924   -2324948.70349  -1798274.91247                  21028521.3984
        50.7504         39.0004
  23519575.5784   -3699799.35249  -2868694.71647                  23519572.8914
        43.2504         27.2504
  21584874.3054   -2190839.44549  -1693769.94447                  21584873.3364
        46.5004         33.2504
  22309765.1414   -1351496.90249  -1046976.87647                  22309763.6844
        45.7504         31.5004
  23744561.0164     990500.09849    760282.48847                  23744561.0944
        42.7504         26.0004
 04  6 30 14 36 20.0000000  0 11G 6G10G15G16G17G18G21G22G26G29G30
  20155193.4774   -1068723.63749   -828891.59048                  20155191.7464
        51.5004         41.0004
  24230059.0634    1099252.51649    845928.69846                  24230058.3284
        41.5004         20.7504
  24058661.3834   -3197838.99249  -2479878.87246                  24058660.8404
        41.0004         20.5004
  23838261.5784   -2518299.52049  -1957680.12246                  23838258.5004
        43.0004         24.2504
  23799203.5554     121684.94949     89524.27346                  23799203.6174
        42.2504         22.5004
  21141883.0314   -3068009.88749  -2372505.62547                  21141880.6954
        50.7504         38.7504
  21022532.9224   -2356435.32449  -1822809.94247                  21022529.5164
        51.0004         38.7504
  23509687.6024   -3751761.40649  -2909184.61247                  23509685.2114
        43.5004         28.0004
  21579600.4144   -2218553.00449  -1715364.90647                  21579599.7384
        47.7504         33.5004
  22306601.8444   -1368120.71549  -1059930.49147                  22306600.7424
        45.5004         31.2504
  23746987.1094    1003247.82049    770215.75546                  23746986.8754
        42.7504         25.0004
 04  6 30 14 36 30.0000000  0 11G 6G10G15G16G17G18G21G22G26G29G30
  20152746.0474   -1081585.42249   -838913.78048                  20152744.5124
        51.0004         40.5004
  24232885.0784    1114101.34449    857499.29446                  24232884.1054
        41.7504         20.5004
  24050105.0554   -3242803.03949  -2514915.82046                  24050105.0314
        41.2504         22.2504
  23831840.8754   -2552037.19549  -1983969.21246                  23831838.9844
        43.5004         25.5004
  23799456.3364     123013.65649     90559.60146                  23799456.4224
        42.2504         24.7504
  21134285.6954   -3107933.93049  -2403615.26447                  21134283.2274
        50.7504         39.0004
  21016542.4614   -2387914.72349  -1847339.34447                  21016539.3364
        50.5004         38.7504
  23499802.3054   -3803707.44149  -2949662.02447                  23499800.3204
        43.7504         28.7504
  21574338.1884   -2246205.55549  -1736912.35347                  21574337.4224
        46.2504         34.0004
  22303448.4844   -1384691.54349  -1072842.83747                  22303447.3134
        46.0004         30.7504
  23749410.2664    1015984.87949    780140.69746                  23749410.3524
        42.0004         22.5004
 04  6 30 14 36 39.9990000  0 11G 6G10G15G16G17G18G21G22G26G29G30
  20150307.4804   -1094400.02749   -848899.17848                  20150305.8624
        51.0004         40.7504
  24235708.6124    1128942.49649    869063.80446                  24235708.2534
        41.0004         19.7504
  24041549.0034   -3287767.81249  -2549953.28446                  24041548.4804
        41.2504         22.5004
  23825430.2534   -2585724.75049  -2010219.28346                  23825427.8314
        42.5004         23.5004
  23799709.1444     124340.34849     91593.34846                  23799708.7104
        42.5004         25.2504
  21126695.6674   -3147817.94549  -2434693.71447                  21126693.3784
        51.0004         38.5004
  21010554.2924   -2419383.61349  -1871860.57247                  21010551.0464
        51.2504         38.5004
  23489921.4404   -3855632.13749  -2990122.81047                  23489918.7184
        44.0004         28.5004
  21569088.4404   -2273793.99249  -1758409.82847                  21569087.6124
        46.7504         33.5004
  22300305.5264   -1401207.51649  -1085712.43147                  22300304.5584
        46.7504         31.5004
  23751831.8004    1028710.04349    790056.40146                  23751831.6794
        42.5004         23.5004
 04  6 30 14 36 49.9990000  0 11G 6G10G15G16G17G18G21G22G26G29G30
  20147877.6284   -1107168.90649   -858848.96648                  20147876.2534
        51.0004         41.0004
  24238532.6364    1143780.04749    880625.45646                  24238531.4134
        41.0004         21.2504
  24032991.1444   -3332741.03549  -2584997.34446                  24032990.1404
        42.0004         22.5004
  23819028.3554   -2619367.65249  -2036434.51546                  23819025.6164
        42.5004         24.0004
  23799961.5974     125666.57449     92626.71946                  23799961.0464
        42.7504         23.7504
  21119112.5034   -3187668.56649  -2465746.13347                  21119110.1204
        49.7504         38.5004
  21004566.9404   -2450847.10249  -1896377.56547                  21004563.9524
        50.2504         38.0004
  23480043.4334   -3907544.49249  -3030574.00647                  23480040.4014
        43.2504         28.0004
  21563849.7064   -2301322.68449  -1779860.75847                  21563848.7724
        47.2504         33.5004
  22297172.7694   -1417670.77049  -1098540.95247                  22297171.7614
        46.0004         31.2504
  23754251.7454    1041426.92649    799965.61646                  23754251.2924
        43.0004         24.7504
 04  6 30 14 36 59.9990000  0 11G 6G10G15G16G17G18G21G22G26G29G30
  20145456.6514   -1119891.69149   -868762.81948                  20145454.9804
        51.2504         41.2504
  24241355.0974    1158611.41849    892182.36346                  24241354.7104
        40.0004         21.7504
  24024431.4334   -3377719.32049  -2620045.32146                  24024431.4014
        41.0004         22.5004
  23812635.3864   -2652963.58649  -2062613.18146                  23812632.9644
        43.0004         23.0004
  23800213.4334     126991.05149     93658.78046                  23800212.8194
        42.7504         23.0004
  21111536.3784   -3227482.91449  -2496770.29647                  21111533.7264
        50.0004         38.7504
  20998580.9954   -2482303.02349  -1920888.67347                  20998577.8784
        50.7504         38.0004
  23470167.4094   -3959440.41049  -3071012.38747                  23470164.1014
        43.0004         26.2504
  21558623.1054   -2328789.88349  -1801263.76247                  21558621.6204
        46.5004         33.0004
  22294050.1124   -1434080.65649  -1111327.87547                  22294049.0034
        46.2504         32.0004
  23756669.8314    1054133.13749    809866.54346                  23756669.3154
        42.5004         24.0004
 04  6 30 14 37  9.9990000  0 11G 6G10G15G16G17G18G21G22G26G29G30
  20143044.2764   -1132568.62149   -878640.94948                  20143042.3944
        51.0004         41.5004
  24244175.2844    1173436.32049    903734.23046                  24244175.4564
        40.7504         22.0004
  24015871.7844   -3422702.91449  -2655097.51146                  24015870.9054
        41.2504         22.0004
  23806250.8474   -2686512.82049  -2088755.44446                  23806248.7804
        43.5004         24.0004
  23800465.2064     128313.59449     94689.32946                  23800464.9174
        42.5004         22.5004
  21103966.5264   -3267261.29349  -2527766.41947                  21103964.1944
        50.5004         38.5004
  20992596.3784   -2513751.55149  -1945394.01447                  20992593.0814
        50.7504         38.2504
  23460294.7144   -4011320.04749  -3111438.06746                  23460291.6244
        42.5004         25.2504
  21553408.0734   -2356195.66049  -1822618.90647                  21553406.8004
        47.5004         32.5004
  22290937.2064   -1450437.40249  -1124073.36947                  22290936.7724
        46.0004         31.0004
  23759086.0264    1066828.31349    819758.88946                  23759085.0424
        43.5004         22.0004
 04  6 30 14 37 19.9990000  0 11G 6G10G15G16G17G18G21G22G26G29G30
  20140640.6984   -1145200.12549   -888483.69848                  20140638.7694
        51.0004         41.0004
  24246996.0814    1188254.25049    915280.61446                  24246995.6674
        41.0004         21.2504
  24007310.6204   -3467692.19949  -2690154.12046                  24007309.3664
        41.7504         21.2504
  23799875.3554   -2720015.62549  -2114861.55546                  23799873.0154
        43.0004         22.5004
  23800716.2454     129633.80149     95718.02246                  23800715.8274
        42.5004         22.7504
  21096403.7764   -3307004.00049  -2558734.79047                  21096401.3314
        50.5004         38.5004
  20986613.6204   -2545193.30149  -1969894.08147                  20986610.0814
        51.0004         38.2504
  23450425.3154   -4063183.75449  -3151851.32647                  23450421.7064
        43.0004         26.0004
  21548204.1124   -2383540.46549  -1843926.57047                  21548202.9484
        47.0004         33.0004
  22287834.9724   -1466741.45349  -1136777.86147                  22287833.9954
        46.5004         31.2504
  23761499.7064    1079511.98049    829642.23646                  23761497.9294
        43.7504         22.7504
 04  6 30 14 37 29.9990000  0 11G 6G10G15G16G17G18G21G22G26G29G30
  20138245.9404   -1157783.54349   -898288.95848                  20138244.2964
        51.0004         41.0004
  24249814.1514    1203067.79349    926823.62446                  24249814.3474
        40.7504         22.0004
  23998748.2764   -3512684.51249  -2725213.06546                  23998748.0854
        42.5004         22.5004
  23793510.1904   -2753469.28149  -2140929.31346                  23793507.0464
        42.7504         23.7504
  23800967.4404     130954.37149     96747.00846                  23800967.3974
        42.2504         22.7504
  21088848.3154   -3346708.30549  -2589673.19147                  21088845.8554
        50.2504         38.5004
  20980631.9174   -2576625.29349  -1994386.54647                  20980628.6714
        50.5004         38.5004
  23440559.2304   -4115028.82449  -3192250.07946                  23440556.0424
        42.0004         25.0004
  21543012.8234   -2410821.52349  -1865184.54047                  21543011.5464
        47.0004         33.5004
  22284742.6904   -1482990.11349  -1149439.14847                  22284741.6834
        46.0004         30.7504
  23763911.5424    1092186.72749    839518.62746                  23763910.6124
        43.5004         22.7504
 04  6 30 14 37 39.9990000  0 11G 6G10G15G16G17G18G21G22G26G29G30
  20135860.7614   -1170319.02049   -908056.87348                  20135858.6014
        50.5004         41.2504
  24252632.3314    1217876.63749    938362.97046                  24252632.5304
        41.0004         22.0004
  23990185.6904   -3557680.05149  -2760274.50246                  23990185.4914
        41.7504         22.2504
  23787152.8004   -2786874.00849  -2166958.96746                  23787150.1904
        42.0004         24.5004
  23801218.4874     132275.14149     97776.13446                  23801219.1984
        42.0004         23.0004
  21081300.1674   -3386374.37149  -2620581.82147                  21081297.5424
        50.5004         39.0004
  20974652.6124   -2608047.78949  -2018871.60047                  20974649.0584
        50.5004         39.0004
  23430697.4014   -4166855.27349  -3232634.32147                  23430694.4914
        42.2504         28.0004
  21537833.9334   -2438038.95349  -1886392.92447                  21537832.7184
        47.0004         33.7504
  22281661.4724   -1499183.53549  -1162057.41747                  22281660.4604
        46.0004         31.0004
  23766321.9334    1104852.16849    849387.79046                  23766320.4764
        42.7504         24.2504
 04  6 30 14 37 49.9990000  0 11G 6G10G15G16G17G18G21G22G26G29G30
  20133483.9564   -1182808.27049   -917788.74948                  20133482.0344
        51.0004         40.5004
  24255449.4874    1232679.07449    949897.33646                  24255449.0894
        41.5004         22.5004
  23981622.9564   -3602680.47349  -2795339.73446                  23981621.9254
        41.0004         21.2504
  23780805.3784   -2820231.46949  -2192951.75346                  23780802.9094
        42.7504         22.7504
  23801470.3154     133594.25449     98803.97946                  23801470.2144
        42.5004         23.0004
  21073758.7374   -3426003.94549  -2651462.01147                  21073756.5694
        50.5004         38.5004
  20968674.1904   -2639462.52349  -2043350.62747                  20968671.0734
        51.0004         38.2504
  23420838.5974   -4218664.84849  -3273005.44446                  23420835.7374
        44.0004         25.5004
  21532666.2534   -2465194.41849  -1907553.03147                  21532665.2264
        47.7504         34.0004
  22278590.0894   -1515323.52049  -1174634.02847                  22278588.9294
        46.5004         31.5004
  23768729.7144    1117506.57849    859248.35346                  23768728.8274
        43.0004         23.5004
 04  6 30 14 37 59.9990000  0 11G 6G10G15G16G17G18G21G22G26G29G30
  20131116.4874   -1195250.04749   -927483.63548                  20131114.3664
        51.5004         40.0004
  24258264.7304    1247476.23449    961427.56346                  24258264.9914
        41.0004         21.5004
  23973058.9874   -3647684.52749  -2830407.81546                  23973057.9644
        41.0004         21.0004
  23774466.9334   -2853540.35249  -2218906.79446                  23774464.6014
        43.5004         22.5004
  23801721.2534     134913.12549     99831.65546                  23801721.6904
        42.0004         22.5004
  21066224.9644   -3465595.72749  -2682312.73347                  21066222.4444
        50.0004         38.2504
  20962698.0734   -2670868.27749  -2067822.64447                  20962695.0654
        50.5004         38.2504
  23410982.9334   -4270456.14549  -3313362.27747                  23410979.5814
        43.5004         26.5004
  21527510.4404   -2492286.73049  -1928663.90047                  21527509.8234
        47.5004         33.2504
  22275529.1054   -1531408.82449  -1187168.03847                  22275528.0734
        47.0004         30.7504
  23771135.4404    1130151.03549    869101.15346                  23771135.0304
        42.5004         22.7504
 04  6 30 14 38  9.9990000  0 11G 6G10G15G16G17G18G21G22G26G29G30
  20128758.3154   -1207642.69949   -937140.25948                  20128756.2534
        51.0004         40.5004
  24261080.0424    1262269.70349    972954.85646                  24261079.6084
        41.5004         21.5004
  23964494.3784   -3692690.57849  -2865477.39346                  23964493.4564
        41.0004         21.7504
  23768137.4404   -2886798.89849  -2244822.54046                  23768135.3824
        43.0004         23.0004
  23801972.5584     136233.41049    100860.42646                  23801972.6164
        42.5004         22.7504
  21058698.2144   -3505147.95749  -2713132.65747                  21058695.4014
        50.5004         38.0004
  20956723.8474   -2702263.35949  -2092286.33647                  20956720.6244
        51.2504         38.0004
  23401130.9804   -4322227.59049  -3353703.66046                  23401127.4134
        42.0004         24.5004
  21522367.8234   -2519313.91849  -1949724.05347                  21522366.6904
        47.7504         33.2504
  22272479.2304   -1547437.75849  -1199658.13147                  22272477.7184
        47.0004         31.0004
  23773540.2694    1142787.16049    878947.49846                  23773539.8904
        41.7504         22.5004
 04  6 30 14 38 19.9990000  0 11G 6G10G15G16G17G18G21G22G26G29G30
  20126408.7144   -1219988.89149   -946760.67848                  20126406.5224
        51.2504         40.7504
  24263894.2694    1277056.67649    984477.21446                  24263893.2534
        41.7504         22.0004
  23955929.4254   -3737701.43749  -2900550.84146                  23955927.7414
        41.0004         21.0004
  23761817.6754   -2920009.91049  -2270701.23246                  23761815.6984
        42.7504         22.5004
  23802223.3624     137552.32449    101888.14046                  23802223.4954
        42.2504         22.7504
  21051178.5974   -3544663.50049  -2743923.98247                  21051175.8584
        51.0004         38.5004
  20950751.1284   -2733650.53549  -2116743.87647                  20950748.0654
        50.0004         38.7504
  23391282.8554   -4373981.78149  -3394031.57747                  23391278.6754
        41.5004         26.0004
  21517236.3154   -2546278.82849  -1970735.66047                  21517235.5464
        48.0004         33.2504
  22269439.1054   -1563412.96949  -1212106.33347                  22269438.0224
        46.5004         31.5004
  23775943.0344    1155412.10949    888785.04346                  23775942.4954
        42.5004         22.7504
 04  6 30 14 38 29.9990000  0 11G 6G10G15G16G17G18G21G22G26G29G30
  20124068.8864   -1232284.32849   -956341.55048                  20124067.2414
        51.5004         40.7504
  24266707.5264    1291841.37949    995997.70046                  24266706.6364
        41.5004         21.0004
  23947363.8704   -3782712.74649  -2935624.55146                  23947362.1944
        41.2504         20.5004
  23755508.4254   -2953169.01249  -2296539.50646                  23755505.4914
        43.0004         23.5004
  23802475.0584     138874.13749    102918.06846                  23802475.4954
        41.2504         24.2504
  21043667.1674   -3584137.91849  -2774683.27647                  21043664.4954
        51.0004         38.5004
  20944780.9644   -2765025.45749  -2141191.87647                  20944777.3434
        50.0004         38.0004
  23381438.5034   -4425714.36749  -3434342.68747                  23381434.7534
        43.0004         27.5004
  21512117.7614   -2573177.09849  -1991695.36947                  21512117.0224
        47.5004         34.0004
  22266410.1124   -1579330.21949  -1224509.38147                  22266409.3394
        46.0004         31.5004
  23778343.3314    1168030.07849    898617.20746                  23778343.2724
        42.5004         22.5004
 04  6 30 14 38 39.9990000  0 11G 6G10G15G16G17G18G21G22G26G29G30
  20121738.1204   -1244533.54749   -965886.39448                  20121736.1164
        50.7504         40.5004
  24269519.6124    1306619.34449   1007513.02146                  24269518.2694
        40.7504         21.7504
  23938797.3234   -3827729.03549  -2970702.18946                  23938796.0504
        41.0004         21.7504
  23749206.8474   -2986280.66849  -2322340.80846                  23749204.6124
        43.0004         25.0004
  23802725.7614     140194.54349    103946.92246                  23802726.2184
        41.5004         21.5004
  21036162.3234   -3623575.63349  -2805413.95447                  21036159.3624
        51.0004         39.0004
  20938811.9724   -2796392.60949  -2165633.80747                  20938808.5114
        51.0004         39.0004
  23371597.0034   -4477429.77349  -3474640.39747                  23371594.3004
        43.0004         28.5004
  21507011.1834   -2600013.15249  -2012606.57547                  21507010.0694
        47.0004         33.2504
  22263391.5034   -1595194.03549  -1236870.82747                  22263390.1984
        45.7504         31.7504
  23780742.8084    1180636.44949    908440.35746                  23780742.2304
        41.7504         22.7504
 04  6 30 14 38 49.9990000  0 11G 6G10G15G16G17G18G21G22G26G29G30
  20119416.1754   -1256735.72349   -975394.59648                  20119414.3314
        50.5004         40.7504
  24272330.9254    1321391.13749   1019023.49546                  24272329.4444
        41.0004         21.2504
  23930230.2144   -3872749.51649  -3005783.07846                  23930229.0814
        42.5004         22.5004
  23742915.1444   -3019344.03949  -2348104.46946                  23742912.9294
        42.0004         24.0004
  23802977.1754     141514.17649    104975.17246                  23802977.2064
        41.2504         22.0004
  21028664.6904   -3662975.84049  -2836115.41247                  21028661.9054
        50.5004         39.0004
  20932844.5894   -2827751.12149  -2190069.01847                  20932841.2454
        50.5004         38.5004
  23361759.9804   -4529127.14149  -3514924.06147                  23361757.0384
        42.5004         28.2504
  21501915.9404   -2626786.14849  -2033468.65547                  21501915.2724
        47.7504         33.5004
  22260383.0654   -1611003.60249  -1249189.96947                  22260381.7694
        45.5004         32.2504
  23783139.3944    1193231.91849    918254.96846                  23783139.3974
        42.2504         22.0004
 04  6 30 14 38 59.9990000  0 11G 6G10G15G16G17G18G21G22G26G29G30
  20117103.4334   -1268889.80949   -984865.31948                  20117101.4644
        50.5004         40.0004
  24275140.9404    1336157.88749   1030529.99846                  24275139.7844
        41.5004         22.7504
  23921662.7144   -3917773.03949  -3040866.38946                  23921661.2694
        41.7504         22.0004
  23736633.1514   -3052358.00849  -2373829.65446                  23736630.2884
        41.7504         22.7504
  23803227.8314     142834.27049    106003.83246                  23803228.1634
        40.5004         21.5004
  21021174.5264   -3702337.49249  -2866786.82147                  21021171.8044
        50.5004         38.7504
  20926878.9014   -2859099.98049  -2214496.70747                  20926875.5344
        50.5004         38.0004
  23351925.8944   -4580805.30149  -3555192.75047                  23351922.5694
        42.2504         28.0004
  21496833.6674   -2653494.92649  -2054280.69047                  21496832.4564
        47.5004         33.5004
  22257384.9404   -1626757.77349  -1261465.94847                  22257384.1284
        46.5004         32.0004
  23785534.5654    1205817.57449    928061.95046                  23785534.6364
        43.2504         22.0004
 04  6 30 14 39  9.9990000  0 11G 6G10G15G16G17G18G21G22G26G29G30
  20114799.7534   -1280993.84449   -994297.02448                  20114797.9014
        50.2504         40.5004
  24277950.2304    1350921.20349   1042033.90146                  24277949.5424
        41.0004         22.0004
  23913094.9334   -3962797.86749  -3075950.61146                  23913094.0734
        41.2504         22.2504
  23730360.4874   -3085320.71149  -2399514.88046                  23730357.8664
        43.0004         22.7504
  23803480.4484     144156.52349    107034.10246                  23803480.3434
        40.5004         21.5004
  21013691.7764   -3741658.72749  -2897426.73247                  21013689.1594
        50.7504         38.7504
  20920915.5264   -2890437.40649  -2238915.47847                  20920912.3314
        50.2504         38.2504
  23342095.7064   -4632462.49649  -3595445.11247                  23342092.5774
        42.7504         27.7504
  21491763.9334   -2680137.54349  -2075041.17047                  21491762.7574
        47.7504         33.5004
  22254397.8394   -1642454.91849  -1273697.49047                  22254396.7064
        46.2504         31.7504
  23787927.8944    1218394.98849    937862.52246                  23787927.9604
        43.2504         22.5004
 04  6 30 14 39 19.9990000  0 11G 6G10G15G16G17G18G21G22G26G29G30
  20112505.7064   -1293049.50849  -1003691.04648                  20112504.2694
        50.2504         40.0004
  24280758.4804    1365679.58249   1053533.87946                  24280758.1054
        41.5004         23.2504
  23904526.6284   -4007825.53549  -3111037.05546                  23904525.2534
        41.2504         21.5004
  23724096.9174   -3118233.71149  -2425161.35446                  23724095.0034
        42.5004         23.0004
  23803732.0344     145479.37149    108064.88046                  23803732.1514
        40.5004         21.2504
  21006216.6754   -3780941.07449  -2928036.36847                  21006213.9644
        51.0004         37.7504
  20914954.3944   -2921764.89549  -2263326.49647                  20914951.0854
        49.2504         37.5004
  23332268.9644   -4684100.14149  -3635682.22247                  23332265.8624
        40.5004         26.2504
  21486705.9404   -2706715.70749  -2095751.43447                  21486704.8154
        48.0004         33.5004
  22251421.6984   -1658096.39549  -1285885.65547                  22251420.6594
        45.7504         30.7504
  23790319.5734    1230962.56649    947655.41046                  23790319.1904
        43.0004         22.5004
 04  6 30 14 39 29.9990000  0 11G 6G10G15G16G17G18G21G22G26G29G30
  20110220.5654   -1305058.37549  -1013048.62348                  20110218.8194
        49.5004         40.7504
  24283566.1904    1380431.17249   1065028.62946                  24283564.8394
        41.0004         22.5004
  23895956.8864   -4052857.76249  -3146127.14646                  23895955.9484
        41.0004         21.5004
  23717843.2694   -3151098.62949  -2450770.40146                  23717841.3704
        42.7504         24.0004
  23803983.1124     146801.12549    109094.81346                  23803982.8434
        40.7504         22.0004
  20998748.3704   -3820186.34049  -2958617.09647                  20998745.6514
        50.5004         38.7504
  20908994.1364   -2953084.14549  -2287731.13047                  20908990.5734
        49.5004         38.5004
  23322446.1054   -4735720.00449  -3675905.49347                  23322442.5894
        41.5004         26.2504
  21481660.5654   -2733230.91849  -2116412.63447                  21481659.5114
        47.7504         33.5004
  22248455.5034   -1673684.04749  -1298031.90047                  22248454.4914
        45.7504         32.0004
  23792708.7614    1243518.44949    957439.18546                  23792708.2694
        43.5004         24.2504
 04  6 30 14 39 39.9990000  0 11G 6G10G15G16G17G18G21G22G26G29G30
  20107944.8154   -1317018.36349  -1022368.09548                  20107942.4724
        49.7504         39.5004
  24286372.4564    1395178.11749   1076519.73746                  24286371.2964
        42.0004         24.2504
  23887386.8704   -4097892.29349  -3181218.97246                  23887386.3584
        40.7504         22.0004
  23711599.1444   -3183913.21149  -2476340.19747                  23711596.6554
        43.7504         26.0004
  23804235.1594     148124.11749    110125.61246                  23804234.8624
        39.5004         21.7504
  20991288.2144   -3859392.10949  -2989167.03147                  20991285.2414
        50.5004         38.5004
  20903036.7064   -2984392.89149  -2312127.54247                  20903032.7574
        50.0004         38.0004
  23312626.9174   -4787319.69149  -3716113.01247                  23312623.9254
        40.5004         25.7504
  21476627.3234   -2759680.91849  -2137023.01547                  21476626.2964
        47.5004         33.5004
  22245499.8784   -1689215.55149  -1310134.37947                  22245498.6444
        46.2504         31.7504
  23795096.2144    1256064.84849    967215.56046                  23795095.7024
        42.5004         22.5004
 04  6 30 14 39 49.9990000  0 11G 6G10G15G16G17G18G21G22G26G29G30
  20105677.9804   -1328930.36749  -1031650.19548                  20105676.2574
        48.0004         40.2504
  24289177.2924    1409919.40649   1088006.38946                  24289176.5344
        43.0004         24.2504
  23878816.1904   -4142930.03949  -3216313.35046                  23878816.5814
        40.2504         20.7504
  23705363.9874   -3216678.34049  -2501871.47146                  23705361.5384
        43.2504         25.2504
  23804486.7224     149447.43049    111156.73646                  23804486.4954
        37.5004         20.7504
  20983834.5264   -3898559.34849  -3019686.95547                  20983832.3904
        50.5004         39.2504
  20897080.3704   -3015692.04749  -2336516.51147                  20897076.7494
        48.7504         39.0004
  23302811.4404   -4838900.10249  -3756305.53047                  23302808.5774
        40.2504         26.2504
  21471606.1054   -2786066.57049  -2157583.27447                  21471605.0424
        48.5004         34.5004
  22242554.8704   -1704691.85549  -1322193.84647                  22242553.6944
        46.0004         32.5004
  23797482.0504    1268600.65649    976983.67346                  23797481.3864
        42.7504         22.5004
 04  6 30 14 39 59.9990000  0 11G 6G10G15G16G17G18G21G22G26G29G30
  20103420.4014   -1340793.53949  -1040894.23048                  20103418.7804
        49.7504         39.7504
  24291981.4334    1424655.80149   1099489.28746                  24291980.7024
        42.0004         22.7504
  23870245.9174   -4187970.26649  -3251409.57346                  23870244.9214
        40.2504         20.5004
  23699138.0194   -3249393.32849  -2527363.68947                  23699136.2264
        42.5004         26.0004
  23804738.9954     150771.67649    112188.61446                  23804739.2654
        37.0004         19.5004
  20976388.8474   -3937687.32049  -3050176.28647                  20976386.3554
        50.7504         38.5004
  20891126.3314   -3046980.94949  -2360897.47747                  20891123.0584
        50.5004         38.0004
  23293000.0194   -4890460.41449  -3796482.38347                  23292997.3434
        42.2504         27.7504
  21466597.8624   -2812387.11349  -2178092.77747                  21466596.7574
        47.5004         33.5004
  22239620.2454   -1720112.29749  -1334209.78747                  22239619.1874
        46.0004         32.2504
  23799865.8084    1281126.58649    986744.13446                  23799865.0934
        42.2504         22.0004
 04  6 30 14 40  9.9990000  0 11G 6G10G15G16G17G18G21G22G26G29G30
  20101172.2454   -1352607.57049  -1050099.96748                  20101170.4174
        49.0004         39.7504
  24294785.1124    1439387.54749   1110968.58746                  24294783.9994
        41.5004         22.0004
  23861674.2614   -4233012.66449  -3286507.51046                  23861673.7694
        39.7504         21.2504
  23692922.5734   -3282057.71949  -2552816.42746                  23692920.0034
        42.7504         25.5004
  23804991.6834     152097.37149    113221.55546                  23804991.4334
        37.7504         20.5004
  20968950.8004   -3976775.51249  -3080634.61447                  20968947.9994
        50.5004         38.2504
  20885174.4334   -3078259.18049  -2385270.10647                  20885171.0854
        49.0004         38.0004
  23283191.9804   -4942000.27049  -3836643.27647                  23283189.4804
        41.2504         28.2504
  21461601.5264   -2838642.11349  -2198551.21447                  21461600.5894
        47.5004         34.5004
  22236696.7454   -1735476.40249  -1346181.80547                  22236695.3194
        46.5004         31.2504
  23802247.7924    1293642.91849    996497.13446                  23802246.4404
        42.5004         22.2504
 04  6 30 14 40 19.9990000  0 11G 6G10G15G16G17G18G21G22G26G29G30
  20098933.3624   -1364372.89549  -1059267.75348                  20098931.6554
        46.2504         40.5004
  24297587.2064    1454114.03149   1122443.77846                  24297586.2724
        41.0004         22.5004
  23853102.4334   -4278057.73849  -3321607.58446                  23853102.2924
        40.0004         21.2504
  23686715.9724   -3314672.01649  -2578230.18846                  23686713.8274
        42.5004         25.2504
  23805243.0034     153423.95749    114255.24446                  23805243.3664
        37.5004         19.2504
  20961519.9014   -4015824.53549  -3111062.42747                  20961517.2264
        50.5004         38.2504
  20879223.8704   -3109527.23049  -2409634.82647                  20879220.6554
        46.2504         37.7504
  23273388.4954   -4993520.10549  -3876788.60947                  23273384.9764
        41.0004         26.5004
  21456617.6834   -2864832.11749  -2218959.03447                  21456616.9524
        47.7504         34.2504
  22233783.5584   -1750784.87949  -1358110.51247                  22233782.6164
        46.2504         32.0004
  23804627.4564    1306148.94149   1006242.05046                  23804626.8554
        41.7504         22.7504
 04  6 30 14 40 29.9990000  0 11G 6G10G15G16G17G18G21G22G26G29G30
  20096703.8394   -1376088.96149  -1068397.16948                  20096702.3974
        48.7504         40.7504
  24300388.4804    1468835.87549   1133915.28546                  24300387.1634
        40.0004         22.5004
  23844530.2224   -4323104.75449  -3356709.12646                  23844529.5694
        39.2504         21.5004
  23680519.8234   -3347235.50049  -2603604.33147                  23680517.7264
        42.5004         26.2504
  23805496.4014     154752.15649    115290.26846                  23805496.0544
        37.0004         19.2504
  20954096.8004   -4054833.61349  -3141459.08747                  20954094.1874
        50.7504         38.2504
  20873276.2924   -3140784.37949  -2433991.05147                  20873272.7454
        48.2504         38.2504
  23263588.4014   -5045019.10549  -3916917.64847                  23263585.3044
        40.2504         26.7504
  21451646.2534   -2890956.22749  -2239315.45247                  21451645.5694
        47.7504         32.5004
  22230881.4804   -1766036.77349  -1369995.10347                  22230880.0854
        47.0004         32.5004
  23807005.2454    1318645.31649   1015979.48946                  23807004.8314
        42.0004         22.7504
 04  6 30 14 40 39.9990000  0 11G 6G10G15G16G17G18G21G22G26G29G30
  20094483.8944   -1387756.36349  -1077488.67448                  20094482.1084
        47.7504         40.7504
  24303188.6514    1483552.28149   1145382.60846                  24303188.1324
        38.7504         21.2504
  23835957.5734   -4368154.50049  -3391812.83146                  23835956.8944
        40.0004         20.7504
  23674332.2924   -3379748.86349  -2628939.39947                  23674330.2224
        42.7504         26.0004
  23805749.9254     156081.23049    116325.81346                  23805748.9444
        37.7504         20.0004
  20946680.8084   -4093803.45349  -3171825.21147                  20946678.2414
        51.0004         39.0004
  20867330.2304   -3172031.33649  -2458339.33347                  20867326.5264
        47.5004         38.5004
  23253792.0264   -5096497.99249  -3957031.10747                  23253788.9954
        40.0004         26.7504
  21446687.4334   -2917015.21149  -2259621.17147                  21446687.0194
        47.7504         34.0004
  22227989.2764   -1781233.02049  -1381836.35447                  22227988.2494
        46.5004         32.5004
  23809381.4644    1331131.14849   1025708.61446                  23809380.8194
        42.0004         22.5004
 04  6 30 14 40 49.9990000  0 11G 6G10G15G16G17G18G21G22G26G29G30
  20092272.7304   -1399374.71149  -1086541.92548                  20092271.2304
        49.2504         41.0004
  24305988.9094    1498263.65249   1156845.97646                  24305987.7104
        38.2504         20.5004
  23827384.2764   -4413206.46949  -3426918.23946                  23827383.4294
        40.0004         20.5004
  23668155.1054   -3412211.56249  -2654235.02046                  23668152.4014
        44.0004         25.2504
  23806002.1984     157411.71949    117362.50146                  23806001.9054
        37.5004         19.5004
  20939272.8004   -4132733.59449  -3202160.38547                  20939270.5344
        50.5004         38.7504
  20861386.1674   -3203267.66849  -2482679.33147                  20861382.9094
        48.7504         38.0004
  23244000.2844   -5147956.25449  -3997128.40947                  23243997.0224
        39.7504         27.0004
  21441741.0504   -2943008.56249  -2279875.72447                  21441740.4334
        48.0004         34.5004
  22225108.5194   -1796373.11349  -1393633.82747                  22225107.3084
        46.2504         32.5004
  23811754.6754    1343606.83649   1035429.87846                  23811754.8004
        42.5004         22.2504
 04  6 30 14 40 59.9990000  0 11G 6G10G15G16G17G18G21G22G26G29G30
  20090071.2374   -1410943.21549  -1095556.35448                  20090069.7844
        49.5004         40.7504
  24308786.9644    1512970.80949   1168306.02346                  24308786.4684
        37.0004         19.7504
  23818811.2224   -4458259.80949  -3462024.71246                  23818810.1204
        40.2504         21.7504
  23661987.5194   -3444622.76649  -2679490.51847                  23661985.1284
        42.5004         26.7504
  23806256.2614     158744.24249    118400.82746                  23806255.5074
        36.2504         20.0004
  20931872.1904   -4171623.27349  -3232464.03347                  20931869.5384
        51.0004         39.2504
  20855443.9254   -3234492.54349  -2507010.40347                  20855440.7104
        50.0004         38.5004
  23234211.9804   -5199393.00049  -4037209.01547                  23234209.3704
        40.0004         27.7504
  21436807.4174   -2968935.33249  -2300078.41247                  21436806.5624
        47.5004         34.5004
  22222237.9174   -1811456.19949  -1405386.89847                  22222237.2884
        46.5004         33.0004
  23814127.3004    1356073.20349   1045143.95346                  23814126.9874
        42.7504         22.0004
 04  6 30 14 41  9.9990000  0 11G 6G10G15G16G17G18G21G22G26G29G30
  20087879.4404   -1422462.71549  -1104532.58548                  20087877.9724
        48.0004         40.5004
  24311584.5424    1527672.65649   1179762.02746                  24311584.2654
        37.5004         20.0004
  23810236.9874   -4503315.62149  -3497133.16946                  23810236.2334
        39.7504         20.0004
  23655829.5974   -3476983.45749  -2704706.64346                  23655827.1164
        42.5004         24.5004
  23806509.0814     160078.11348    119440.23446                  23806509.5034
        35.5004         19.0004
  20924479.5034   -4210473.40649  -3262736.86047                  20924476.8124
        50.5004         39.0004
  20849504.2374   -3265706.94949  -2531333.31847                  20849500.9954
        49.0004         38.7504
  23224427.9724   -5250809.15249  -4077273.51847                  23224424.8004
        40.7504         27.2504
  21431885.9724   -2994796.56249  -2320229.99747                  21431885.3824
        47.7504         34.2504
  22219378.6674   -1826483.27749  -1417096.31447                  22219377.6444
        46.2504         31.5004
  23816497.5654    1368529.10549   1054849.83546                  23816497.4484
        43.0004         22.5004
 04  6 30 14 41 19.9990000  0 11G 6G10G15G16G17G18G21G22G26G29G30
  20085696.4874   -1433933.10549  -1113470.55648                  20085695.1364
        49.5004         40.7504
  24314381.7614    1542369.26649   1191213.92546                  24314380.9174
        38.2504         20.0004
  23801663.2064   -4548373.57049  -3532243.25046                  23801661.7534
        41.5004         21.5004
  23649681.6904   -3509293.35549  -2729883.18947                  23649679.1244
        43.0004         27.0004
  23806763.7144     161413.36349    120480.56246                  23806763.6874
        37.7504         18.2504
  20917094.0654   -4249283.66849  -3292978.62047                  20917091.4644
        51.0004         38.2504
  20843566.0344   -3296910.58249  -2555647.84247                  20843563.1084
        49.0004         38.7504
  23214647.4404   -5302204.43749  -4117321.76947                  23214644.5974
        40.7504         26.5004
  21426977.8394   -3020591.83249  -2340330.21947                  21426976.6084
        48.0004         33.5004
  22216529.7924   -1841454.09049  -1428761.88247                  22216529.1514
        46.7504         31.5004
  23818865.7844    1380974.66449   1064547.64346                  23818865.2264
        43.5004         22.2504
 04  6 30 14 41 29.9990000  0 11G 6G10G15G16G17G18G21G22G26G29G30
  20083523.1754   -1445353.95749  -1122369.92648                  20083521.8354
        49.0004         40.2504
  24317177.4484    1557060.93849   1202661.91946                  24317176.8624
        38.7504         20.7504
  23793088.7694   -4593433.39549  -3567354.78346                  23793087.1874
        40.5004         21.5004
  23643542.6284   -3541552.12149  -2755019.88446                  23643540.4834
        43.5004         24.7504
  23807017.5894     162750.33248    121522.36646                  23807018.1164
        35.0004         18.5004
  20909716.3154   -4288053.69149  -3323189.02647                  20909713.9134
        50.5004         38.5004
  20837630.6444   -3328103.10949  -2579953.71447                  20837627.6594
        49.0004         38.0004
  23204871.3704   -5353578.43449  -4157353.46747                  23204868.3274
        40.5004         27.2504
  21422081.5034   -3046320.92649  -2360378.86547                  21422081.0114
        48.0004         33.5004
  22213691.5424   -1856368.39549  -1440383.43247                  22213691.0464
        47.5004         32.2504
  23821232.7144    1393410.07849   1074237.54646                  23821231.6904
        43.5004         22.5004
 04  6 30 14 41 39.9990000  0 11G 6G10G15G16G17G18G21G22G26G29G30
  20081359.3154   -1456725.27049  -1131230.69648                  20081357.6124
        49.0004         40.7504
  24319972.6754    1571747.61749   1214106.07646                  24319971.9684
        38.0004         20.2504
  23784513.9334   -4638494.99649  -3602467.69346                  23784512.2614
        40.7504         21.5004
  23637413.5974   -3573759.57849  -2780116.60647                  23637411.6514
        43.5004         26.2504
  23807273.5654     164089.12149    122565.47146                  23807273.1124
        36.7504         18.2504
  20902346.2224   -4326783.48049  -3353368.08147                  20902343.6474
        50.7504         38.7504
  20831696.8554   -3359284.48049  -2604250.89047                  20831693.5544
        49.0004         38.2504
  23195099.4484   -5404931.03949  -4197368.48347                  23195095.9334
        40.5004         27.0004
  21417198.2924   -3071983.64149  -2380375.79247                  21417196.9014
        47.5004         34.5004
  22210864.7224   -1871226.08249  -1451960.86647                  22210863.4484
        46.7504         34.0004
  23823596.8554    1405835.27349   1083919.46546                  23823596.3784
        43.2504         22.0004
 04  6 30 14 41 49.9990000  0 11G 6G10G15G16G17G18G21G22G26G29G30
  20079205.1364   -1468045.56649  -1140051.70648                  20079203.6754
        49.5004         40.7504
  24322766.2224    1586430.75049   1225547.40546                  24322766.2764
        38.2504         20.7504
  23775939.0114   -4683556.96949  -3637580.88446                  23775937.2924
        41.0004         22.0004
  23631295.0114   -3605914.30549  -2805172.23646                  23631292.6444
        43.0004         24.5004
  23807528.5114     165431.29748    123611.33346                  23807528.4644
        35.7504         19.0004
  20894983.9804   -4365471.40649  -3383514.50047                  20894981.7724
        50.2504         38.7504
  20825765.8004   -3390453.31249  -2628538.27547                  20825762.2694
        49.5004         38.2504
  23185331.6204   -5456260.83649  -4237365.71147                  23185328.5464
        39.5004         27.0004
  21412327.3624   -3097578.47749  -2400319.80847                  21412326.3434
        48.0004         34.0004
  22208048.0814   -1886025.66849  -1463493.00447                  22208047.3664
        46.7504         33.0004
  23825959.6594    1418251.72749   1093594.61746                  23825958.8624
        43.2504         22.2504
 04  6 30 14 41 59.9990000  0 11G 6G10G15G16G17G18G21G22G26G29G30
  20077060.6284   -1479315.69149  -1148833.63248                  20077058.8904
        49.7504         41.5004
  24325560.1124    1601109.44949   1236985.34146                  24325559.2024
        39.0004         20.7504
  23767363.4644   -4728620.04349  -3672694.95246                  23767362.2884
        42.0004         22.2504
  23625185.4334   -3638017.15249  -2830187.45946                  23625183.3514
        42.7504         24.0004
  23807783.4404     166775.85248    124659.05946                  23807784.6834
        35.5004         17.2504
  20887630.0264   -4404118.44949  -3413629.08247                  20887627.2804
        50.5004         39.2504
  20819836.8624   -3421610.42249  -2652816.55647                  20819833.1364
        49.7504         39.2504
  23175567.9094   -5507568.50849  -4277345.68347                  23175565.4174
        39.7504         27.5004
  21407469.4954   -3123106.23049  -2420211.57147                  21407468.2764
        48.0004         34.7504
  22205242.9254   -1900768.08249  -1474980.61547                  22205241.6714
        47.0004         33.5004
  23828320.9724    1430658.40249   1103262.15846                  23828319.7654
        43.5004         22.7504
 04  6 30 14 42  9.9990000  0 11G 6G10G15G16G17G18G21G22G26G29G30
  20074925.3474   -1490536.54749  -1157577.16748                  20074923.7224
        50.2504         41.0004
  24328351.8554    1615782.64549   1248418.98046                  24328351.0694
        38.2504         19.7504
  23758787.8234   -4773685.24249  -3707810.69146                  23758786.3824
        40.5004         23.0004
  23619086.8784   -3670069.01649  -2855162.94046                  23619083.8274
        43.0004         22.7504
  23808040.5584     168121.98049    125707.93146                  23808040.8784
        36.5004         18.2504
  20880283.0424   -4442725.50449  -3443712.50247                  20880280.4684
        50.2504         39.2504
  20813909.5034   -3452756.61749  -2677086.32547                  20813906.3124
        49.7504         39.0004
  23165808.1674   -5558855.02049  -4317309.19747                  23165805.4174
        39.7504         27.5004
  21402624.5894   -3148567.90249  -2440051.82447                  21402623.5894
        47.5004         34.2504
  22202448.5034   -1915454.30549  -1486424.42847                  22202447.5424
        47.0004         33.5004
  23830679.4874    1443054.27349   1112921.23246                  23830678.7804
        43.5004         22.0004
 04  6 30 14 42 19.9990000  0 11G 6G10G15G16G17G18G21G22G26G29G30
  20072799.1514   -1501708.78949  -1166282.80048                  20072797.5304
        50.5004         40.5004
  24331143.1284    1630449.70349   1259847.91546                  24331142.4444
        39.5004         19.2504
  23750211.2534   -4818753.11349  -3742928.42846                  23750210.2104
        40.5004         22.2504
  23612996.6054   -3702070.40249  -2880099.07746                  23612994.5734
        41.7504         22.0004
  23808297.0734     169469.10549    126757.65246                  23808296.6904
        37.2504         17.7504
  20872943.8554   -4481293.05149  -3473765.13447                  20872941.4804
        50.5004         39.0004
  20807984.8474   -3483892.53949  -2701348.07447                  20807981.6984
        50.5004         37.7504
  23156052.9874   -5610120.78549  -4357256.53447                  23156049.7184
        40.7504         27.7504
  21397792.0894   -3173963.96949  -2459840.97447                  21397790.7574
        47.7504         33.2504
  22199663.6754   -1930084.84049  -1497824.83547                  22199662.9804
        46.5004         33.0004
  23833036.0894    1455438.64149   1122571.40146                  23833035.7334
        43.5004         21.0004
 04  6 30 14 42 29.9990000  0 11G 6G10G15G16G17G18G21G22G26G29G30
  20070682.5504   -1512831.58649  -1174949.92848                  20070681.2694
        50.5004         40.5004
  24333932.8784    1645111.33249   1271272.54946                  24333932.3584
        38.7504         18.5004
  23741635.1834   -4863822.98849  -3778047.86146                  23741634.1204
        41.2504         22.7504
  23606916.7764   -3734020.57449  -2904995.33146                  23606914.1324
        41.5004         22.7504
  23808553.2534     170817.91849    127808.65546                  23808553.9174
        36.0004         18.2504
  20865612.4254   -4519820.36749  -3503786.41547                  20865609.8354
        50.7504         38.7504
  20802062.1674   -3515017.47349  -2725601.27047                  20802059.0114
        50.2504         37.7504
  23146301.3944   -5661365.00449  -4397187.09347                  23146298.4484
        42.5004         28.5004
  21392972.2064   -3199293.51249  -2479578.27247                  21392971.0264
        47.5004         33.5004
  22196891.0264   -1944659.00849  -1509181.34047                  22196889.7494
        46.7504         33.0004
  23835390.9174    1467812.23849   1132213.14146                  23835390.4604
        43.0004         21.5004
 04  6 30 14 42 39.9990000  0 11G 6G10G15G16G17G18G21G22G26G29G30
  20068575.5034   -1523904.10949  -1183577.86748                  20068573.6244
        49.5004         40.5004
  24336722.1984    1659768.32049   1282693.56446                  24336721.5894
        38.7504         18.5004
  23733058.5194   -4908893.94949  -3813168.08446                  23733057.1084
        40.0004         23.0004
  23600846.6444   -3765918.61349  -2929850.93846                  23600844.2224
        41.5004         24.5004
  23808810.9094     172169.28948    128861.65246                  23808810.6164
        35.7504         19.0004
  20858288.8624   -4558306.59049  -3533775.65047                  20858286.1164
        50.0004         38.2504
  20796141.4014   -3546130.57849  -2749845.22947                  20796138.4484
        50.2504         38.5004
  23136554.7064   -5712586.82849  -4437100.16947                  23136551.3514
        41.5004         28.5004
  21388164.7764   -3224555.74249  -2499263.10047                  21388163.6754
        47.5004         33.0004
  22194128.7374   -1959175.86749  -1520493.16247                  22194127.5074
        46.2504         32.5004
  23837743.3474    1480175.82449   1141847.07846                  23837743.1794
        42.2504         21.5004
 04  6 30 14 42 49.9990000  0 11G 6G10G15G16G17G18G21G22G26G29G30
  20066478.4874   -1534926.71949  -1192166.92548                  20066476.5734
        50.0004         40.7504
  24339510.1054    1674420.09049   1294110.50346                  24339509.5424
        38.5004         18.2504
  23724481.7374   -4953966.41049  -3848289.44646                  23724480.8274
        40.5004         22.7504
  23594786.8944   -3797764.92249  -2954666.26246                  23594784.0774
        42.7504         22.5004
  23809068.4254     173522.78949    129916.25246                  23809068.3124
        37.2504         19.0004
  20850973.1284   -4596752.09449  -3563733.21547                  20850970.5854
        51.0004         39.0004
  20790222.6834   -3577232.36349  -2774080.39847                  20790219.4094
        50.0004         38.5004
  23126811.1904   -5763786.68449  -4476996.19047                  23126808.8234
        41.0004         28.7504
  21383370.0504   -3249751.11349  -2518895.88347                  21383369.4404
        47.2504         34.0004
  22191376.4484   -1973635.97349  -1531760.79847                  22191375.4644
        47.0004         32.7504
  23840094.0424    1492528.78549   1151472.70246                  23840094.1834
        41.2504         21.5004
 04  6 30 14 42 59.9990000  0 11G 6G10G15G16G17G18G21G22G26G29G30
  20064390.0424   -1545899.81249  -1200717.39848                  20064388.4334
        49.5004         40.5004
  24342297.0034    1689066.34049   1305523.18446                  24342296.6284
        38.5004         17.2504
  23715904.2454   -4999040.68449  -3883412.25546                  23715903.8554
        41.2504         23.0004
  23588736.7924   -3829559.79349  -2979441.47246                  23588734.3274
        42.7504         22.7504
  23809326.9014     174878.23849    130972.36746                  23809326.6754
        37.5004         19.0004
  20843664.9254   -4635157.15649  -3593659.22747                  20843662.0814
        50.2504         39.0004
  20784306.7304   -3608322.75849  -2798306.69347                  20784303.3664
        49.7504         38.2504
  23117072.4874   -5814964.76649  -4516875.19147                  23117070.0544
        42.0004         29.5004
  21378588.3704   -3274879.69549  -2538476.60147                  21378587.4914
        47.0004         34.0004
  22188635.8474   -1988039.48449  -1542984.31547                  22188634.8274
        47.0004         33.0004
  23842442.7454    1504870.71149   1161089.78446                  23842442.4954
        40.5004         20.7504
 04  6 30 14 43  9.9990000  0 11G 6G10G15G16G17G18G21G22G26G29G30
  20062311.5584   -1556823.96949  -1209229.74448                  20062309.3624
        50.2504         40.7504
  24345083.1124    1703706.33249   1316930.93446                  24345082.6404
        38.2504         17.7504
  23707325.9094   -5044117.39849  -3918536.95046                  23707325.6984
        41.0004         23.5004
  23582695.8944   -3861303.84449  -3004177.10347                  23582693.3704
        43.0004         25.7504
  23809584.9014     176234.98449    132029.55146                  23809585.2844
        38.5004         18.2504
  20836364.1674   -4673522.39849  -3623554.22747                  20836361.6944
        50.7504         39.0004
  20778392.2764   -3639402.52049  -2822524.68847                  20778388.7064
        50.5004         38.7504
  23107337.5344   -5866121.69549  -4556737.70947                  23107334.7654
        42.5004         29.5004
  21373818.6444   -3299942.21949  -2558005.85247                  21373818.2144
        46.7504         34.2504
  22185905.2374   -2002387.23849  -1554164.41347                  22185904.4214
        46.0004         33.5004
  23844788.4954    1517200.93449   1170697.73346                  23844789.0114
        40.7504         20.5004
 04  6 30 14 43 19.9990000  0 11G 6G10G15G16G17G18G21G22G26G29G30
  20060241.7924   -1567698.97749  -1217703.76748                  20060240.4054
        50.0004         40.7504
  24347867.4644    1718340.21549   1328333.99046                  24347867.2304
        38.7504         19.7504
  23698747.8554   -5089196.30549  -3953663.31146                  23698747.5074
        41.2504         24.7504
  23576665.2924   -3892996.77349  -3028872.87346                  23576662.0194
        42.5004         24.5004
  23809843.7924     177593.21949    133087.91746                  23809843.7654
        38.7504         20.0004
  20829070.8234   -4711847.62549  -3653418.02747                  20829068.5504
        50.5004         39.0004
  20772479.9804   -3670471.45749  -2846734.24847                  20772476.6244
        50.5004         38.2504
  23097606.5814   -5917257.11749  -4596583.49147                  23097604.3354
        42.7504         30.0004
  21369062.5654   -3324938.32849  -2577483.33247                  21369061.3624
        48.0004         34.5004
  22183185.7064   -2016678.85249  -1565300.72347                  22183184.6324
        47.2504         33.0004
  23847132.9254    1529519.60949   1180296.61346                  23847133.3514
        38.5004         21.2504
 04  6 30 14 43 29.9990000  0 11G 6G10G15G16G17G18G21G22G26G29G30
  20058182.5584   -1578522.94549  -1226138.03048                  20058180.5224
        49.0004         40.5004
  24350651.5424    1732969.93449   1339733.71546                  24350651.3354
        38.5004         19.5004
  23690169.5424   -5134275.53549  -3988789.98946                  23690169.4724
        40.7504         24.5004
  23570643.8474   -3924636.62149  -3053527.31746                  23570640.8664
        43.2504         22.7504
  23810102.2224     178954.96549    134149.05346                  23810102.4874
        38.0004         19.5004
  20821785.9954   -4750130.81249  -3683249.08147                  20821783.1164
        50.5004         39.0004
  20766570.1124   -3701527.63749  -2870933.85747                  20766566.8624
        49.7504         38.5004
  23087880.5654   -5968369.03949  -4636410.94247                  23087878.2144
        42.7504         29.5004
  21364318.9174   -3349866.03549  -2596907.51747                  21364318.0624
        47.5004         34.0004
  22180477.4874   -2030912.43449  -1576391.83047                  22180476.1084
        46.7504         32.7504
  23849475.2454    1541828.55549   1189887.99346                  23849475.3584
        39.0004         20.7504
 04  6 30 14 43 39.9990000  0 11G 6G10G15G16G17G18G21G22G26G29G30
  20056131.9724   -1589296.11749  -1234532.72048                  20056130.7144
        48.7504         40.0004
  24353435.2374    1747595.03149   1351129.90846                  24353434.8234
        39.5004         20.5004
  23681590.8474   -5179355.32449  -4023917.09846                  23681591.1554
        41.5004         23.0004
  23564633.6444   -3956223.68049  -3078140.61546                  23564630.3084
        43.0004         22.5004
  23810362.3624     180319.77049    135212.47246                  23810361.8434
        38.7504         19.2504
  20814508.6984   -4788372.31249  -3713047.64647                  20814506.1794
        51.0004         38.5004
  20760662.9874   -3732571.37149  -2895123.78347                  20760659.3904
        49.2504         38.0004
  23078158.8704   -6019457.75849  -4676220.31847                  23078156.0774
        42.7504         30.0004
  21359588.2764   -3374725.73449  -2616278.71247                  21359587.2804
        47.7504         33.5004
  22177779.9404   -2045088.31249  -1587437.97747                  22177778.6284
        46.5004         33.0004
  23851815.8554    1554127.30549   1199471.33546                  23851815.6474
        38.7504         20.2504
 04  6 30 14 43 49.9990000  0 11G 6G10G15G16G17G18G21G22G26G29G30
  20054091.6834   -1600018.83649  -1242888.08648                  20054089.8004
        49.0004         40.5004
  24356216.7374    1762215.07449   1362522.10746                  24356216.9174
        39.0004         20.0004
  23673012.7534   -5224436.12549  -4059044.97346                  23673012.2144
        41.2504         22.7504
  23558632.3234   -3987758.33649  -3102713.05246                  23558629.8974
        43.0004         25.2504
  23810622.8554     181687.31649    136278.07746                  23810622.0154
        38.2504         19.0004
  20807239.5194   -4826572.42249  -3742813.97247                  20807237.3274
        50.2504         39.0004
  20754757.7144   -3763603.09849  -2919304.35047                  20754754.4564
        48.7504         38.7504
  23068441.4954   -6070523.57849  -4716011.86147                  23068438.3274
        42.0004         29.7504
  21354870.8394   -3399517.62549  -2635597.07647                  21354869.7614
        48.0004         33.7504
  22175093.2064   -2059206.96149  -1598439.52047                  22175091.9804
        46.5004         34.0004
  23854154.4644    1566415.50449   1209046.56946                  23854154.4914
        39.0004         19.5004
 04  6 30 14 43 59.9990000  0 11G 6G10G15G16G17G18G21G22G26G29G30
  20052060.5894   -1610692.45349  -1251205.19148                  20052058.8394
        48.2504         40.0004
  24358997.8084    1776828.69149   1373909.34046                  24358998.1244
        40.0004         20.7504
  23664433.0654   -5269519.18749  -4094174.64046                  23664432.9684
        41.0004         22.0004
  23552641.0734   -4019241.78149  -3127245.61546                  23552638.9994
        43.0004         23.2504
  23810883.0034     183056.30949    137344.70946                  23810881.9014
        39.7504         19.7504
  20799977.7614   -4864732.39849  -3772549.00747                  20799975.3784
        51.0004         39.0004
  20748854.6444   -3794624.08649  -2943476.55147                  20748851.4214
        47.2504         39.0004
  23058728.2144   -6121567.77349  -4755786.55947                  23058724.8474
        42.0004         29.0004
  21350165.3314   -3424243.00049  -2654863.60247                  21350164.4834
        47.2504         33.7504
  22172417.2374   -2073269.56249  -1609397.41647                  22172415.9524
        46.2504         33.0004
  23856490.7694    1578691.57049   1218612.37646                  23856490.1834
        39.7504         21.2504
 04  6 30 14 44  9.9990000  0 11G 6G10G15G16G17G18G21G22G26G29G30
  20050038.6904   -1621316.25449  -1259483.48048                  20050037.0694
        49.2504         40.2504
  24361778.0584    1791436.50049   1385292.04646                  24361777.4874
        39.5004         20.7504
  23655854.2844   -5314603.75049  -4129305.50646                  23655853.8084
        40.7504         22.0004
  23546659.9404   -4050673.35949  -3151737.77146                  23546657.9294
        42.7504         24.0004
  23811144.1514     184427.62149    138413.27446                  23811143.3664
        40.7504         20.0004
  20792724.0654   -4902851.50849  -3802252.21147                  20792721.6244
        50.5004         39.0004
  20742953.7304   -3825633.51249  -2967639.74347                  20742950.7764
        48.7504         38.5004
  23049018.3004   -6172589.48049  -4795543.71447                  23049015.3124
        41.7504         29.0004
  21345472.7764   -3448901.05549  -2674077.68247                  21345471.8784
        48.5004         33.7504
  22169751.8234   -2087275.43749  -1620311.07147                  22169750.7964
        47.2504         33.5004
  23858824.3234    1590956.32449   1228169.24346                  23858823.8784
        40.0004         21.7504
 04  6 30 14 44 19.9990000  0 11G 6G10G15G16G17G18G21G22G26G29G30
  20048026.6124   -1631890.32449  -1267723.04148                  20048024.9994
        50.0004         40.2504
  24364556.5974    1806038.33649   1396670.04846                  24364556.6284
        40.5004         21.2504
  23647274.5504   -5359690.07049  -4164437.69646                  23647273.6324
        41.0004         22.0004
  23540688.5504   -4082053.16449  -3176189.56846                  23540686.6514
        42.7504         23.7504
  23811405.0584     185800.98449    139483.38746                  23811405.1594
        39.7504         20.5004
  20785478.0114   -4940929.94149  -3831923.72248                  20785475.3354
        50.2504         39.5004
  20737054.9094   -3856631.60949  -2991794.11147                  20737051.7224
        50.0004         38.2504
  23039313.2064   -6223588.94149  -4835283.55747                  23039310.4644
        41.7504         29.2504
  21340793.4404   -3473492.05549  -2693239.50647                  21340792.6834
        47.2504         34.2504
  22167097.5194   -2101224.80949  -1631180.73347                  22167096.6794
        45.7504         33.5004
  23861156.4174    1603209.35949   1237717.05246                  23861155.8554
        39.2504         21.5004
 04  6 30 14 44 29.9990000  0 11G 6G10G15G16G17G18G21G22G26G29G30
  20046024.0654   -1642413.89549  -1275923.22148                  20046022.1054
        46.5004         39.5004
  24367333.5974    1820635.06649   1408044.05146                  24367334.4214
        40.0004         21.5004
  23638694.9404   -5404777.12149  -4199570.45946                  23638693.8354
        42.2504         23.5004
  23534727.3704   -4113380.14549  -3200600.22446                  23534724.7264
        43.2504         24.0004
  23811667.2064     187177.37549    140555.92546                  23811668.1944
        40.7504         19.7504
  20778240.0654   -4978966.73849  -3861562.77547                  20778237.4254
        51.0004         39.2504
  20731158.7764   -3887617.30549  -3015938.81547                  20731155.0114
        46.2504         37.7504
  23029612.9404   -6274565.10949  -4875005.20547                  23029610.1014
        41.5004         28.2504
  21336126.9804   -3498014.84049  -2712348.14747                  21336126.1014
        47.7504         33.5004
  22164454.0114   -2115116.73449  -1642005.61947                  22164452.9524
        46.0004         32.5004
  23863486.3624    1615451.72149   1247256.48746                  23863485.9174
        40.5004         21.5004
 04  6 30 14 44 39.9990000  0 11G 6G10G15G16G17G18G21G22G26G29G30
  20044030.6054   -1652889.07449  -1284085.69248                  20044028.8944
        49.7504         40.2504
  24370110.3004    1835224.46149   1419412.40846                  24370110.5344
        39.5004         21.5004
  23630114.5194   -5449867.23049  -4234705.56046                  23630112.9644
        40.7504         22.2504
  23528775.6674   -4144656.55149  -3224971.43046                  23528772.8434
        42.5004         22.7504
  23811929.6284     188554.54749    141628.98146                  23811930.6084
        39.7504         21.7504
  20771009.1754   -5016964.08249  -3891171.09548                  20771006.4914
        50.7504         39.5004
  20725263.9484   -3918592.76249  -3040075.52347                  20725260.8744
        49.7504         37.7504
  23019916.7144   -6325520.07049  -4914710.37747                  23019913.5894
        43.2504         28.7504
  21331473.3554   -3522471.65649  -2731405.41847                  21331472.2654
        47.7504         33.7504
  22161820.7844   -2128953.36349  -1652787.40347                  22161819.7614
        46.7504         32.0004
  23865812.8784    1627680.79749   1256785.66646                  23865813.4014
        39.7504         22.5004
 04  6 30 14 44 49.9990000  0 10G 6G15G16G17G18G21G22G26G29G30
  20042047.1674   -1663312.78949  -1292208.08248                  20042045.3744
        48.2504         39.7504
  23621534.3154   -5494957.32449  -4269840.75546                  23621532.9374
        41.2504         22.5004
  23522833.9644   -4175879.45749  -3249300.99046                  23522831.5504
        42.0004         23.5004
  23812192.8004     189935.52049    142704.99846                  23812193.4334
        41.5004         22.0004
  20763786.7844   -5054918.84449  -3920746.23847                  20763783.8864
        51.0004         39.0004
  20719372.2304   -3949555.08649  -3064202.01047                  20719368.7304
        48.0004         37.5004
  23010225.1754   -6376450.88349  -4954396.70047                  23010222.1674
        42.0004         28.5004
  21326832.3864   -3546859.53949  -2750408.96747                  21326831.1084
        48.5004         34.5004
  22159199.0504   -2142731.77049  -1663523.82747                  22159197.9684
        46.7504         32.5004
  23868138.0974    1639899.69549   1266306.82246                  23868138.8514
        40.0004         22.5004
 04  6 30 14 44 59.9990000  0 10G 6G15G16G17G18G21G22G26G29G30
  20040073.1674   -1673686.52049  -1300291.51848                  20040071.3744
        48.7504         41.0004
  23612953.7144   -5540048.87149  -4304976.98446                  23612952.1754
        41.7504         21.5004
  23516902.1124   -4207050.20749  -3273589.87646                  23516900.1474
        43.5004         24.0004
  23812455.8704     191318.92249    143782.93946                  23812456.0694
        41.2504         21.5004
  20756571.9954   -5092832.58649  -3950289.40748                  20756569.5694
        50.5004         40.0004
  20713482.4404   -3980505.70349  -3088319.37247                  20713478.9834
        48.7504         38.7504
  23000538.1904   -6427358.88749  -4994065.28947                  23000535.0264
        42.0004         28.7504
  21322204.5034   -3571179.75049  -2769359.77247                  21322203.4014
        48.0004         35.0004
  22156587.4404   -2156453.40649  -1674216.01747                  22156586.6204
        46.5004         33.5004
  23870461.0114    1652106.80949   1275818.88346                  23870461.9444
        39.0004         22.5004
 04  6 30 14 45  9.9990000  0 10G 6G15G16G17G18G21G22G26G29G30
  20038108.9484   -1684008.87949  -1308334.91548                  20038107.1054
        48.2504         40.5004
  23604372.6124   -5585140.44949  -4340113.30446                  23604371.6944
        42.0004         22.0004
  23510980.9954   -4238167.31249  -3297837.00546                  23510978.6204
        43.0004         23.7504
  23812719.5424     192706.08649    144863.84846                  23812719.7614
        40.7504         21.5004
  20749365.3864   -5130703.80549  -3979799.43747                  20749362.7184
        50.7504         39.2504
  20707594.9804   -4011443.21549  -3112426.52447                  20707591.9804
        49.0004         38.5004
  22990855.0584   -6478242.63749  -5033714.95347                  22990851.9724
        42.5004         28.5004
  21317589.6284   -3595430.88349  -2788256.75647                  21317588.3944
        47.7504         34.7504
  22153987.3944   -2170116.81249  -1684862.83847                  22153986.9214
        46.2504         33.0004
  23872781.8004    1664303.55949   1285322.79246                  23872782.5504
        39.7504         21.7504
 04  6 30 14 45 19.9990000  0 10G 6G15G16G17G18G21G22G26G29G30
  20036154.3154   -1694280.56649  -1316338.83748                  20036152.7614
        50.0004         41.2504
  23595791.5654   -5630232.73449  -4375250.05646                  23595790.4054
        41.5004         22.2504
  23505069.5264   -4269231.49249  -3322042.86546                  23505067.2764
        41.7504         25.0004
  23812984.3704     194096.42249    145947.20146                  23812984.6364
        41.0004         22.0004
  20742166.8004   -5168533.27049  -4009276.94747                  20742164.3194
        50.7504         39.2504
  20701710.0814   -4042368.28549  -3136523.99047                  20701707.2804
        50.0004         38.7504
  22981176.2614   -6529102.73449  -5073346.17347                  22981173.9954
        42.5004         28.0004
  21312987.6514   -3619613.59449  -2807100.44247                  21312986.5854
        47.2504         34.5004
  22151398.8864   -2183722.73849  -1695464.85847                  22151397.4724
        45.7504         33.5004
  23875100.8154    1676489.07049   1294818.00346                  23875101.2264
        38.2504         21.7504
 04  6 30 14 45 29.9990000  0 10G 6G15G16G17G18G21G22G26G29G30
  20034209.4954   -1704500.41449  -1324302.35948                  20034207.9404
        50.5004         41.0004
  23587211.4564   -5675324.51249  -4410386.50646                  23587210.2064
        42.0004         22.0004
  23499168.5654   -4300241.54349  -3346206.50646                  23499166.4374
        42.5004         24.7504
  23813249.3704     195491.08249    147033.93646                  23813249.3864
        40.7504         22.0004
  20734976.0974   -5206319.59849  -4038720.84347                  20734973.0304
        50.2504         39.0004
  20695828.4094   -4073279.73449  -3160610.83147                  20695824.9214
        50.2504         38.2504
  22971503.0034   -6579937.93749  -5112958.00147                  22971500.3044
        42.5004         29.0004
  21308399.3704   -3643726.71549  -2825889.90147                  21308398.1714
        47.2504         34.0004
  22148820.8004   -2197270.14549  -1706021.28647                  22148819.1404
        47.0004         33.5004
  23877417.8624    1688664.47349   1304305.22146                  23877417.8394
        37.5004         21.2504
 04  6 30 14 45 39.9990000  0 10G 6G15G16G17G18G21G22G26G29G30
  20032274.3234   -1714670.55949  -1332227.15448                  20032272.6444
        50.0004         40.5004
  23578630.5264   -5720417.80149  -4445524.13046                  23578628.9094
        41.2504         22.5004
  23493277.6984   -4331199.37949  -3370329.48846                  23493275.9134
        41.7504         23.5004
  23813515.1834     196888.10249    148122.45046                  23813515.2414
        42.0004         22.0004
  20727793.4334   -5244064.87549  -4068132.72447                  20727790.8624
        50.5004         38.7504
  20689948.2064   -4104179.43449  -3184688.50847                  20689944.8474
        49.5004         38.0004
  22961833.7924   -6630750.18049  -5152551.96347                  22961830.4954
        44.0004         29.7504
  21303823.2614   -3667772.10949  -2844626.56547                  21303822.0154
        47.2504         33.7504
  22146253.3314   -2210760.82049  -1716533.50547                  22146252.1834
        46.5004         32.2504
  23879732.4254    1700827.57049   1313782.98546                  23879733.0304
        38.2504         20.5004
 04  6 30 14 45 49.9990000  0 10G 6G15G16G17G18G21G22G26G29G30
  20030348.7844   -1724788.70349  -1340111.43548                  20030347.1944
        50.2504         40.0004
  23570049.4724   -5765510.60249  -4480661.42846                  23570048.3314
        41.7504         21.7504
  23487396.8704   -4362103.01249  -3394410.24446                  23487395.1444
        43.0004         23.0004
  23813782.9804     198289.56649    149214.49046                  23813782.4054
        41.7504         22.5004
  20720618.7844   -5281766.97349  -4097510.97847                  20720616.5114
        50.7504         39.0004
  20684071.0734   -4135065.41049  -3208755.52547                  20684067.2304
        50.0004         38.2504
  22952169.4724   -6681537.41849  -5192126.41947                  22952166.2224
        44.7504         30.5004
  21299260.9174   -3691747.77049  -2863308.90647                  21299259.7334
        48.0004         33.5004
  22143697.4014   -2224192.89849  -1727000.05247                  22143696.4294
        46.5004         32.2504
  23882045.2304    1712980.46149   1323252.71746                  23882045.0344
        38.7504         22.2504
 04  6 30 14 45 59.9990000  0 10G 6G15G16G17G18G21G22G26G29G30
  20028432.9804   -1734855.91849  -1347956.01448                  20028431.5584
        51.0004         39.5004
  23561468.3314   -5810603.89549  -4515799.03346                  23561466.9014
        40.7504         21.5004
  23481526.3004   -4392953.35249  -3418449.48446                  23481524.0464
        43.2504         22.5004
  23814049.6904     199694.35549    150309.11046                  23814050.1874
        42.2504         22.7504
  20713452.5034   -5319426.91449  -4126856.39047                  20713449.6054
        51.0004         38.5004
  20678195.7304   -4165938.61749  -3232812.55147                  20678192.8584
        50.0004         37.5004
  22942509.3554   -6732300.53549  -5231682.10147                  22942506.1054
        43.5004         29.0004
  21294711.8554   -3715654.59849  -2881937.61147                  21294710.1874
        48.2504         33.0004
  22141152.0424   -2237567.24249  -1737421.62947                  22141151.2844
        46.0004         32.2504
  23884355.5974    1725121.99249   1332713.63546                  23884355.4054
        39.7504         22.2504
 04  6 30 14 46  9.9990000  0 10G 6G15G16G17G18G21G22G26G29G30
  20026527.0734   -1744870.89549  -1355759.90848                  20026525.4804
        50.7504         41.0004
  23552886.8624   -5855696.45349  -4550936.02546                  23552886.2494
        40.7504         22.5004
  23475666.3474   -4423749.09449  -3442446.18146                  23475663.6444
        43.0004         24.5004
  23814317.8234     201103.89549    151407.37446                  23814318.3744
        42.2504         23.7504
  20706294.2764   -5357043.49649  -4156168.00148                  20706291.6634
        51.0004         39.5004
  20672323.5264   -4196797.74249  -3256858.65947                  20672320.0934
        51.2504         38.5004
  22932854.4874   -6783038.21149  -5271217.94747                  22932850.4174
        43.2504         27.7504
  21290175.8944   -3739491.30549  -2900511.66547                  21290174.8044
        48.0004         34.5004
  22138618.1284   -2250882.73449  -1747797.32347                  22138617.0304
        46.0004         32.5004
  23886664.2144    1737253.25849   1342166.52846                  23886664.0774
        40.2504         22.7504
 04  6 30 14 46 19.9990000  0 10G 6G15G16G17G18G21G22G26G29G30
  20024631.3864   -1754833.87949  -1363523.27448                  20024629.5304
        51.0004         40.2504
  23544306.8234   -5900788.24249  -4586072.51246                  23544305.8124
        42.2504         22.2504
  23469816.3154   -4454490.30149  -3466400.38146                  23469814.0584
        43.2504         25.5004
  23814587.5264     202518.03949    152509.29846                  23814587.8194
        41.7504         22.7504
  20699144.2144   -5394616.74649  -4185445.86747                  20699141.9914
        51.0004         39.2504
  20666453.6674   -4227642.86749  -3280893.79847                  20666450.9764
        51.0004         38.2504
  22923204.0654   -6833750.50849  -5310734.02047                  22923200.1204
        43.5004         28.5004
  21285653.3474   -3763257.94949  -2919031.12547                  21285652.2334
        47.0004         34.0004
  22136095.5654   -2264139.29749  -1758127.14247                  22136094.1674
        45.5004         32.5004
  23888970.7924    1749374.21549   1351611.40046                  23888970.8194
        40.2504         22.5004
 04  6 30 14 46 29.9990000  0 10G 6G15G16G17G18G21G22G26G29G30
  20022745.6904   -1764744.26249  -1371245.66448                  20022743.7224
        51.7504         40.7504
  23535725.7454   -5945878.93049  -4621208.09946                  23535725.6944
        41.5004         22.7504
  23463976.4094   -4485176.62549  -3490311.80946                  23463974.5264
        42.5004         25.0004
  23814856.6594     203937.21549    153615.18046                  23814857.8394
        41.5004         24.2504
  20692002.5424   -5432146.21549  -4214689.60448                  20692000.3664
        50.5004         39.7504
  20660586.8394   -4258473.59049  -3304917.73547                  20660583.9644
        50.0004         39.0004
  22913558.7304   -6884436.98449  -5350229.98947                  22913555.3864
        43.0004         29.0004
  21281143.9564   -3786954.10549  -2937495.66647                  21281142.9604
        46.7504         34.7504
  22133583.9334   -2277336.69149  -1768410.81147                  22133583.0694
        45.2504         32.5004
  23891275.3624    1761485.05149   1361048.39946                  23891275.1404
        41.0004         22.5004
 04  6 30 14 46 39.9990000  0 10G 6G15G16G17G18G21G22G26G29G30
  20020869.5504   -1774602.73449  -1378927.59548                  20020867.6324
        50.7504         40.7504
  23527145.9484   -5990968.98449  -4656343.18946                  23527145.3824
        42.0004         22.7504
  23458147.8234   -4515808.49249  -3514180.80846                  23458145.1634
        43.5004         25.0004
  23815127.2614     205360.98049    154724.56246                  23815128.4054
        40.5004         22.0004
  20684869.1514   -5469632.25449  -4243899.50848                  20684866.9834
        50.5004         40.0004
  20654722.7454   -4289290.41049  -3328930.84647                  20654719.6594
        51.0004         38.5004
  22903918.2064   -6935097.99649  -5389706.09147                  22903915.3554
        45.0004         29.0004
  21276647.7144   -3810580.13749  -2955905.57347                  21276646.8234
        47.0004         34.7504
  22131084.0114   -2290475.37949  -1778648.76947                  22131082.7104
        45.7504         33.2504
  23893578.2924    1773585.27349   1370477.10146                  23893577.7884
        42.0004         23.0004
 04  6 30 14 46 49.9990000  0 10G 6G15G16G17G18G21G22G26G29G30
  20019003.1834   -1784409.12549  -1386568.94448                  20019001.3944
        51.0004         40.7504
  23518565.7844   -6036058.36749  -4691477.77246                  23518565.4334
        41.7504         22.7504
  23452329.3394   -4546385.73449  -3538007.20946                  23452326.6944
        43.2504         23.7504
  23815399.6444     206789.40649    155837.54846                  23815400.1054
        40.5004         21.5004
  20677744.2454   -5507074.96549  -4273075.64447                  20677741.8514
        50.7504         39.0004
  20648861.1054   -4320093.29749  -3352933.09547                  20648857.6794
        50.7504         38.5004
  22894282.8784   -6985733.52349  -5429162.31947                  22894280.1124
        45.2504         29.5004
  21272165.5654   -3834136.10949  -2974260.86147                  21272164.2614
        47.0004         34.7504
  22128594.9404   -2303555.37149  -1788840.97847                  22128593.6674
        45.0004         32.7504
  23895878.8394    1785674.79349   1379897.48746                  23895878.3784
        42.0004         23.5004
 04  6 30 14 46 59.9990000  0 10G 6G15G16G17G18G21G22G26G29G30
  20017146.9564   -1794164.62149  -1394170.62848                  20017145.0264
        51.5004         40.7504
  23509985.5194   -6081148.12549  -4726612.66546                  23509984.8394
        42.5004         23.5004
  23446520.6284   -4576909.55149  -3561792.01546                  23446518.0424
        42.5004         24.5004
  23815672.5344     208221.24649    156953.25146                  23815672.4604
        40.5004         20.5004
  20670627.0424   -5544475.42649  -4302218.86247                  20670624.9254
        50.7504         38.5004
  20643001.8704   -4350883.32449  -3376925.32347                  20642998.5194
        50.2504         38.2504
  22884651.7764   -7036344.62949  -5468599.52447                  22884648.8124
        44.5004         29.7504
  21267696.2924   -3857622.97349  -2992562.31947                  21267694.9524
        46.5004         34.0004
  22126117.3234   -2316577.75849  -1798988.28747                  22126115.8514
        46.2504         33.2504
  23898177.1514    1797752.41849   1389308.58746                  23898176.7764
        41.7504         22.5004
 04  6 30 14 47  9.9990000  0 10G 6G15G16G17G18G21G22G26G29G30
  20015300.3314   -1803869.09049  -1401732.55948                  20015298.8394
        50.7504         40.0004
  23501405.2534   -6126238.18049  -4761747.75246                  23501404.3864
        41.7504         22.7504
  23440722.2224   -4607379.76249  -3585535.03846                  23440719.8704
        42.7504         22.7504
  23815945.1754     209656.83649    158071.86546                  23815945.3864
        40.0004         21.5004
  20663518.3394   -5581833.43749  -4331328.98347                  20663515.7884
        50.2504         38.7504
  20637145.3004   -4381660.33649  -3400907.40347                  20637142.2764
        50.2504         37.2504
  22875025.4644   -7086931.05149  -5508017.51247                  22875021.8154
        44.2504         28.7504
  21263240.0264   -3881040.60949  -3010809.83747                  21263238.8624
        46.5004         33.2504
  22123650.0034   -2329542.37149  -1809090.57447                  22123648.9254
        45.7504         32.2504
  23900473.3474    1809818.21549   1398710.48346                  23900473.3354
        42.5004         22.2504
 04  6 30 14 47 19.9990000  0 10G 6G15G16G17G18G21G22G26G29G30
  20013463.4014   -1813522.69149  -1409254.86848                  20013461.8904
        51.2504         40.7504
  23492824.9564   -6171328.76649  -4796883.28646                  23492823.7654
        41.2504         22.7504
  23434934.0194   -4637796.59049  -3609236.45546                  23434931.7064
        42.2504         24.5004
  23816219.9014     211095.78149    159193.03846                  23816219.8474
        40.0004         21.5004
  20656417.3704   -5619149.22749  -4360406.22948                  20656414.9994
        51.0004         39.5004
  20631290.9404   -4412424.60249  -3424879.56847                  20631287.8124
        50.2504         38.2504
  22865403.7924   -7137492.99649  -5547416.41647                  22865400.3004
        44.0004         29.0004
  21258796.8234   -3904389.12149  -3029003.48947                  21258795.6054
        47.5004         34.0004
  22121193.8864   -2342449.51249  -1819148.09447                  22121192.9334
        45.5004         33.2504
  23902766.8154    1821871.77749   1408102.81846                  23902767.1284
        41.2504         22.0004
 04  6 30 14 47 29.9990000  0 10G 6G15G16G17G18G21G22G26G29G30
  20011635.8154   -1823124.93049  -1416737.12748                  20011634.4294
        51.5004         40.5004
  23484244.1364   -6216419.42649  -4832018.83146                  23484243.3514
        42.0004         22.2504
  23429156.6984   -4668159.51649  -3632895.87546                  23429153.5504
        42.0004         24.5004
  23816493.8554     212538.75849    160317.40346                  23816494.3474
        40.0004         21.0004
  20649324.6834   -5656422.25449  -4389450.14647                  20649321.9334
        51.0004         39.2504
  20625439.3084   -4443175.55949  -3448841.34447                  20625436.0974
        51.2504         38.0004
  22855786.4334   -7188029.97349  -5586795.87347                  22855783.2724
        44.0004         28.7504
  21254366.9644   -3927668.08249  -3047142.92847                  21254365.4764
        48.2504         33.2504
  22118748.4804   -2355298.66849  -1829160.42347                  22118747.7334
        47.0004         32.7504
  23905058.5584    1833913.51249   1417485.98946                  23905059.0034
        42.0004         22.0004
 04  6 30 14 47 39.9990000  0 10G 6G15G16G17G18G21G22G26G29G30
  20009818.5974   -1832675.78949  -1424179.36048                  20009817.1874
        51.0004         40.5004
  23475663.0114   -6261510.05949  -4867154.39146                  23475662.6874
        42.5004         22.7504
  23423388.9644   -4698468.43749  -3656513.21946                  23423385.8394
        42.2504         24.2504
  23816768.9644     213985.68049    161444.85546                  23816770.3044
        39.5004         21.2504
  20642239.5584   -5693652.51649  -4418460.72948                  20642237.1674
        50.7504         39.7504
  20619590.1054   -4473913.19949  -3472792.75747                  20619586.8744
        51.0004         39.2504
  22846174.4404   -7238541.82849  -5626155.75947                  22846171.3154
        44.2504         29.2504
  21249950.1674   -3950877.43049  -3065228.13747                  21249948.8234
        48.0004         34.2504
  22116314.7374   -2368089.86349  -1839127.58747                  22116313.5934
        46.0004         32.5004
  23907347.6364    1845943.38349   1426859.92146                  23907348.3314
        41.5004         22.7504
 04  6 30 14 47 49.9990000  0 10G 6G15G16G17G18G21G22G26G29G30
  20008010.7844   -1842175.25849  -1431581.55648                  20008009.0624
        51.0004         40.7504
  23467083.1834   -6306600.66449  -4902289.92246                  23467082.0464
        42.0004         22.7504
  23417631.2144   -4728723.41049  -3680088.53746                  23417629.0694
        42.0004         25.0004
  23817044.8944     215436.58249    162575.37546                  23817046.4914
        38.5004         20.2504
  20635163.1124   -5730840.02349  -4447438.01348                  20635160.2374
        51.0004         40.0004
  20613743.6754   -4504637.45349  -3496733.75347                  20613740.1514
        50.0004         39.0004
  22836567.4724   -7289028.58249  -5665496.08547                  22836564.3554
        42.7504         29.5004
  21245547.1364   -3974017.09449  -3083259.04547                  21245546.0464
        47.7504         35.2504
  22113891.6284   -2380823.10249  -1849049.61447                  22113890.2334
        46.5004         32.5004
  23909634.4484    1857961.32049   1436224.52346                  23909634.7924
        42.0004         22.7504
 04  6 30 14 47 59.9990000  0 10G 6G15G16G17G18G21G22G26G29G30
  20006213.0504   -1851622.89849  -1438943.36548                  20006211.4834
        51.5004         40.5004
  23458502.6594   -6351690.64849  -4937424.93446                  23458502.1284
        42.0004         24.2504
  23411884.4094   -4758923.78949  -3703621.27246                  23411882.1204
        42.0004         24.5004
  23817322.3474     216892.01249    163709.45146                  23817322.9374
        38.7504         20.0004
  20628094.7614   -5767984.13349  -4476381.46347                  20628092.0464
        50.7504         39.0004
  20607899.5584   -4535347.69949  -3520663.79547                  20607896.3944
        50.2504         38.0004
  22826965.3154   -7339489.59449  -5704816.30847                  22826961.7884
        43.2504         29.0004
  21241156.8154   -3997086.39549  -3101235.12547                  21241155.9374
        48.5004         34.7504
  22111479.6984   -2393497.81249  -1858925.99447                  22111478.4524
        47.0004         31.7504
  23911919.2694    1869967.83649   1445580.21546                  23911919.3944
        42.0004         22.5004
 04  6 30 14 48  9.9990000  0 10G 6G15G16G17G18G21G22G26G29G30
  20004424.8474   -1861018.39149  -1446264.52348                  20004423.4524
        50.7504         40.5004
  23449922.5114   -6396779.62949  -4972559.19546                  23449921.8664
        42.2504         25.2504
  23406147.2534   -4789069.10249  -3727111.15646                  23406145.5344
        42.2504         24.7504
  23817600.3704     218352.42649    164847.37746                  23817600.6674
        39.2504         20.7504
  20621034.8554   -5805084.45349  -4505290.79247                  20621032.0814
        51.0004         39.2504
  20602058.4174   -4566043.50849  -3544582.62147                  20602054.9994
        50.5004         38.5004
  22817367.0654   -7389924.36349  -5744116.11347                  22817364.2304
        44.0004         29.5004
  21236780.6904   -4020085.01249  -3119156.11747                  21236779.5154
        47.5004         35.0004
  22109078.9174   -2406113.65249  -1868756.52847                  22109077.8154
        46.0004         32.0004
  23914201.4644    1881963.10949   1454927.18546                  23914201.7304
        41.7504         22.0004
 04  6 30 14 48 19.9990000  0 10G 6G15G16G17G18G21G22G26G29G30
  20002646.8314   -1870361.57849  -1453544.94248                  20002645.4564
        50.5004         40.0004
  23441342.7144   -6441867.83249  -5007692.83846                  23441341.6014
        41.5004         22.7504
  23400422.1364   -4819159.57849  -3750558.28547                  23400419.8154
        42.0004         26.5004
  23817878.9564     219817.63749    165989.06846                  23817879.5654
        39.2504         20.5004
  20613982.9174   -5842141.16849  -4534166.16248                  20613980.0194
        50.7504         39.5004
  20596219.8234   -4596725.11349  -3568490.35247                  20596216.3084
        50.7504         37.7504
  22807774.8154   -7440333.08649  -5783395.63447                  22807770.9404
        42.7504         27.5004
  21232417.6514   -4043013.10249  -3137022.14947                  21232416.8824
        48.0004         34.5004
  22106689.5894   -2418670.78149  -1878541.31047                  22106688.2724
        46.2504         31.7504
  23916482.1364    1893946.98049   1464265.23746                  23916482.6634
        42.2504         22.5004
 04  6 30 14 48 29.9990000  0 10G 6G15G16G17G18G21G22G26G29G30
  20000878.9724   -1879655.05549  -1460786.62648                  20000876.9484
        51.0004         40.2504
  23432762.2224   -6486957.46949  -5042827.59046                  23432761.8904
        42.2504         22.7504
  23394705.1984   -4849197.45349  -3773964.40546                  23394703.9444
        41.5004         24.2504
  23818158.4644     221285.47749    167132.83546                  23818158.7884
        40.0004         20.0004
  20606939.6284   -5879156.41849  -4563009.20547                  20606937.1324
        51.0004         39.2504
  20590383.2694   -4627394.82849  -3592388.83847                  20590380.1124
        50.0004         38.2504
  22798187.2304   -7490717.95749  -5822656.56747                  22798183.0544
        42.7504         27.2504
  21228067.2064   -4065872.80949  -3154834.91747                  21228066.6874
        47.2504         34.7504
  22104310.4954   -2431171.51649  -1888282.15447                  22104309.3084
        45.7504         32.2504
  23918760.3234    1905917.02749   1473592.53546                  23918760.6244
        41.7504         23.7504
 04  6 30 14 48 39.9990000  0 10G 6G15G16G17G18G21G22G26G29G30
  19999119.8004   -1888898.23449  -1467989.09248                  19999118.0114
        51.0004         40.2504
  23424181.7374   -6532048.14149  -5077963.19246                  23424181.1244
        42.2504         22.0004
  23389000.0584   -4879182.29749  -3797329.22246                  23388998.0114
        42.5004         23.7504
  23818438.4484     222756.25849    168278.88546                  23818438.6364
        39.5004         20.5004
  20599903.2614   -5916129.87149  -4591819.68647                  20599901.0114
        51.0004         39.0004
  20584549.5264   -4658052.23049  -3616277.71347                  20584546.7264
        50.5004         38.2504
  22788603.8624   -7541078.43449  -5861898.50847                  22788600.3354
        41.5004         27.7504
  21223730.1754   -4088663.76249  -3172594.10447                  21223729.6944
        47.5004         34.2504
  22101942.7304   -2443615.44549  -1897978.73047                  22101941.5694
        44.7504         32.0004
  23921035.7374    1917873.60549   1482909.31046                  23921036.0624
        42.0004         22.5004
 04  6 30 14 48 49.9990000  0 10G 6G15G16G17G18G21G22G26G29G30
  19997370.5584   -1898090.11749  -1475151.60248                  19997368.9764
        50.5004         41.0004
  23415601.8864   -6577138.83249  -5113098.77046                  23415600.6794
        42.2504         22.7504
  23383304.3234   -4909113.10949  -3820651.93046                  23383302.1054
        41.2504         25.0004
  23818719.3474     224231.05149    169428.01146                  23818718.2614
        39.2504         19.2504
  20592876.3314   -5953060.52049  -4620596.80947                  20592873.5854
        51.0004         39.0004
  20578718.3234   -4688696.23849  -3640156.16947                  20578715.1794
        50.5004         38.2504
  22779025.1594   -7591413.50049  -5901120.60047                  22779022.4054
        41.0004         29.0004
  21219406.6444   -4111384.87949  -3190298.85847                  21219405.7454
        47.0004         34.2504
  22099585.6674   -2456001.57049  -1907630.25347                  22099584.4834
        44.5004         31.7504
  23923308.8004    1929817.60249   1492216.30446                  23923308.3434
        42.0004         23.5004
 04  6 30 14 48 59.9990000  0 10G 6G15G16G17G18G21G22G26G29G30
  19995631.3154   -1907231.53549  -1482274.80448                  19995629.0264
        50.5004         40.7504
  23407020.7534   -6622230.43749  -5148235.08446                  23407020.3744
        42.2504         22.5004
  23377619.0194   -4938990.62149  -3843933.09846                  23377616.4834
        42.0004         23.5004
  23819000.4014     225709.02749    170579.65246                  23818999.5654
        38.5004         19.7504
  20585856.3234   -5989949.10249  -4649341.17548                  20585854.0654
        50.5004         40.0004
  20572889.2764   -4719327.70349  -3664024.84447                  20572885.9054
        50.0004         38.5004
  22769451.5424   -7641723.94949  -5940323.55747                  22769448.9134
        43.0004         30.2504
  21215095.8784   -4134036.94149  -3207949.82947                  21215095.0304
        47.7504         34.7504
  22097239.6834   -2468330.69949  -1917237.37747                  22097238.0584
        46.0004         32.2504
  23925579.0344    1941748.10249   1501512.77746                  23925579.2614
        42.0004         24.0004
 04  6 30 14 49  9.9990000  0 10G 6G15G16G17G18G21G22G26G29G30
  19993901.2374   -1916321.79349  -1489358.12348                  19993899.6794
        50.5004         40.0004
  23398439.5974   -6667322.21949  -5183371.57946                  23398439.9684
        42.0004         24.2504
  23371943.5654   -4968814.10249  -3867172.20246                  23371941.0224
        42.2504         22.7504
  23819282.4404     227191.01649    171734.50046                  23819281.8554
        38.7504         19.2504
  20578844.7304   -6026794.88749  -4678052.16848                  20578842.2104
        50.5004         39.5004
  20567062.5654   -4749945.82449  -3687883.12047                  20567059.6014
        50.2504         38.0004
  22759882.6514   -7692009.04349  -5979506.71747                  22759880.4054
        43.5004         31.0004
  21210799.2304   -4156619.21549  -3225546.40347                  21210797.8944
        47.0004         34.5004
  22094903.9094   -2480602.12549  -1926799.52347                  22094902.9254
        45.2504         31.2504
  23927846.5194    1953665.73449   1510799.22746                  23927847.7614
        41.5004         22.2504
 04  6 30 14 49 19.9990000  0 10G 6G15G16G17G18G21G22G26G29G30
  19992180.7844   -1925362.27049  -1496402.65148                  19992179.1674
        51.0004         40.0004
  23389859.0424   -6712415.45349  -5218509.09246                  23389858.5814
        42.2504         23.5004
  23366278.0894   -4998584.88349  -3890370.18446                  23366276.1754
        41.5004         22.7504
  23819565.2924     228675.53949    172891.19246                  23819564.4564
        39.2504         19.2504
  20571841.3864   -6063599.16849  -4706730.81547                  20571838.7064
        51.0004         39.0004
  20561238.7924   -4780551.98449  -3711732.06847                  20561235.6754
        49.7504         38.0004
  22750318.2064   -7742269.99649  -6018671.06347                  22750315.8394
        43.5004         30.7504
  21206514.5264   -4179132.99249  -3243089.60447                  21206513.3274
        47.5004         34.0004
  22092579.7144   -2492817.23049  -1936317.78747                  22092578.7764
        46.0004         31.5004
  23930111.1754    1965569.15649   1520074.60146                  23930112.7304
        41.5004         22.0004
 04  6 30 14 49 29.9980000  0 10G 6G15G16G17G18G21G22G26G29G30
  19990470.2014   -1934351.60549  -1503407.33248                  19990468.7094
        50.2504         39.7504
  23381279.5684   -6757505.26249  -5253644.01646                  23381278.6934
        43.0004         24.0004
  23360623.5764   -5028299.61349  -3913524.56846                  23360621.0884
        41.7504         23.7504
  23819847.6074     230162.96949    174050.12646                  23819848.0724
        36.7504         19.7504
  20564846.2324   -6100357.93049  -4735374.00247                  20564844.1894
        51.0004         39.0004
  20555417.5064   -4811142.70749  -3735569.00047                  20555414.7094
        50.0004         37.5004
  22740759.5064   -7792501.44549  -6057812.43847                  22740756.8544
        43.2504         28.7504
  21202244.1864   -4201575.67249  -3260577.40447                  21202243.1624
        48.0004         34.0004
  22090265.6074   -2504974.50049  -1945790.98647                  22090265.3384
        46.2504         31.0004
  23932373.6474    1977457.34049   1529338.08546                  23932375.3934
        40.5004         21.7504
 04  6 30 14 49 39.9980000  0 10G 6G15G16G17G18G21G22G26G29G30
  19988769.2174   -1943290.46549  -1510372.68848                  19988767.6544
        51.0004         40.5004
  23372698.5224   -6802599.43449  -5288782.32546                  23372697.3264
        42.2504         24.7504
  23354979.1234   -5057962.95749  -3936638.84146                  23354976.1234
        41.2504         22.7504
  23820131.0844     231654.75449    175212.55246                  23820132.2754
        39.2504         19.0004
  20557858.6544   -6137077.34449  -4763986.52748                  20557856.2754
        51.5004         39.7504
  20549598.3264   -4841722.77749  -3759397.63547                  20549595.2254
        50.5004         38.5004
  22731204.7014   -7842712.11749  -6096937.62447                  22731201.5144
        44.0004         29.2504
  21197986.3654   -4223950.39149  -3278012.24047                  21197985.1044
        48.5004         35.0004
  22087963.6624   -2517075.05949  -1955220.00347                  22087962.5334
        46.5004         31.2504
  23934634.4124    1989333.82049   1538592.46146                  23934635.2524
        39.2504         22.2504
 04  6 30 14 49 49.9980000  0 10G 6G15G16G17G18G21G22G26G29G30
  19987078.3184   -1952175.77349  -1517296.31048                  19987076.9434
        51.0004         40.5004
  23364116.9434   -6847691.37549  -5323918.91446                  23364116.1894
        42.5004         25.5004
  23349344.6234   -5087569.96149  -3959709.24846                  23349342.3074
        42.0004         23.0004
  23820416.3184     233152.82049    176379.89846                  23820418.0414
        38.0004         19.2504
  20550880.0224   -6173751.54749  -4792563.82948                  20550877.1274
        51.0004         39.5004
  20543781.8974   -4872287.13749  -3783214.01647                  20543778.9514
        49.5004         38.5004
  22721655.3034   -7892894.84849  -6136041.06947                  22721652.1354
        43.2504         28.5004
  21193742.1394   -4246252.81649  -3295390.77747                  21193741.2404
        47.5004         34.0004
  22085671.9904   -2529115.75449  -1964602.37047                  22085670.9204
        44.7504         31.0004
  23936891.8974    2001199.55949   1547838.45346                  23936893.0414
        38.5004         20.2504
 04  6 30 14 49 59.9980000  0 10G 6G15G16G17G18G21G22G26G29G30
  19985397.3734   -1961009.24249  -1524179.53348                  19985396.0804
        50.5004         40.7504
  23355536.7404   -6892782.74249  -5359055.01546                  23355535.5494
        43.0004         25.2504
  23343721.5844   -5117122.13749  -3982736.88446                  23343718.9434
        43.0004         24.0004
  23820703.1314     234655.72349    177550.89346                  23820703.9594
        39.7504         19.0004
  20543909.1934   -6210382.16049  -4821107.14947                  20543906.6704
        50.7504         39.2504
  20537968.6784   -4902837.33649  -3807019.37047                  20537965.7484
        50.5004         39.0004
  22712110.9434   -7943051.18749  -6175123.90847                  22712107.7644
        44.0004         29.5004
  21189511.6784   -4268484.58249  -3312714.20847                  21189510.6474
        48.2504         34.5004
  22083391.9124   -2541098.01649  -1973939.20147                  22083391.1154
        46.2504         31.0004
  23939147.1394    2013052.67249   1557074.61546                  23939148.2134
        37.0004         20.7504
 04  6 30 14 50  9.9980000  0 10G 6G15G16G17G18G21G22G26G29G30
  19983726.3264   -1969791.37149  -1531022.76948                  19983725.0684
        50.7504         41.2504
  23346955.8654   -6937874.04349  -5394191.08346                  23346955.1704
        43.0004         24.5004
  23338107.7484   -5146619.86349  -4005722.17146                  23338105.8654
        41.5004         22.2504
  23820989.6474     236162.81349    178725.32646                  23820991.0494
        38.2504         19.2504
  20536947.0294   -6246969.66849  -4849616.90148                  20536944.4364
        50.5004         39.5004
  20532157.5374   -4933373.93449  -3830814.13347                  20532154.4944
        50.2504         39.0004
  22702571.7324   -7993181.59849  -6214186.57347                  22702568.1864
        45.0004         29.7504
  21185294.3034   -4290646.07049  -3329982.92447                  21185293.3264
        48.0004         35.0004
  22081122.9124   -2553022.57449  -1983231.08347                  22081121.5764
        46.0004         31.0004
  23941400.3894    2024892.59049   1566300.43546                  23941400.9754
        37.2504         20.5004
 04  6 30 14 50 19.9980000  0 10G 6G15G16G17G18G21G22G26G29G30
  19982064.5374   -1978523.19949  -1537826.79148                  19982063.4364
        50.5004         40.5004
  23338375.4204   -6982966.32049  -5429327.90147                  23338374.2294
        43.0004         26.2504
  23332504.9754   -5176064.27049  -4028665.85546                  23332502.7364
        42.7504         25.0004
  23821276.8034     237673.08248    179902.06246                  23821278.1584
        35.2504         18.5004
  20529992.5844   -6283515.17649  -4878093.92647                  20529989.8574
        50.7504         39.2504
  20526349.1784   -4963897.85549  -3854598.99347                  20526346.1744
        50.5004         38.7504
  22693036.9824   -8043287.03549  -6253229.78747                  22693033.8464
        45.0004         29.7504
  21181090.6074   -4312738.42649  -3347197.74247                  21181089.4204
        48.2504         35.0004
  22078864.3654   -2564890.40649  -1992478.75047                  22078863.0844
        45.7504         30.2504
  23943650.7404    2036718.19549   1575515.21346                  23943651.3034
        38.2504         20.5004
 04  6 30 14 50 29.9980000  0 10G 6G15G16G17G18G21G22G26G29G30
  19980412.7874   -1987203.15649  -1544590.40348                  19980411.6974
        51.0004         40.0004
  23329794.9514   -7028057.93749  -5464464.23446                  23329793.3934
        42.5004         23.5004
  23326912.2954   -5205453.77749  -4051566.77346                  23326909.8224
        43.7504         22.7504
  23821564.8184     239188.18048    181082.65646                  23821566.5144
        35.5004         17.7504
  20523046.6704   -6320016.96949  -4906536.85447                  20523043.4714
        50.5004         39.0004
  20520543.0454   -4994407.53549  -3878372.75647                  20520540.2364
        50.0004         39.0004
  22683506.6074   -8093365.85249  -6292252.18147                  22683504.4084
        45.0004         29.7504
  21176900.2254   -4334759.96549  -3364357.36747                  21176898.7214
        47.2504         34.5004
  22076616.8344   -2576699.93449  -2001680.97247                  22076615.6194
        45.2504         29.7504
  23945897.8424    2048530.95749   1584719.96746                  23945898.6044
        38.5004         19.5004
 04  6 30 14 50 39.9980000  0 10G 6G15G16G17G18G21G22G26G29G30
  19978771.0764   -1995830.98849  -1551313.39248                  19978769.6504
        51.0004         40.0004
  23321213.9124   -7073148.64849  -5499599.83746                  23321213.0414
        42.7504         22.7504
  23321330.4984   -5234788.08649  -4074424.65546                  23321327.7014
        43.0004         22.5004
  23821854.3184     240708.31649    182267.13746                  23821855.6974
        36.2504         17.7504
  20516108.6934   -6356474.78149  -4934945.54547                  20516105.6664
        51.0004         38.5004
  20514740.1314   -5024902.73049  -3902135.26147                  20514737.2404
        49.7504         38.2504
  22673981.8184   -8143417.81649  -6331253.70447                  22673979.4824
        43.7504         28.5004
  21172722.7174   -4356710.33649  -3381461.54247                  21172722.0724
        48.0004         34.2504
  22074381.0294   -2588450.85249  -2010837.52247                  22074379.4164
        45.5004         28.5004
  23948143.8814    2060331.16049   1593914.80946                  23948144.2294
        38.7504         20.0004
 04  6 30 14 50 49.9980000  0 10G 6G15G16G17G18G21G22G26G29G30
  19977138.9514   -2004408.52349  -1557997.20548                  19977137.1474
        50.5004         40.7504
  23312633.3814   -7118240.24649  -5534736.09546                  23312633.0064
        43.0004         24.5004
  23315758.3114   -5264069.00049  -4097240.96346                  23315756.2834
        42.5004         24.5004
  23822144.5614     242231.74649    183454.19946                  23822145.9324
        36.7504         17.2504
  20509178.9674   -6392890.44949  -4963321.38848                  20509175.8224
        50.7504         39.5004
  20508939.5144   -5055385.41449  -3925888.00047                  20508936.5764
        50.5004         38.7504
  22664462.5534   -8193444.65649  -6370235.63347                  22664459.2834
        44.5004         30.0004
  21168559.0534   -4378591.48049  -3398511.79047                  21168558.0844
        48.5004         35.2504
  22072155.7874   -2600145.14149  -2019949.96947                  22072154.0574
        46.0004         29.7504
  23950386.9674    2072116.77049   1603098.37346                  23950386.3074
        37.7504         19.7504
 04  6 30 14 50 59.9980000  0 10G 6G15G16G17G18G21G22G26G29G30
  19975516.1934   -2012935.77349  -1564641.80948                  19975514.6004
        51.5004         40.0004
  23304052.4434   -7163332.73049  -5569873.13446                  23304052.0294
        42.5004         24.0004
  23310196.6864   -5293296.49649  -4120015.65047                  23310194.6114
        42.2504         25.7504
  23822435.4204     243758.41448    184643.75846                  23822435.9364
        35.2504         16.7504
  20502257.4594   -6429263.90249  -4991664.33447                  20502254.4364
        50.7504         39.0004
  20503140.9514   -5085855.37949  -3949630.81147                  20503138.3264
        49.7504         38.0004
  22654947.6004   -8243446.31649  -6409197.95847                  22654943.9634
        45.2504         28.5004
  21164408.1864   -4400403.27749  -3415508.00247                  21164407.3114
        48.0004         35.2504
  22069940.8734   -2611782.80549  -2029018.28447                  22069939.4364
        45.2504         29.0004
  23952626.6934    2083887.69549   1612270.50046                  23952626.7014
        38.0004         19.2504
 04  6 30 14 51  9.9980000  0 10G 6G15G16G17G18G21G22G26G29G30
  19973903.6934   -2021411.05149  -1571245.92648                  19973901.9394
        50.2504         41.2504
  23295471.8814   -7208424.34449  -5605009.44346                  23295470.6154
        43.0004         25.2504
  23304645.3574   -5322468.78549  -4142747.29146                  23304643.4824
        42.0004         24.7504
  23822726.1234     245290.09448    185837.22746                  23822727.4244
        34.2504         16.2504
  20495343.9434   -6465593.54749  -5019973.14948                  20495341.3774
        50.5004         39.7504
  20497345.9364   -5116310.85549  -3973362.36747                  20497342.7484
        50.7504         39.0004
  22645437.5764   -8293421.03149  -6448139.28147                  22645433.7444
        44.7504         29.7504
  21160270.9044   -4422143.93749  -3432448.75847                  21160269.8974
        48.0004         34.7504
  22067737.8034   -2623362.16049  -2038041.15347                  22067736.0334
        45.5004         29.5004
  23954864.1074    2095645.61349   1621432.48446                  23954864.1504
        36.5004         19.0004
 04  6 30 14 51 19.9980000  0 10G 6G15G16G17G18G21G22G26G29G30
  19972300.5924   -2029835.26649  -1577810.25448                  19972298.8424
        51.0004         41.0004
  23286891.2094   -7253516.04349  -5640145.81546                  23286889.9754
        43.0004         25.2504
  23299104.1154   -5351586.83249  -4165436.69846                  23299102.1974
        42.0004         22.7504
  23823019.2094     246825.79749    187033.88346                  23823019.1234
        36.7504         17.2504
  20488439.0844   -6501880.22349  -5048248.46748                  20488436.2644
        51.0004         39.5004
  20491553.0374   -5146752.74249  -3997083.32147                  20491549.9754
        50.5004         38.5004
  22635932.9754   -8343369.71949  -6487060.32547                  22635928.7994
        44.7504         30.0004
  21156147.6004   -4443814.44949  -3449334.87947                  21156146.4434
        48.0004         34.5004
  22065544.9904   -2634884.05549  -2047019.26147                  22065543.6664
        45.2504         30.0004
  23957099.1154    2107389.44549   1630583.57046                  23957099.3304
        39.5004         17.7504
 04  6 30 14 51 29.9980000  0 10G 6G15G16G17G18G21G22G26G29G30
  19970707.2564   -2038208.02049  -1584334.49048                  19970705.8734
        51.0004         39.5004
  23278310.9824   -7298607.43749  -5675281.96746                  23278309.5454
        42.5004         24.0004
  23293573.9904   -5380650.25449  -4188083.54546                  23293571.6354
        43.2504         22.7504
  23823312.0614     248366.14549    188234.12546                  23823312.6434
        36.5004         17.2504
  20481542.2484   -6538123.52049  -5076490.00447                  20481539.4864
        50.5004         39.2504
  20485762.8264   -5177180.68049  -4020793.39747                  20485759.5844
        50.0004         38.2504
  22626432.8974   -8393291.90649  -6525960.72547                  22626428.6544
        43.5004         29.7504
  21152037.2254   -4465414.32849  -3466165.95547                  21152035.8384
        47.7504         34.5004
  22063363.6314   -2646348.14849  -2055952.32347                  22063362.0684
        45.2504         30.0004
  23959331.1864    2119119.53549   1639723.81746                  23959331.4244
        40.2504         18.5004
 04  6 30 14 51 39.9980000  0 10G 6G15G16G17G18G21G22G26G29G30
  19969124.0064   -2046528.10549  -1590817.68148                  19969122.2294
        51.2504         39.5004
  23269730.0224   -7343697.33249  -5710416.90246                  23269728.8504
        43.2504         24.5004
  23288053.8264   -5409657.81249  -4210686.78446                  23288051.6274
        42.5004         22.0004
  23823606.5844     249912.09449    189438.71946                  23823606.5104
        37.0004         17.7504
  20474653.7724   -6574322.20749  -5104696.75848                  20474651.2444
        50.5004         40.0004
  20479975.4364   -5207593.43449  -4044491.64847                  20479972.1114
        50.2504         38.5004
  22616937.7794   -8443186.30149  -6564839.45547                  22616934.4824
        44.2504         29.5004
  21147940.6154   -4486942.38349  -3482941.05047                  21147939.2994
        48.2504         34.0004
  22061193.6154   -2657753.26249  -2064839.42247                  22061191.9394
        45.2504         29.5004
  23961561.5144    2130837.05949   1648854.38646                  23961560.8344
        40.2504         19.0004
 04  6 30 14 51 49.9980000  0 10G 6G15G16G17G18G21G22G26G29G30
  19967549.8184   -2054798.41849  -1597262.07148                  19967548.3034
        51.0004         39.5004
  23261149.7564   -7388788.58649  -5745552.97446                  23261149.0964
        43.5004         23.7504
  23282543.9044   -5438612.30149  -4233248.70846                  23282541.6274
        42.2504         22.5004
  23823900.8344     251460.84049    190645.48846                  23823900.7794
        36.0004         17.2504
  20467773.2644   -6610479.16849  -5132871.01348                  20467770.6664
        50.7504         39.5004
  20474190.3504   -5237993.88349  -4068180.30147                  20474187.2444
        50.0004         38.0004
  22607448.1394   -8493055.77349  -6603698.75547                  22607445.3774
        45.0004         29.0004
  21143856.9674   -4508401.46549  -3499662.40047                  21143855.7134
        48.5004         34.0004
  22059033.7404   -2669102.31649  -2073682.85747                  22059031.9674
        45.0004         29.0004
  23963788.3184    2142538.94549   1657972.78746                  23963787.9434
        40.5004         19.2504
 04  6 30 14 51 59.9980000  0 10G 6G15G16G17G18G21G22G26G29G30
  19965985.8734   -2063017.06249  -1603666.23548                  19965984.6354
        50.7504         40.5004
  23252569.4364   -7433879.34849  -5780688.60446                  23252568.4794
        42.5004         25.0004
  23277044.3574   -5467511.89549  -4255767.90046                  23277041.5024
        41.7504         22.5004
  23824196.9904     253014.34049    191855.95946                  23824196.6704
        38.2504         18.5004
  20460901.2874   -6646592.48049  -5161011.24747                  20460898.3694
        51.0004         39.2504
  20468408.2564   -5268380.09849  -4091857.87247                  20468404.8034
        50.2504         38.5004
  22597963.6934   -8542898.38349  -6642537.13847                  22597960.2484
        44.7504         30.0004
  21139786.9824   -4529789.57449  -3516328.46447                  21139785.7324
        48.0004         34.5004
  22056885.0144   -2680393.48049  -2082481.16547                  22056883.4904
        45.2504         29.0004
  23966012.1004    2154226.98849   1667080.34446                  23966012.4674
        40.0004         19.5004
 04  6 30 14 52  9.9980000  0 10G 6G15G16G17G18G21G22G26G29G30
  19964432.0294   -2071185.19549  -1610031.01548                  19964430.4434
        50.7504         39.5004
  23243988.8504   -7478970.66049  -5815824.67346                  23243987.4164
        43.5004         24.5004
  23271555.5374   -5496357.69549  -4278245.19946                  23271552.5184
        41.2504         23.0004
  23824493.2324     254571.59848    193069.33046                  23824493.4164
        35.2504         18.5004
  20454037.1864   -6682663.23049  -5189118.32447                  20454034.4474
        51.0004         39.2504
  20462628.3574   -5298753.21549  -4115525.23547                  20462625.3614
        50.5004         38.2504
  22588483.5064   -8592715.18449  -6681355.43447                  22588480.5414
        45.2504         30.7504
  21135730.2174   -4551107.92649  -3532940.17247                  21135728.9944
        48.5004         34.0004
  22054746.8034   -2691627.84849  -2091235.22147                  22054745.7294
        45.5004         28.7504
  23968233.0684    2165900.13749   1676176.24446                  23968233.7294
        39.5004         19.5004
 04  6 30 14 52 19.9980000  0 10G 6G15G16G17G18G21G22G26G29G30
  19962887.2094   -2079302.49249  -1616356.18948                  19962885.4324
        51.2504         40.5004
  23235408.2644   -7524062.27349  -5850961.00847                  23235406.8384
        43.0004         26.2504
  23266076.2954   -5525149.32849  -4300680.18046                  23266073.8504
        41.7504         24.2504
  23824790.1234     256132.75449    194285.78446                  23824791.1544
        36.5004         19.2504
  20447181.2404   -6718691.16849  -5217192.04148                  20447178.4084
        50.5004         40.2504
  20456851.2094   -5329113.01649  -4139182.22547                  20456847.8814
        50.2504         38.5004
  22579008.9904   -8642505.82049  -6720153.31947                  22579005.6314
        45.2504         30.7504
  21131686.7254   -4572356.09449  -3549497.17147                  21131685.3654
        48.2504         34.5004
  22052619.8344   -2702805.14549  -2099944.80947                  22052618.7254
        44.5004         29.5004
  23970452.6474    2177558.48849   1685260.64046                  23970452.1664
        40.7504         20.0004
 04  6 30 14 52 29.9980000  0 10G 6G15G16G17G18G21G22G26G29G30
  19961352.4434   -2087367.73049  -1622640.78448                  19961351.1394
        50.5004         40.0004
  23226827.3264   -7569152.80549  -5886096.47046                  23226826.5064
        43.5004         24.5004
  23260608.3654   -5553885.44949  -4323071.97846                  23260605.4824
        41.7504         23.0004
  23825088.3734     257699.22748    195506.42846                  23825089.2644
        35.5004         18.5004
  20440333.5684   -6754674.85949  -5245231.28448                  20440330.7954
        50.7504         39.7504
  20451076.4754   -5359458.05149  -4162827.70547                  20451073.0964
        51.0004         38.5004
  22569539.0224   -8692268.90249  -6758929.74647                  22569536.0224
        44.2504         29.2504
  21127656.8814   -4593532.75049  -3565998.47047                  21127656.0294
        48.0004         34.7504
  22050504.0764   -2713923.98049  -2108608.84347                  22050503.1744
        45.2504         29.7504
  23972668.0924    2189203.22349   1694334.46246                  23972668.2794
        39.0004         20.0004
 04  6 30 14 52 39.9980000  0 10G 6G15G16G17G18G21G22G26G29G30
  19959827.5144   -2095380.74249  -1628884.70448                  19959825.9984
        51.0004         39.7504
  23218247.3034   -7614242.34849  -5921231.13946                  23218246.4594
        43.5004         24.0004
  23255150.8114   -5582566.07849  -4345420.53746                  23255147.9794
        42.0004         22.2504
  23825388.0224     259270.93849    196731.08446                  23825388.8894
        38.7504         19.2504
  20433494.5454   -6790614.48849  -5273236.17147                  20433492.0644
        50.2504         39.0004
  20445304.3264   -5389788.34849  -4186461.70147                  20445301.7404
        49.5004         38.5004
  22560075.1704   -8742004.41449  -6797684.65447                  22560072.7524
        44.5004         30.2504
  21123640.6624   -4614637.90249  -3582444.02647                  21123639.9284
        48.5004         33.7504
  22048399.1004   -2724984.54749  -2117227.46147                  22048397.8264
        44.5004         29.5004
  23974881.0454    2200834.31649   1703397.59346                  23974880.8504
        37.7504         19.5004
 04  6 30 14 52 49.9980000  0 10G 6G15G16G17G18G21G22G26G29G30
  19958312.3034   -2103343.52749  -1635089.47748                  19958310.9824
        50.7504         39.5004
  23209666.2014   -7659332.64149  -5956366.41346                  23209666.3614
        43.7504         25.0004
  23249702.5294   -5611193.11349  -4367727.28846                  23249700.9284
        41.7504         23.2504
  23825687.1004     260846.14849    197958.52246                  23825688.0144
        39.0004         20.5004
  20426663.8504   -6826511.63749  -5301207.97347                  20426660.6004
        50.7504         39.2504
  20439535.6864   -5420105.71149  -4210085.61547                  20439532.4244
        48.7504         38.7504
  22550615.1864   -8791714.09449  -6836419.45347                  22550612.7484
        45.0004         30.7504
  21119637.8974   -4635673.33249  -3598835.27547                  21119636.6784
        47.7504         34.0004
  22046305.7404   -2735988.58649  -2125802.05347                  22046303.8544
        44.0004         29.0004
  23977091.8504    2212449.87949   1712448.74546                  23977091.0644
        38.5004         19.5004
 04  6 30 14 52 59.9980000  0 10G 6G15G16G17G18G21G22G26G29G30
  19956806.8574   -2111254.78549  -1641254.09948                  19956805.3114
        51.5004         39.5004
  23201086.7014   -7704422.51649  -5991501.37646                  23201085.5454
        43.0004         22.7504
  23244265.8654   -5639765.23449  -4389991.29046                  23244263.7324
        41.2504         23.5004
  23825988.2724     262426.08249    199189.60646                  23825988.6004
        39.0004         21.0004
  20419840.9364   -6862365.14549  -5329145.76047                  20419838.1864
        50.5004         39.2504
  20433769.2954   -5450408.88349  -4233698.47847                  20433765.9324
        49.0004         38.5004
  22541161.1624   -8841396.69549  -6875133.15747                  22541158.3344
        44.5004         29.5004
  21115648.3574   -4656637.79749  -3615171.21847                  21115647.5924
        47.7504         33.5004
  22044222.3264   -2746934.94149  -2134331.66747                  22044221.4324
        44.0004         28.2504
  23979298.9904    2224050.93849   1721488.36946                  23979298.4634
        38.5004         19.2504
 04  6 30 14 53  9.9980000  0 10G 6G15G16G17G18G21G22G26G29G30
  19955311.1704   -2119114.28549  -1647378.39448                  19955309.4634
        50.5004         40.5004
  23192506.2404   -7749511.57449  -6026635.71646                  23192505.9434
        42.0004         22.2504
  23238839.3814   -5668282.10249  -4412212.21846                  23238836.9204
        42.0004         24.2504
  23826289.5924     264011.08249    200424.64346                  23826291.0374
        39.5004         19.7504
  20413026.8734   -6898174.68449  -5357049.29748                  20413024.2954
        50.2504         39.5004
  20428005.4514   -5480697.42649  -4257299.93847                  20428002.3614
        49.0004         39.2504
  22531712.1394   -8891051.74249  -6913825.39647                  22531709.0494
        44.2504         30.0004
  21111672.5764   -4677530.94949  -3631451.58847                  21111671.6894
        46.7504         34.5004
  22042149.9514   -2757823.24249  -2142816.05247                  22042149.1934
        44.0004         28.5004
  23981503.9284    2235637.91049   1730517.22946                  23981503.6544
        37.0004         18.2504
 04  6 30 14 53 19.9980000  0 10G 6G15G16G17G18G21G22G26G29G30
  19953825.4674   -2126921.49649  -1653461.93748                  19953824.1044
        51.0004         40.2504
  23183926.5144   -7794599.38349  -6061769.09946                  23183925.7404
        42.7504         22.7504
  23233423.3654   -5696743.23449  -4434389.73746                  23233421.1474
        42.5004         22.5004
  23826592.2564     265601.66849    201664.00846                  23826593.7484
        38.2504         19.7504
  20406220.5374   -6933939.79749  -5384918.21747                  20406218.1584
        51.0004         39.0004
  20422244.3654   -5510970.92249  -4280889.66147                  20422242.0494
        48.7504         39.0004
  22522268.7254   -8940678.85949  -6952495.87747                  22522265.2604
        44.7504         29.5004
  21107710.6704   -4698352.30549  -3647676.01647                  21107709.2174
        47.7504         33.7504
  22040089.3894   -2768653.25049  -2151255.02647                  22040088.0334
        44.0004         29.5004
  23983706.5614    2247210.95749   1739535.17346                  23983706.2254
        36.7504         18.5004
 04  6 30 14 53 29.9980000  0 10G 6G15G16G17G18G21G22G26G29G30
  19952349.8344   -2134676.82849  -1659505.06048                  19952348.1354
        51.2504         40.7504
  23175346.8654   -7839686.35949  -6096901.78246                  23175345.9514
        42.5004         25.0004
  23228018.5534   -5725149.00849  -4456524.11846                  23228015.4714
        43.5004         24.2504
  23826896.2724     267197.25849    202907.24246                  23826897.5294
        40.0004         21.0004
  20399423.5144   -6969660.93449  -5412752.86547                  20399420.6154
        50.7504         39.2504
  20416486.3344   -5541229.75449  -4304467.98447                  20416483.6474
        48.5004         39.0004
  22512829.7484   -8990278.45349  -6991144.91447                  22512826.3734
        45.0004         29.7504
  21103761.6394   -4719102.34849  -3663844.88247                  21103760.4364
        45.5004         34.7504
  22038039.7484   -2779425.16449  -2159648.74347                  22038038.2564
        43.5004         29.2504
  23985906.1394    2258769.68849   1748541.83446                  23985906.3184
        36.5004         19.0004
 04  6 30 14 53 39.9980000  0 10G 6G15G16G17G18G21G22G26G29G30
  19950883.7014   -2142380.55949  -1665507.96648                  19950882.0684
        51.0004         41.0004
  23166767.0614   -7884772.64149  -6132033.92246                  23166766.1544
        42.5004         24.5004
  23222623.4204   -5753499.52749  -4478615.43746                  23222620.4084
        42.2504         23.2504
  23827200.1394     268797.89849    204154.45846                  23827202.1274
        39.5004         20.7504
  20392633.9594   -7005338.11349  -5440553.25647                  20392631.6744
        50.5004         39.0004
  20410731.1864   -5571473.77749  -4328034.75347                  20410728.3504
        49.0004         39.0004
  22503396.2484   -9039850.58249  -7029772.54047                  22503393.6394
        44.2504         30.2504
  21099826.7484   -4739781.03549  -3679958.14247                  21099825.9474
        47.5004         35.0004
  22036001.1624   -2790139.21149  -2167997.36447                  22035999.5024
        42.7504         29.5004
  23988102.8034    2270313.87549   1757537.33346                  23988102.7914
        37.0004         19.0004
 04  6 30 14 53 49.9980000  0 10G 6G15G16G17G18G21G22G26G29G30
  19949427.7014   -2150032.82049  -1671470.77448                  19949426.0924
        50.7504         40.2504
  23158187.7094   -7929858.41849  -6167165.68046                  23158186.5804
        41.7504         23.5004
  23217237.9984   -5781795.12549  -4500663.98446                  23217235.8694
        42.0004         22.5004
  23827505.9984     270403.40249    205405.48146                  23827507.1194
        39.2504         20.7504
  20385852.9984   -7040971.63349  -5468319.63947                  20385850.9204
        50.0004         39.2504
  20404978.8894   -5601703.65649  -4351590.50547                  20404975.8074
        48.7504         39.0004
  22493968.5924   -9089395.35249  -7068378.82547                  22493965.4164
        44.2504         30.5004
  21095905.3814   -4760388.66049  -3696016.02647                  21095904.3144
        47.0004         34.0004
  22033973.0454   -2800795.69949  -2176301.12947                  22033971.7294
        44.5004         28.0004
  23990296.8894    2281843.14149   1766521.17046                  23990297.2174
        38.2504         19.2504
 04  6 30 14 53 59.9980000  0 10G 6G15G16G17G18G21G22G26G29G30
  19947981.4984   -2157633.03949  -1677393.04148                  19947979.8734
        51.0004         40.2504
  23149607.8114   -7974943.14549  -6202296.60946                  23149607.3264
        40.7504         22.7504
  23211864.7874   -5810035.13749  -4522669.16546                  23211861.8574
        42.2504         23.0004
  23827813.0534     272014.32849    206660.68846                  23827813.3184
        40.0004         20.2504
  20379080.7254   -7076560.80549  -5496051.45647                  20379078.3034
        50.0004         39.0004
  20399228.9824   -5631918.70349  -4375134.69647                  20399225.8974
        49.7504         39.0004
  22484545.5614   -9138912.14149  -7106963.31147                  22484542.5454
        45.2504         30.2504
  21091997.7174   -4780924.56649  -3712018.02947                  21091996.5064
        47.2504         34.2504
  22031956.5764   -2811394.02049  -2184559.55547                  22031954.8144
        44.0004         29.0004
  23992487.8814    2293358.01649   1775493.75746                  23992488.5534
        39.0004         19.2504
 04  6 30 14 54  9.9980000  0 10G 6G15G16G17G18G21G22G26G29G30
  19946544.8424   -2165182.25849  -1683275.54748                  19946543.4824
        51.0004         40.0004
  23141028.7724   -8020027.75849  -6237427.48446                  23141027.6004
        42.0004         23.0004
  23206501.0614   -5838220.50049  -4544631.78046                  23206498.5534
        42.2504         23.5004
  23828120.5374     273629.61749    207919.29646                  23828120.4324
        40.2504         21.0004
  20372316.4284   -7112106.69149  -5523749.54147                  20372314.0614
        50.5004         39.0004
  20393482.0374   -5662119.55949  -4398667.82747                  20393479.0684
        49.2504         38.2504
  22475128.0144   -9188401.89549  -7145526.75947                  22475124.7914
        44.7504         29.0004
  21088103.1234   -4801389.75849  -3727964.92647                  21088101.7954
        46.2504         33.5004
  22029950.6864   -2821935.25449  -2192773.48547                  22029949.0844
        42.5004         28.5004
  23994676.0454    2304857.48849   1784454.34446                  23994677.7364
        39.0004         20.0004
 04  6 30 14 54 19.9980000  0 10G 6G15G16G17G18G21G22G26G29G30
  19945118.5224   -2172678.80949  -1689117.02948                  19945116.5534
        51.0004         40.5004
  23132449.7324   -8065110.65649  -6272557.02746                  23132448.5684
        42.0004         25.5004
  23201148.1864   -5866349.50849  -4566550.47946                  23201146.1584
        42.7504         22.7504
  23828428.8974     275251.01249    209182.77046                  23828428.8734
        40.0004         19.5004
  20365560.9674   -7147607.62149  -5551412.59847                  20365558.2954
        50.5004         39.2504
  20387738.0924   -5692304.72749  -4422188.74547                  20387735.0254
        50.0004         39.2504
  22465715.9904   -9237862.92249  -7184067.80047                  22465713.0684
        45.0004         29.7504
  21084222.6074   -4821782.64549  -3743855.48747                  21084221.1314
        47.5004         34.5004
  22027955.5534   -2832417.72349  -2200941.64147                  22027953.9714
        44.2504         29.2504
  23996862.1784    2316343.08249   1793404.08746                  23996863.3114
        39.2504         20.0004
 04  6 30 14 54 29.9980000  0 10G 6G15G16G17G18G21G22G26G29G30
  19943701.6234   -2180123.63349  -1694918.17548                  19943700.2724
        51.2504         40.0004
  23123870.9984   -8110192.76649  -6307685.87346                  23123869.4714
        41.7504         22.7504
  23195805.9204   -5894423.16049  -4588426.10246                  23195803.6744
        41.5004         24.0004
  23828738.0534     276877.54749    210450.10246                  23828737.5764
        41.0004         18.5004
  20358813.8264   -7183064.46949  -5579041.30248                  20358811.2914
        50.5004         39.5004
  20381996.4204   -5722475.27049  -4445698.24847                  20381993.8224
        49.5004         38.7504
  22456309.0374   -9287296.03949  -7222587.09047                  22456305.9984
        44.5004         29.2504
  21080355.0924   -4842103.91049  -3759690.23447                  21080354.0804
        47.0004         34.0004
  22025971.8504   -2842842.34049  -2209064.72447                  22025970.2254
        43.5004         29.2504
  23999045.5144    2327813.73049   1802342.25546                  23999045.9434
        39.5004         20.7504
 04  6 30 14 54 39.9980000  0 10G 6G15G16G17G18G21G22G26G29G30
  19942294.4754   -2187517.34049  -1700679.53848                  19942292.9944
        51.2504         40.7504
  23115292.2254   -8155274.62149  -6342814.65246                  23115290.8074
        42.2504         24.5004
  23190474.6154   -5922442.07049  -4610258.99446                  23190471.9284
        42.5004         22.5004
  23829049.0374     278508.65249    211721.07046                  23829047.6004
        40.5004         19.2504
  20352074.8344   -7218477.83249  -5606636.13448                  20352072.0964
        50.5004         40.0004
  20376258.0224   -5752631.78149  -4469196.83947                  20376255.0144
        50.0004         39.0004
  22446907.5454   -9336701.94149  -7261085.18347                  22446903.9364
        45.0004         30.2504
  21076501.7794   -4862354.32849  -3775469.77547                  21076500.5644
        48.0004         34.7504
  22023999.5454   -2853209.88749  -2217143.33147                  22023997.1544
        43.0004         30.0004
  24001224.5924    2339268.80549   1811268.26646                  24001225.9044
        39.5004         21.5004
 04  6 30 14 54 49.9980000  0 10G 6G15G16G17G18G21G22G26G29G30
  19940897.2794   -2194858.77749  -1706400.14548                  19940895.8654
        51.0004         40.2504
  23106713.1474   -8200355.15249  -6377942.29446                  23106712.1004
        41.0004         23.0004
  23185152.7564   -5950405.06649  -4632048.33946                  23185150.3034
        42.0004         22.5004
  23829360.8114     280145.52749    212996.57446                  23829359.4674
        40.5004         18.2504
  20345344.3034   -7253846.56249  -5634196.18048                  20345341.8734
        50.5004         39.5004
  20370522.2094   -5782773.14149  -4492683.61247                  20370519.2134
        49.5004         38.7504
  22437511.3504   -9386079.34049  -7299561.07447                  22437507.9324
        44.5004         29.7504
  21072661.6544   -4882532.70349  -3791193.18747                  21072661.0764
        48.0004         35.0004
  22022037.6004   -2863519.10949  -2225176.50147                  22022035.2444
        43.2504         29.5004
  24003401.6314    2350709.34049   1820182.95346                  24003402.7254
        39.5004         20.5004
 04  6 30 14 54 59.9980000  0 10G 6G15G16G17G18G21G22G26G29G30
  19939510.6074   -2202147.76649  -1712079.86848                  19939508.9394
        51.2504         40.0004
  23098135.1074   -8245434.09449  -6413068.71446                  23098133.8464
        42.5004         24.2504
  23179843.0614   -5978311.93749  -4653793.93246                  23179840.0614
        42.5004         22.7504
  23829673.6544     281788.35949    214276.59746                  23829673.0494
        40.5004         19.5004
  20338622.3504   -7289170.45749  -5661721.28047                  20338619.6624
        50.7504         39.2504
  20364789.1544   -5812899.01649  -4516158.31947                  20364786.2754
        50.0004         38.7504
  22428120.1234   -9435427.99249  -7338014.55247                  22428116.8464
        45.7504         29.5004
  21068836.1154   -4902638.73849  -3806860.21947                  21068835.0724
        48.2504         34.5004
  22020086.3424   -2873769.85249  -2233164.09747                  22020084.9244
        44.5004         29.5004
  24005576.3344    2362135.43449   1829086.41046                  24005576.9554
        39.2504         20.2504
 04  6 30 14 55  9.9980000  0 10G 6G15G16G17G18G21G22G26G29G30
  19938133.1154   -2209386.25049  -1717720.26648                  19938131.2324
        51.0004         40.0004
  23089556.6704   -8290513.24249  -6448195.30646                  23089555.7914
        40.5004         22.7504
  23174542.3734   -6006164.44149  -4675497.22146                  23174539.5804
        41.5004         23.0004
  23829986.6784     283435.40249    215559.96246                  23829987.6894
        39.7504         20.0004
  20331909.0454   -7324451.36349  -5689212.89447                  20331906.1004
        50.5004         39.0004
  20359059.3114   -5843011.12949  -4539622.30947                  20359056.1544
        50.5004         39.0004
  22418734.8974   -9484749.64149  -7376447.01947                  22418731.3654
        45.7504         29.7504
  21065023.8114   -4922674.23849  -3822472.30447                  21065022.2994
        47.2504         34.5004
  22018146.7724   -2883963.92649  -2241107.50147                  22018145.0144
        44.5004         30.5004
  24007747.2794    2373545.23449   1837977.09346                  24007748.3074
        39.7504         21.2504
 04  6 30 14 55 19.9980000  0  9G 6G15G16G18G21G22G26G29G30
  19936765.4364   -2216574.37549  -1723321.39748                  19936763.4434
        51.5004         39.5004
  23080977.8814   -8335593.02049  -6483322.43146                  23080977.2054
        42.0004         22.7504
  23169252.1934   -6033962.92649  -4697158.37246                  23169250.1234
        42.0004         22.7504
  20325203.5144   -7359689.59049  -5716671.25447                  20325200.6274
        50.7504         38.7504
  20353331.6864   -5873109.57449  -4563075.62947                  20353328.7724
        49.5004         37.5004
  22409354.7484   -9534044.66449  -7414858.72247                  22409351.1894
        45.2504         29.5004
  21061223.6864   -4942639.62149  -3838029.74647                  21061223.1974
        46.7504         34.2504
  22016217.2484   -2894101.82049  -2249007.18747                  22016215.7954
        45.0004         29.5004
  24009915.4284    2384938.18849   1846854.74346                  24009916.4824
        39.5004         22.0004
 04  6 30 14 55 29.9980000  0  9G 6G15G16G18G21G22G26G29G30
  19935407.1154   -2223711.86349  -1728883.09548                  19935405.4124
        51.5004         39.7504
  23072399.9754   -8380672.92249  -6518449.59646                  23072398.6784
        39.5004         23.2504
  23163972.6784   -6061706.96549  -4718777.11646                  23163971.0224
        42.0004         23.0004
  20318505.8734   -7394884.67249  -5744095.98648                  20318502.8774
        49.5004         39.5004
  20347607.3114   -5903194.29349  -4586518.27147                  20347603.7794
        50.5004         38.7504
  22399978.7794   -9583312.49649  -7453249.20547                  22399976.0374
        44.5004         30.0004
  21057438.0684   -4962534.39849  -3853532.16347                  21057437.1824
        47.5004         34.7504
  22014299.1624   -2904183.03149  -2256862.66947                  22014297.6824
        44.5004         29.5004
  24012080.8264    2396314.76249   1855719.55346                  24012081.3424
        40.2504         22.0004
 04  6 30 14 55 39.9980000  0  9G 6G15G16G18G21G22G26G29G30
  19934058.6004   -2230796.95349  -1734403.93648                  19934057.1394
        51.2504         39.5004
  23063822.1704   -8425751.16849  -6553575.49746                  23063820.9364
        37.7504         22.2504
  23158704.1074   -6089394.78949  -4740352.02946                  23158701.6114
        41.2504         24.0004
  20311816.5614   -7430034.94549  -5771485.79948                  20311814.2404
        49.2504         39.5004
  20341884.8574   -5933263.57449  -4609948.86947                  20341881.9514
        49.0004         38.5004
  22390609.0764   -9632551.43449  -7491617.20347                  22390606.2444
        44.5004         30.2504
  21053666.2564   -4982356.71149  -3868978.12647                  21053665.3734
        46.7504         34.5004
  22012391.8974   -2914205.87949  -2264672.68047                  22012390.4754
        44.7504         29.2504
  24014242.3184    2407676.54349   1864572.82546                  24014243.3734
        40.7504         22.0004
 04  6 30 14 55 49.9980000  0  9G 6G15G16G18G21G22G26G29G30
  19932720.5144   -2237830.40649  -1739884.55848                  19932718.7684
        51.5004         40.5004
  23055243.9434   -8470828.59849  -6588700.73946                  23055243.1004
        42.2504         24.0004
  23153445.7014   -6117027.21949  -4761883.80846                  23153443.5724
        43.0004         23.5004
  20305136.5224   -7465141.14849  -5798841.28048                  20305133.9634
        50.2504         40.5004
  20336165.6624   -5963317.99649  -4633367.91148                  20336162.7324
        48.7504         39.5004
  22381244.9124   -9681762.17249  -7529963.21647                  22381241.2874
        44.5004         31.0004
  21049907.9674   -5002107.48849  -3884368.33047                  21049906.6394
        43.7504         35.2504
  22010495.5224   -2924171.18749  -2272437.86647                  22010494.4324
        44.5004         30.0004
  24016401.9674    2419022.71149   1873414.02646                  24016402.2094
        40.7504         21.7504
 04  6 30 14 55 59.9980000  0  9G 6G15G16G18G21G22G26G29G30
  19931391.8894   -2244811.93749  -1745324.71948                  19931390.3114
        51.0004         40.5004
  23046665.8184   -8515904.77049  -6623825.05346                  23046665.3774
        42.0004         24.0004
  23148198.3114   -6144603.81649  -4783372.06046                  23148196.0294
        41.5004         25.0004
  20298464.4434   -7500202.77049  -5826162.02148                  20298461.8034
        50.0004         40.5004
  20330449.3894   -5993357.19949  -4656775.08048                  20330446.6934
        49.5004         39.5004
  22371885.8344   -9730944.19949  -7568286.85747                  22371882.7444
        44.2504         31.2504
  21046163.2014   -5021786.18049  -3899702.38547                  21046162.1704
        44.2504         35.0004
  22008610.2724   -2934078.52049  -2280157.87447                  22008608.9674
        44.0004         30.5004
  24018558.0294    2430353.50849   1882243.16246                  24018558.6664
        42.0004         22.0004
 04  6 30 14 56  9.9980000  0  9G 6G15G16G18G21G22G26G29G30
  19930072.8814   -2251741.28149  -1750724.20448                  19930071.4044
        51.0004         39.7504
  23038088.9824   -8560979.49649  -6658948.19746                  23038088.1154
        42.5004         22.7504
  23142961.5924   -6172124.35549  -4804816.65546                  23142958.6504
        43.2504         24.5004
  20291800.7324   -7535219.63349  -5853447.88247                  20291798.0454
        50.0004         39.2504
  20324736.0374   -6023380.94149  -4680170.21247                  20324733.1744
        49.5004         38.7504
  22362532.4124   -9780097.34849  -7606588.01247                  22362529.0844
        44.7504         30.0004
  21042432.2094   -5041392.67649  -3914980.16247                  21042431.0804
        44.5004         34.7504
  22006736.4044   -2943927.79349  -2287832.64447                  22006734.8184
        44.7504         30.5004
  24020711.7484    2441669.11349   1891060.49246                  24020712.0724
        42.2504         21.7504
 04  6 30 14 56 19.9980000  0  9G 6G15G16G18G21G22G26G29G30
  19928764.8574   -2258617.71549  -1756082.46948                  19928763.0844
        52.0004         40.0004
  23029512.1154   -8606051.96949  -6694069.58146                  23029510.5884
        41.5004         23.7504
  23137735.0844   -6199588.03549  -4826216.89646                  23137733.1234
        43.0004         24.5004
  20285146.0064   -7570190.94149  -5880698.23948                  20285143.4044
        50.0004         39.5004
  20319026.0224   -6053388.39849  -4703552.63047                  20319023.0184
        49.5004         38.0004
  22353184.2564   -9829220.75049  -7644865.96047                  22353180.9244
        44.5004         30.0004
  21038714.7644   -5060926.12149  -3930201.02747                  21038713.9554
        45.2504         35.0004
  22004873.1474   -2953718.26249  -2295461.56047                  22004871.6394
        43.7504         30.2504
  24022861.7174    2452970.20349   1899866.52446                  24022861.8114
        41.5004         21.7504
 04  6 30 14 56 29.9980000  0  9G 6G15G16G18G21G22G26G29G30
  19927465.6474   -2265444.09449  -1761401.72548                  19927463.7364
        50.7504         39.5004
  23020934.6934   -8651125.02349  -6729191.41746                  23020933.4714
        42.2504         24.5004
  23132519.4824   -6226997.69549  -4847575.10246                  23132517.3144
        42.5004         24.0004
  20278499.3184   -7605119.52349  -5907915.30347                  20278496.6974
        50.5004         39.0004
  20313318.2954   -6083382.36349  -4726924.54747                  20313315.1584
        49.5004         38.5004
  22343841.9824   -9878317.18449  -7683122.91147                  22343838.6544
        45.2504         30.5004
  21035011.7014   -5080389.32049  -3945367.14847                  21035010.2564
        45.0004         34.2504
  22003020.6234   -2963452.62549  -2303046.79247                  22003019.3574
        42.7504         29.5004
  24025009.1154    2464253.85949   1908658.95246                  24025008.6394
        41.7504         21.7504
 04  6 30 14 56 39.9980000  0  9G 6G15G16G18G21G22G26G29G30
  19926176.8814   -2272216.93749  -1766679.28648                  19926175.3384
        51.5004         39.5004
  23012358.9514   -8696195.30549  -6764311.13546                  23012357.1974
        42.0004         25.0004
  23127314.4364   -6254349.93449  -4868888.52446                  23127311.8144
        43.0004         24.0004
  20271861.5684   -7640002.04349  -5935096.48948                  20271858.8504
        50.2504         39.5004
  20307613.7014   -6113359.39849  -4750283.27747                  20307610.7014
        50.0004         38.7504
  22334504.3654   -9927383.18749  -7721356.15747                  22334500.9944
        44.0004         30.2504
  21031321.8114   -5099778.84849  -3960475.87947                  21031320.2954
        46.5004         34.5004
  22001179.4434   -2973127.71949  -2310585.83147                  22001178.5804
        42.0004         30.5004
  24027153.5844    2475523.39149   1917440.40346                  24027153.9124
        41.5004         21.5004
 04  6 30 14 56 49.9980000  0  9G 6G15G16G18G21G22G26G29G30
  19924898.1544   -2278936.93049  -1771915.64847                  19924896.6704
        51.2504         39.0004
  23003782.5374   -8741263.46549  -6799429.17846                  23003780.4244
        41.0004         24.2504
  23122120.1784   -6281645.51249  -4890157.82046                  23122118.1004
        43.5004         25.5004
  20265232.1544   -7674839.19949  -5962242.32347                  20265229.4634
        50.5004         39.2504
  20301912.3504   -6143320.24249  -4773629.39547                  20301909.6004
        48.7504         38.7504
  22325172.8814   -9976419.46549  -7759566.21747                  22325170.3074
        44.5004         30.7504
  21027645.7174   -5119095.42249  -3975527.75347                  21027644.6544
        47.0004         34.5004
  21999349.8654   -2982744.21949  -2318079.19847                  21999348.6434
        41.2504         31.0004
  24029295.8734    2486777.99649   1926210.21646                  24029295.4754
        40.5004         20.5004
 04  6 30 14 56 59.9980000  0  9G 6G15G16G18G21G22G26G29G30
  19923629.2254   -2285603.85249  -1777110.65448                  19923627.6584
        51.2504         40.5004
  22995206.5374   -8786329.09049  -6834545.21547                  22995205.5804
        40.7504         26.5004
  23116937.2014   -6308883.90249  -4911382.52846                  23116934.9124
        41.5004         24.5004
  20258611.6394   -7709630.52049  -5989352.43748                  20258609.3504
        50.0004         39.5004
  20296214.1784   -6173264.39849  -4796962.49047                  20296211.3894
        50.2504         39.0004
  22315847.5844  -10025425.51249  -7797752.70147                  22315844.6194
        45.5004         31.0004
  21023983.7324   -5138338.64549  -3990522.47247                  21023982.7484
        46.7504         35.0004
  21997530.7404   -2992301.66449  -2325526.56047                  21997529.5844
        42.2504         30.0004
  24031433.9434    2498018.02749   1934968.65646                  24031433.6434
        40.7504         20.0004
 04  6 30 14 57  9.9980000  0  9G 6G15G16G18G21G22G26G29G30
  19922370.5684   -2292219.05149  -1782265.37548                  19922369.0414
        51.0004         40.7504
  22986630.6154   -8831393.61749  -6869660.42446                  22986629.9394
        43.0004         25.5004
  23111764.5924   -6336066.50849  -4932563.78447                  23111761.8264
        42.2504         26.2504
  20251999.2254   -7744377.38749  -6016427.93048                  20251996.6744
        50.7504         40.2504
  20290518.8034   -6203193.32449  -4820283.74747                  20290515.8034
        49.7504         39.0004
  22306527.8264  -10074402.69549  -7835916.75547                  22306525.0064
        45.7504         31.7504
  21020335.6784   -5157509.78149  -4005461.03947                  21020334.4284
        46.5004         35.2504
  21995723.3424   -3001801.52749  -2332929.07047                  21995721.9944
        42.2504         30.5004
  24033570.4284    2509242.01649   1943714.58146                  24033569.6624
        40.0004         19.7504
 04  6 30 14 57 19.9980000  0  9G 6G15G16G18G21G22G26G29G30
  19921121.7174   -2298781.58249  -1787379.03748                  19921120.3144
        50.7504         40.0004
  22978055.4754   -8876456.05949  -6904774.01046                  22978054.7484
        43.5004         25.2504
  23106602.8504   -6363192.51249  -4953700.90646                  23106599.8574
        41.5004         25.0004
  20245395.9754   -7779078.92649  -6043468.07848                  20245393.2214
        50.5004         40.0004
  20284826.4044   -6233106.09849  -4843592.39147                  20284823.6744
        50.5004         38.7504
  22297213.4514  -10123350.11749  -7874057.60147                  22297210.8894
        45.2504         30.5004
  21016701.7644   -5176608.02749  -4020342.77647                  21016700.4554
        47.2504         35.5004
  21993927.1154   -3011242.95749  -2340286.03747                  21993925.4124
        42.5004         30.5004
  24035703.0844    2520450.71949   1952448.59846                  24035702.4044
        39.2504         19.7504
 04  6 30 14 57 29.9980000  0  9G 6G15G16G18G21G22G26G29G30
  19919882.7324   -2305292.72749  -1792452.64348                  19919881.1974
        50.7504         40.2504
  22969480.5614   -8921517.53549  -6939886.82047                  22969479.6864
        43.5004         26.5004
  23101451.4364   -6390262.92249  -4974794.72746                  23101448.3224
        42.2504         25.0004
  20238800.9754   -7813736.25449  -6070473.77547                  20238798.4394
        50.5004         39.2504
  20279137.2174   -6263003.82849  -4866889.31547                  20279134.1474
        50.5004         38.7504
  22287904.1544  -10172268.85549  -7912176.05247                  22287901.1394
        45.5004         30.5004
  21013080.7564   -5195634.52749  -4035168.60547                  21013079.6114
        47.0004         34.5004
  21992140.7254   -3020627.04749  -2347598.30147                  21992139.5374
        43.5004         30.5004
  24037832.7644    2531642.91049   1961169.75846                  24037832.7134
        39.2504         18.5004
 04  6 30 14 57 39.9980000  0  9G 6G15G16G18G21G22G26G29G30
  19918653.7564   -2311750.62949  -1797484.78748                  19918652.1864
        51.0004         39.7504
  22960906.2954   -8966576.38749  -6974997.61847                  22960904.9674
        42.5004         25.7504
  23096310.1154   -6417276.11349  -4995843.97446                  23096307.5224
        42.0004         24.0004
  20232214.8504   -7848347.63349  -6097443.68247                  20232211.8034
        50.5004         39.0004
  20273451.1544   -6292884.78949  -4890173.17147                  20273448.0804
        50.7504         38.0004
  22278601.0064  -10221157.13749  -7950270.79447                  22278598.1784
        46.5004         30.5004
  21009474.1004   -5214587.47349  -4049937.14947                  21009472.7564
        47.0004         34.5004
  21990366.4754   -3029952.17249  -2354864.64547                  21990364.9474
        43.2504         30.0004
  24039959.9364    2542820.20749   1969879.32746                  24039959.9324
        38.2504         19.2504
 04  6 30 14 57 49.9980000  0  9G 6G15G16G18G21G22G26G29G30
  19917434.5614   -2318157.30949  -1802477.02048                  19917432.9754
        50.7504         40.5004
  22952332.2014   -9011634.55949  -7010107.88647                  22952331.1394
        42.5004         26.0004
  23091180.6704   -6444233.98849  -5016850.12546                  23091177.6274
        42.0004         22.7504
  20225636.6864   -7882914.99249  -6124379.28448                  20225633.6974
        50.5004         39.7504
  20267767.8974   -6322750.91449  -4913445.47747                  20267764.9634
        50.7504         39.0004
  22269303.5534  -10270016.86349  -7988343.32347                  22269300.8694
        45.5004         31.5004
  21005881.2254   -5233468.84849  -4064649.90447                  21005880.1354
        47.0004         34.7504
  21988603.1544   -3039220.39549  -2362086.64947                  21988601.1934
        43.0004         30.5004
  24042083.5374    2553980.67649   1978575.82146                  24042084.3694
        37.5004         19.2504
 04  6 30 14 57 59.9980000  0  9G 6G15G16G18G21G22G26G29G30
  19916225.3504   -2324513.30949  -1807429.76248                  19916223.3144
        51.0004         39.7504
  22943757.2484   -9056692.50849  -7045217.95146                  22943756.6504
        42.5004         25.5004
  23086060.7014   -6471136.99249  -5037813.50746                  23086058.5964
        39.7504         23.7504
  20219066.9754   -7917438.79349  -6151280.94947                  20219064.3304
        50.5004         39.2504
  20262087.2874   -6352602.55149  -4936706.49847                  20262084.4164
        50.5004         38.5004
  22260010.8894  -10318848.47349  -8026393.89547                  22260008.3114
        45.5004         30.2504
  21002301.7724   -5252279.07849  -4079307.22947                  21002300.8264
        47.0004         34.7504
  21986849.6704   -3048432.13349  -2369264.62847                  21986848.3184
        43.0004         30.2504
  24044204.2874    2565123.71949   1987258.63646                  24044204.6664
        37.2504         18.2504
 04  6 30 14 58  9.9980000  0  9G 6G15G16G18G21G22G26G29G30
  19915025.8344   -2330816.62949  -1812341.44448                  19915024.0224
        51.0004         40.2504
  22935184.0534   -9101748.23849  -7080326.30846                  22935183.1074
        42.7504         25.5004
  23080952.6784   -6497983.20349  -5058732.63946                  23080949.9754
        42.0004         22.7504
  20212505.9204   -7951917.13349  -6178147.17248                  20212503.3384
        51.0004         39.5004
  20256409.8654   -6382437.81649  -4959954.74147                  20256406.9674
        51.0004         39.0004
  22250724.2644  -10367649.94549  -8064421.00547                  22250720.9754
        45.7504         30.0004
  20998736.1154   -5271016.25849  -4093907.62047                  20998735.0644
        47.5004         34.5004
  21985107.9364   -3057585.48049  -2376397.08347                  21985106.3074
        44.5004         30.5004
  24046321.6394    2576251.07049   1995929.31646                  24046322.9674
        36.7504         17.2504
 04  6 30 14 58 19.9980000  0  8G 6G15G16G18G21G22G26G29
  19913836.1474   -2337068.09049  -1817212.71848                  19913834.0334
        50.7504         41.0004
  22926610.3424   -9146802.50449  -7115433.51747                  22926609.0574
        42.0004         27.0004
  23075854.4824   -6524773.41449  -5079608.10246                  23075851.9824
        41.2504         23.0004
  20205953.3894   -7986350.74249  -6204978.56448                  20205950.8854
        51.0004         40.0004
  20250735.3184   -6412257.44949  -4983190.83547                  20250732.0614
        50.7504         39.2504
  22241443.2954  -10416421.96549  -8102425.18747                  22241440.3224
        45.5004         30.5004
  20995184.6074   -5289681.09449  -4108451.65947                  20995183.3504
        47.7504         35.2504
  21983377.0224   -3066681.24249  -2383484.72047                  21983375.8694
        44.5004         30.2504
 04  6 30 14 58 29.9980000  0  8G 6G15G16G18G21G22G26G29
  19912655.9284   -2343269.78949  -1822045.21248                  19912654.3504
        51.2504         40.0004
  22918036.5534   -9191857.44949  -7150541.27846                  22918036.0494
        42.0004         25.2504
  23070766.5144   -6551509.69149  -5100441.59446                  23070764.4514
        42.7504         22.5004
  20199409.1394   -8020741.66449  -6231776.68048                  20199406.5224
        50.5004         40.0004
  20245063.3974   -6442063.55149  -5006416.36847                  20245060.1194
        50.0004         39.0004
  22232167.3894  -10465166.65249  -8140408.05947                  22232164.9714
        45.0004         29.7504
  20991645.9594   -5308275.71549  -4122940.97047                  20991644.9474
        48.0004         35.0004
  21981656.9824   -3075721.51649  -2390529.09347                  21981655.3894
        44.5004         31.2504
 04  6 30 14 58 39.9980000  0  8G 6G15G16G18G21G22G26G29
  19911485.8574   -2349418.14849  -1826836.15848                  19911484.2054
        51.0004         40.0004
  22909463.1934   -9236909.46549  -7185646.71046                  22909462.7524
        43.0004         24.5004
  23065689.4674   -6578188.50449  -5121230.25846                  23065687.3264
        40.5004         22.5004
  20192873.6234   -8055086.36349  -6258538.76247                  20192870.6784
        50.5004         39.2504
  20239394.8574   -6471852.54349  -5029628.55847                  20239391.5924
        50.7504         39.2504
  22222897.8734  -10513880.37549  -8178366.76747                  22222895.3034
        45.5004         30.2504
  20988121.2724   -5326796.42249  -4137372.68447                  20988120.5254
        47.0004         34.7504
  21979948.0684   -3084702.80549  -2397527.49047                  21979946.5684
        44.0004         30.5004
 04  6 30 14 58 49.9980000  0  8G 6G15G16G18G21G22G26G29
  19910326.1934   -2355513.39549  -1831585.69248                  19910324.5804
        51.0004         39.5004
  22900890.7014   -9281958.69549  -7220749.98446                  22900890.4124
        43.2504         25.2504
  23060623.4754   -6604809.89549  -5141974.19346                  23060621.8264
        41.5004         22.7504
  20186346.6784   -8089384.93749  -6285264.93648                  20186344.2054
        50.5004         39.5004
  20233729.6074   -6501624.53549  -5052827.51547                  20233726.3464
        50.5004         38.7504
  22213633.6934  -10562563.19149  -8216301.42647                  22213630.6314
        46.2504         30.7504
  20984610.9824   -5345243.53949  -4151747.07147                  20984610.0144
        47.5004         34.2504
  21978249.9984   -3093625.24249  -2404480.04047                  21978249.1194
        44.0004         30.2504
 04  6 30 14 58 59.9980000  0  8G 6G15G16G18G21G22G26G29
  19909176.0924   -2361556.64549  -1836294.71848                  19909174.5844
        51.0004         40.0004
  22892318.3734   -9327006.26249  -7255851.99446                  22892317.8114
        43.2504         24.5004
  23055568.3654   -6631374.94549  -5162674.26546                  23055566.7524
        40.7504         24.2504
  20179828.4044   -8123638.55549  -6311956.05248                  20179826.0884
        51.5004         39.5004
  20228067.0614   -6531380.62549  -5076014.07947                  20228064.2914
        50.5004         39.2504
  22204375.5294  -10611216.16049  -8254212.81047                  22204372.1194
        45.5004         31.0004
  20981114.4594   -5363618.03949  -4166064.86447                  20981113.5184
        46.5004         34.7504
  21976562.9594   -3102489.93749  -2411387.59947                  21976561.9004
        43.7504         31.5004
 04  6 30 14 59  9.9980000  0  8G 6G15G16G18G21G22G26G29
  19908036.3184   -2367547.23049  -1840962.73748                  19908034.8114
        51.0004         40.0004
  22883747.0684   -9372051.54349  -7290952.17746                  22883745.9824
        43.0004         25.2504
  23050524.2794   -6657883.10249  -5183329.96746                  23050522.5644
        41.2504         22.7504
  20173318.8734   -8157846.59849  -6338611.67248                  20173316.6154
        50.5004         39.5004
  20222407.7644   -6561120.07449  -5099187.67648                  20222404.8544
        51.0004         39.5004
  22195122.5614  -10659838.66049  -8292100.48447                  22195119.2524
        45.7504         31.2504
  20977632.2174   -5381919.28949  -4180325.57647                  20977630.8224
        46.5004         34.7504
  21974887.0144   -3111296.44549  -2418249.84847                  21974886.1434
        43.0004         31.2504
 04  6 30 14 59 19.9980000  0  8G 6G15G16G18G21G22G26G29
  19906906.3974   -2373484.42649  -1845589.11948                  19906904.9984
        50.7504         40.0004
  22875175.8184   -9417093.76649  -7326049.99946                  22875175.4284
        43.5004         25.5004
  23045490.4984   -6684333.55149  -5203940.68546                  23045489.5064
        41.7504         23.7504
  20166818.1314   -8192008.21149  -6365231.09948                  20166815.6044
        50.7504         39.7504
  20216751.7794   -6590842.16449  -5122347.73547                  20216749.0144
        50.5004         39.0004
  22185876.2254  -10708429.81649  -8329963.68747                  22185873.5884
        45.5004         30.7504
  20974163.7324   -5400146.49649  -4194528.58947                  20974162.3654
        46.5004         35.0004
  21973222.5374   -3120043.89549  -2425066.05147                  21973221.6824
        43.5004         31.0004
 04  6 30 14 59 29.9980000  0  8G 6G15G16G18G21G22G26G29
  19905786.4594   -2379369.78149  -1850175.12748                  19905785.1314
        51.5004         39.7504
  22866604.5764   -9462134.42249  -7361146.62246                  22866603.7604
        43.7504         24.5004
  23040467.9904   -6710727.79349  -5224507.66446                  23040466.5334
        41.7504         22.7504
  20160325.9204   -8226124.91849  -6391815.55648                  20160323.4284
        51.0004         40.5004
  20211099.0144   -6620548.41049  -5145495.48247                  20211095.8854
        51.0004         39.0004
  22176635.6934  -10756991.16449  -8367803.70247                  22176632.3504
        45.2504         31.7504
  20970708.8264   -5418301.28949  -4208675.20747                  20970707.5144
        46.5004         35.2504
  21971568.7484   -3128733.96549  -2431837.53747                  21971567.8854
        45.0004         32.5004
 04  6 30 14 59 39.9980000  0  8G 6G15G16G18G21G22G26G29
  19904676.6864   -2385201.91049  -1854719.65548                  19904675.2404
        50.7504         39.7504
  22858034.4044   -9507172.08649  -7396240.89646                  22858033.1934
        43.7504         22.5004
  23035456.4674   -6737064.45349  -5245029.73046                  23035454.7094
        41.7504         24.0004
  20153842.5534   -8260195.31649  -6418363.90548                  20153839.9944
        51.5004         39.7504
  20205449.1864   -6650237.39849  -5168629.74648                  20205446.2834
        50.5004         39.5004
  22167400.5844  -10805521.21149  -8405619.30447                  22167396.8654
        46.0004         31.0004
  20967268.2724   -5436382.10949  -4222764.15647                  20967267.0924
        47.0004         35.0004
  21969926.6864   -3137365.14149  -2438563.12147                  21969925.6624
        44.7504         31.5004
 04  6 30 14 59 49.9980000  0  8G 6G15G16G18G21G22G26G29
  19903576.7174   -2390981.89849  -1859223.52448                  19903574.9864
        50.5004         39.5004
  22849463.8974   -9552207.87549  -7431333.70246                  22849463.3504
        43.5004         25.2504
  23030455.8034   -6763344.51649  -5265507.67946                  23030453.5414
        41.0004         23.0004
  20147367.7644   -8294220.52049  -6444877.04448                  20147365.1934
        50.2504         39.5004
  20199802.9904   -6679910.09849  -5191751.32347                  20199800.0184
        51.0004         38.5004
  22158171.0534  -10854020.95749  -8443411.29447                  22158167.9434
        46.0004         31.5004
  20963841.6544   -5454389.95749  -4236796.24247                  20963840.3264
        47.7504         35.0004
  21968294.8114   -3145938.59049  -2445243.72347                  21968293.9634
        44.5004         31.0004
 04  6 30 14 59 59.9980000  0  8G 6G15G16G18G21G22G26G29
  19902486.7254   -2396709.98849  -1863686.98447                  19902485.4394
        51.0004         39.2504
  22840895.1474   -9597241.88749  -7466425.11946                  22840893.7404
        43.2504         24.5004
  23025465.7874   -6789568.21549  -5285941.72246                  23025463.3384
        42.2504         24.2504
  20140901.7174   -8328200.66449  -6471355.07948                  20140899.0964
        50.2504         39.7504
  20194159.1004   -6709566.61749  -5214860.29347                  20194156.1114
        50.7504         38.5004
  22148947.8114  -10902490.55549  -8481179.78747                  22148944.9084
        46.5004         31.7504
  20960428.5374   -5472325.22349  -4250771.78147                  20960427.0144
        47.7504         35.5004
  21966674.5534   -3154454.53549  -2451879.53547                  21966673.3934
        44.5004         30.7504
 04  6 30 15  0  9.9980000  0  8G 6G15G16G18G21G22G26G29
  19901406.7644   -2402383.73849  -1868108.08648                  19901405.4754
        50.5004         39.7504
  22832325.0374   -9642271.80949  -7501513.34846                  22832324.3344
        43.0004         24.5004
  23020486.6314   -6815733.25849  -5306330.08546                  23020483.9514
        43.2504         24.2504
  20134444.1704   -8362133.35249  -6497796.12148                  20134441.8654
        50.7504         40.0004
  20188519.3814   -6739204.73049  -5237954.93347                  20188516.5414
        51.0004         38.5004
  22139730.0684  -10950927.59449  -8518922.92247                  22139727.5334
        45.0004         31.7504
  20957029.8424   -5490185.32849  -4264688.73947                  20957028.6504
        46.5004         34.7504
  21965065.2724   -3162910.59849  -2458468.68447                  21965064.0644
        45.0004         31.5004
 04  6 30 15  0 19.9980000  0  8G 6G15G16G18G21G22G26G29
  19900337.1784   -2408005.19149  -1872488.46447                  19900335.7054
        50.7504         39.0004
  22823757.0064   -9687299.58649  -7536599.93246                  22823755.9944
        42.2504         24.0004
  23015518.3734   -6841841.61749  -5326674.28746                  23015515.5574
        41.5004         24.0004
  20127996.1074   -8396020.54749  -6524201.74048                  20127993.3894
        51.0004         39.7504
  20182882.6474   -6768826.27749  -5261036.65247                  20182879.6154
        50.7504         38.7504
  22130518.9434  -10999334.08649  -8556642.23547                  22130516.1394
        45.7504         30.5004
  20953644.8344   -5507972.47349  -4278548.84647                  20953643.8694
        48.0004         35.2504
  21963467.0614   -3171308.94949  -2465012.86947                  21963466.2564
        45.0004         31.0004
 04  6 30 15  0 29.9980000  0  8G 6G15G16G18G21G22G26G29
  19899277.4904   -2413574.36749  -1876828.07748                  19899275.7914
        50.7504         39.7504
  22815188.6934   -9732325.21549  -7571684.80946                  22815187.9364
        41.2504         24.0004
  23010561.0454   -6867893.19549  -5346974.19346                  23010558.1434
        41.5004         24.0004
  20121555.8974   -8429862.18449  -6550571.82648                  20121553.4244
        50.5004         39.5004
  20177248.8264   -6798431.22349  -5284105.42947                  20177246.2294
        50.5004         38.7504
  22121312.6544  -11047709.89849  -8594337.65047                  22121310.2794
        45.7504         31.5004
  20950274.0064   -5525686.49249  -4292351.97147                  20950272.9244
        47.0004         35.2504
  21961880.0684   -3179649.42649  -2471511.93247                  21961878.9084
        45.0004         30.0004
 04  6 30 15  0 39.9980000  0  8G 6G15G16G18G21G22G26G29
  19898227.5924   -2419091.73849  -1881127.34448                  19898225.8464
        50.5004         40.2504
  22806621.4514   -9777349.15249  -7606768.41146                  22806619.9164
        41.2504         24.0004
  23005614.5064   -6893888.43749  -5367230.23846                  23005611.8544
        41.5004         24.0004
  20115124.6624   -8463658.87949  -6576906.92748                  20115122.1314
        51.0004         40.0004
  20171618.3034   -6828020.07449  -5307161.70148                  20171615.5614
        50.5004         39.7504
  22112113.3654  -11096055.45749  -8632009.50747                  22112110.7914
        46.0004         31.7504
  20946916.9514   -5543327.85249  -4306098.50847                  20946915.6864
        47.5004         36.0004
  21960303.5374   -3187932.58649  -2477966.38047                  21960302.6894
        45.0004         31.5004
 04  6 30 15  0 49.9980000  0  8G 6G15G16G18G21G22G26G29
  19897187.6074   -2424556.30549  -1885385.45148                  19897185.9864
        50.7504         39.7504
  22798054.1004   -9822370.29749  -7641849.81646                  22798052.3144
        42.5004         25.2504
  23000678.3734   -6919826.37949  -5387441.61546                  23000675.7914
        40.7504         24.5004
  20108702.2954   -8497409.48849  -6603206.09548                  20108699.7604
        51.2504         40.5004
  20165991.2794   -6857591.75849  -5330204.56647                  20165988.1824
        50.2504         39.2504
  22102919.5064  -11144369.66449  -8669656.93047                  22102916.7914
        45.7504         31.7504
  20943574.0924   -5560895.53149  -4319787.61247                  20943573.3424
        48.0004         35.2504
  21958738.2794   -3196157.45349  -2484375.36447                  21958737.7444
        44.5004         31.5004
 04  6 30 15  0 59.9980000  0  8G 6G15G16G18G21G22G26G29
  19896157.6704   -2429968.50449  -1889602.73447                  19896156.0924
        50.2504         39.2504
  22789487.0144   -9867389.15249  -7676929.42046                  22789485.8894
        42.0004         23.7504
  22995753.4204   -6945707.43449  -5407608.70146                  22995751.4004
        42.0004         24.2504
  20102288.1544   -8531114.46149  -6629469.69948                  20102285.8424
        51.0004         39.7504
  20160367.2874   -6887146.74649  -5353234.40947                  20160363.8814
        50.7504         38.2504
  22093731.8034  -11192652.91449  -8707280.22247                  22093728.5844
        45.7504         31.2504
  20940245.0684   -5578389.93049  -4333419.60047                  20940244.1434
        48.7504         34.7504
  21957184.5844   -3204324.43049  -2490739.25047                  21957183.4324
        45.2504         31.5004
 04  6 30 15  1  9.9980000  0  8G 6G15G16G18G21G22G26G29
  19895137.6934   -2435329.65249  -1893780.27448                  19895136.1864
        50.5004         39.7504
  22780920.9284   -9912406.91449  -7712008.19646                  22780919.2524
        43.0004         24.5004
  22990838.6784   -6971532.92649  -5427732.45346                  22990836.9324
        41.7504         24.2504
  20095882.9434   -8564775.07449  -6655698.75048                  20095880.4324
        50.7504         39.7504
  20154745.7644   -6916686.24649  -5376252.20847                  20154742.7644
        51.0004         39.0004
  22084548.5924  -11240906.50849  -8744880.42847                  22084546.3654
        46.0004         31.5004
  20936929.7404   -5595812.33649  -4346995.50147                  20936929.2254
        48.5004         35.0004
  21955641.4824   -3212434.89149  -2497059.11047                  21955640.5844
        45.2504         31.0004
 04  6 30 15  1 19.9980000  0  8G 6G15G16G18G21G22G26G29
  19894127.4594   -2440638.75849  -1897917.20847                  19894126.1074
        50.7504         39.0004
  22772354.5064   -9957422.60249  -7747085.28746                  22772353.2254
        41.5004         24.5004
  22985934.8344   -6997301.83249  -5447812.11446                  22985933.2484
        41.5004         23.5004
  20089485.9284   -8598390.34849  -6681892.43547                  20089483.4674
        50.2504         38.7504
  20149128.1544   -6946209.38349  -5399257.19447                  20149124.8304
        50.7504         38.5004
  22075372.2094  -11289129.32849  -8782456.60047                  22075369.9204
        46.5004         31.0004
  20933628.1074   -5613161.80549  -4360514.56047                  20933627.0684
        48.7504         34.7504
  21954108.9364   -3220487.85549  -2503334.10647                  21954107.9514
        44.2504         30.0004
 04  6 30 15  1 29.9980000  0  8G 6G15G16G18G21G22G26G29
  19893127.0064   -2445897.28549  -1902014.81748                  19893125.3854
        50.5004         39.7504
  22763788.6544  -10002437.66049  -7782161.99447                  22763787.3074
        42.7504         27.0004
  22981042.3734   -7023015.51649  -5467848.76046                  22981040.2324
        41.2504         24.2504
  20083097.6314   -8631961.71549  -6708051.97248                  20083095.1664
        51.2504         40.0004
  20143512.2404   -6975717.50849  -5422250.58847                  20143509.3854
        51.0004         39.0004
  22066201.7174  -11337322.84449  -8820010.00547                  22066198.7994
        46.0004         33.2504
  20930340.3114   -5630439.71949  -4373977.88247                  20930339.4904
        48.5004         35.5004
  21952586.5924   -3228484.82049  -2509565.55547                  21952586.2404
        44.5004         31.5004
 04  6 30 15  1 39.9980000  0  8G 6G15G16G18G21G22G26G29
  19892135.8814   -2451105.08649  -1906072.83148                  19892134.5224
        50.7504         39.7504
  22755222.3974  -10047451.88349  -7817237.97846                  22755221.1544
        41.2504         24.2504
  22976159.5534   -7048673.89549  -5487842.34546                  22976157.4324
        40.0004         24.2504
  20076717.9674   -8665489.09049  -6734177.17248                  20076715.2404
        51.0004         39.5004
  20137900.4904   -7005210.18049  -5445231.87647                  20137897.2684
        50.5004         39.0004
  22057036.4124  -11385486.78549  -8857540.31347                  22057032.9044
        46.2504         31.2504
  20927066.0454   -5647645.84449  -4387385.24447                  20927064.9904
        48.2504         35.0004
  21951075.8264   -3236425.72349  -2515753.25147                  21951075.5104
        44.2504         30.2504
 04  6 30 15  1 49.9980000  0  8G 6G15G16G18G21G22G26G29
  19891154.8504   -2456259.92649  -1910089.62048                  19891153.2604
        50.5004         40.2504
  22746656.8654  -10092463.05149  -7852311.61947                  22746655.9204
        41.2504         25.7504
  22971287.8034   -7074274.59449  -5507790.96246                  22971285.4714
        39.5004         24.2504
  20070346.6314   -8698970.05149  -6760266.24948                  20070343.7404
        50.7504         40.5004
  20132291.4674   -7034685.15649  -5468199.40447                  20132288.2604
        50.7504         39.0004
  22047877.0684  -11433618.88349  -8895045.85547                  22047873.5224
        46.2504         31.7504
  20923805.7484   -5664777.96549  -4400734.96247                  20923804.7484
        48.5004         35.5004
  21949575.4594   -3244308.20749  -2521895.47147                  21949574.6624
        44.2504         30.7504
 04  6 30 15  1 59.9980000  0  8G 6G15G16G18G21G22G26G29
  19890183.8034   -2461363.64149  -1914066.55048                  19890182.1234
        51.0004         40.0004
  22738091.9754  -10137472.93449  -7887384.27047                  22738090.8034
        41.5004         26.5004
  22966426.1234   -7099819.51249  -5527696.07446                  22966424.3694
        39.5004         22.7504
  20063983.6624   -8732406.42649  -6786320.56448                  20063981.1154
        51.0004         39.7504
  20126685.4984   -7064144.29349  -5491154.58047                  20126682.7954
        50.2504         38.7504
  22038723.3344  -11481720.82849  -8932527.87047                  22038720.0964
        46.5004         31.7504
  20920559.6784   -5681837.86349  -4414028.38747                  20920558.4944
        48.0004         35.2504
  21948086.1474   -3252134.21549  -2527993.65847                  21948085.8894
        43.2504         30.0004
 04  6 30 15  2  9.9970000  0  8G 6G15G16G18G21G22G26G29
  19889222.2204   -2466415.21949  -1918002.83348                  19889221.0914
        51.0004         39.5004
  22729528.0174  -10182476.53949  -7922451.98946                  22729526.6814
        41.5004         24.7504
  22961577.1814   -7125305.57849  -5547555.32646                  22961575.0954
        40.5004         23.7504
  20057630.1654   -8765794.44949  -6812337.18348                  20057627.4424
        51.2504         40.0004
  20121083.2204   -7093584.22349  -5514094.77047                  20121080.4624
        51.0004         38.7504
  22029576.7434  -11529787.37149  -8969982.30047                  22029573.6924
        46.2504         31.0004
  20917327.1654   -5698823.41049  -4427263.86747                  20917325.9464
        48.2504         34.0004
  21946608.3374   -3259902.39849  -2534046.78547                  21946607.4234
        44.0004         30.0004
 04  6 30 15  2 19.9970000  0  8G 6G15G16G18G21G22G26G29
  19888270.9314   -2471415.53149  -1921899.18748                  19888269.3494
        50.5004         39.5004
  22720963.3994  -10227482.75849  -7957521.76346                  22720962.9074
        39.7504         25.0004
  22956737.1424   -7150737.78549  -5567372.65946                  22956735.4424
        40.2504         23.7504
  20051284.8604   -8799140.69949  -6838321.27648                  20051282.1144
        50.0004         39.7504
  20115483.6344   -7123010.80549  -5537024.57147                  20115480.6884
        50.7504         39.0004
  22020435.0484  -11577827.90649  -9007416.47347                  22020431.6344
        45.5004         30.0004
  20914108.5874   -5715737.88349  -4440443.98847                  20914107.3334
        49.0004         34.0004
  21945140.8294   -3267614.36349  -2540056.12947                  21945139.4354
        44.5004         29.2504
 04  6 30 15  2 29.9970000  0  8G 6G15G16G18G21G22G26G29
  19887328.4934   -2476365.39849  -1925756.23648                  19887327.1304
        50.2504         39.7504
  22712399.1184  -10272488.23849  -7992590.92946                  22712398.6344
        39.7504         25.5004
  22951907.5244   -7176114.68749  -5587146.85046                  22951906.7474
        40.0004         22.7504
  20044947.5404   -8832442.82449  -6864270.97648                  20044944.5524
        50.5004         40.0004
  20109886.7594   -7152421.98049  -5559942.37347                  20109883.7394
        51.0004         39.0004
  22011298.8454  -11625838.71949  -9044827.47947                  22011295.2044
        45.2504         30.0004
  20910903.6104   -5732580.66449  -4453568.20647                  20910902.2044
        48.7504         34.7504
  21943684.0714   -3275270.48849  -2546021.90047                  21943682.5604
        43.2504         29.5004
 04  6 30 15  2 39.9970000  0  8G 6G15G16G18G21G22G26G29
  19886396.8064   -2481264.47349  -1929573.71748                  19886394.9274
        50.0004         39.5004
  22703835.1734  -10317492.72349  -8027659.36747                  22703834.5564
        40.0004         26.0004
  22947089.5874   -7201436.10249  -5606877.82546                  22947087.5524
        40.2504         22.7504
  20038618.6964   -8865700.63749  -6890186.15948                  20038615.8104
        50.7504         40.0004
  20104293.2824   -7181817.49249  -5582847.96747                  20104289.7124
        51.0004         39.2504
  22002168.4854  -11673819.55949  -9082215.14947                  22002164.9074
        46.0004         30.0004
  20907711.9074   -5749351.56649  -4466636.46847                  20907710.4704
        48.7504         34.5004
  21942238.0484   -3282870.46949  -2551944.01247                  21942236.2084
        44.7504         30.2504
 04  6 30 15  2 49.9970000  0  8G 6G15G16G18G21G22G26G29
  19885474.3924   -2486112.64549  -1933351.51348                  19885472.3454
        51.2504         40.0004
  22695271.3294  -10362495.96249  -8062726.88246                  22695270.3294
        40.7504         24.7504
  22942281.8764   -7226701.82049  -5626565.41846                  22942279.7634
        41.2504         24.0004
  20032297.9934   -8898913.99249  -6916066.68448                  20032295.5754
        50.5004         40.0004
  20098702.2984   -7211197.14849  -5605741.19648                  20098699.2474
        51.0004         39.5004
  21993043.5484  -11721770.17649  -9119579.25747                  21993040.4974
        45.7504         30.5004
  20904534.0794   -5766050.30549  -4479648.47047                  20904533.0174
        48.7504         34.5004
  21940802.2674   -3290414.29749  -2557822.31447                  21940800.8494
        44.5004         30.2504
 04  6 30 15  2 59.9970000  0  8G 6G15G16G18G21G22G26G29
  19884561.2284   -2490909.77349  -1937089.54648                  19884559.6034
        50.5004         40.5004
  22686707.8294  -10407497.86749  -8097793.23947                  22686706.6614
        40.7504         26.5004
  22937484.8294   -7251911.69549  -5646209.48947                  22937482.6464
        40.7504         26.0004
  20025986.7124   -8932082.72349  -6941912.45448                  20025983.8994
        50.2504         40.2504
  20093114.5484   -7240560.81649  -5628621.98948                  20093111.4814
        51.0004         39.5004
  21983924.6424  -11769690.29349  -9156919.59647                  21983921.6534
        46.7504         31.0004
  20901370.3684   -5782676.94549  -4492604.30847                  20901369.2244
        48.2504         35.0004
  21939377.1884   -3297901.81649  -2563656.76747                  21939376.0174
        44.2504         30.2504
 04  6 30 15  3  9.9970000  0  8G 6G15G16G18G21G22G26G29
  19883657.8844   -2495655.86349  -1940787.80548                  19883656.4664
        50.0004         39.7504
  22678144.3764  -10452498.35249  -8132858.52747                  22678143.4354
        41.0004         26.0004
  22932698.6264   -7277065.77349  -5665810.06946                  22932695.8174
        42.0004         25.5004
  20019683.2284   -8965206.85549  -6967723.46348                  20019680.6494
        50.0004         40.2504
  20087529.9074   -7269908.53149  -5651490.33347                  20087526.6344
        51.0004         39.0004
  21974811.9234  -11817580.02749  -9194236.24747                  21974808.9504
        46.5004         31.5004
  20898220.2904   -5799231.27349  -4505503.76747                  20898219.0444
        48.5004         34.5004
  21937962.8534   -3305332.96149  -2569447.24647                  21937961.9854
        45.0004         29.5004
 04  6 30 15  3 19.9970000  0  8G 6G15G16G18G21G22G26G29
  19882764.3454   -2500351.47749  -1944446.72648                  19882762.8564
        50.0004         39.5004
  22669581.6964  -10497498.01649  -8167923.18047                  22669580.3104
        42.0004         26.0004
  22927922.0094   -7302164.49649  -5685367.49446                  22927919.6064
        42.5004         24.5004
  20013388.2594   -8998286.88349  -6993500.09348                  20013385.5284
        50.2504         40.2504
  20081948.2984   -7299240.75449  -5674346.59747                  20081944.9814
        51.5004         38.7504
  21965704.0874  -11865439.76649  -9231529.54747                  21965700.7714
        46.0004         30.7504
  20895083.6814   -5815713.85249  -4518347.33347                  20895082.5524
        48.0004         34.2504
  21936559.5174   -3312708.48849  -2575194.42147                  21936558.1144
        44.5004         29.7504
 04  6 30 15  3 29.9970000  0  8G 6G15G16G18G21G22G26G29
  19881880.6184   -2504996.91849  -1948066.55448                  19881878.9624
        50.7504         39.5004
  22661018.8134  -10542497.10549  -8202987.41147                  22661017.0174
        40.2504         26.0004
  22923156.4234   -7327208.17649  -5704882.09346                  22923154.2984
        41.7504         25.2504
  20007101.7824   -9031323.07449  -7019242.58948                  20007099.3764
        50.5004         39.7504
  20076369.3294   -7328557.68449  -5697190.96047                  20076365.9464
        50.7504         38.7504
  21956602.5404  -11913269.84449  -9268799.72847                  21956599.1424
        46.7504         31.0004
  20891960.8134   -5832125.02749  -4531135.27047                  20891959.7164
        49.0004         34.5004
  21935166.4624   -3320028.55949  -2580898.37047                  21935165.4744
        44.7504         28.7504
 04  6 30 15  3 39.9970000  0  8G 6G15G16G18G21G22G26G29
  19881005.8064   -2509592.39849  -1951647.44248                  19881004.8534
        49.2504         39.7504
  22652455.3294  -10587495.69549  -8238051.19146                  22652454.1694
        40.7504         24.7504
  22918401.0244   -7352197.02749  -5724353.87546                  22918398.6734
        40.5004         22.5004
  20000823.8374   -9064315.60249  -7044951.00147                  20000820.8064
        50.0004         39.2504
  20070793.3534   -7357859.57849  -5720023.59947                  20070789.9934
        51.0004         39.0004
  21947506.0794  -11961070.25049  -9306046.72547                  21947502.9234
        46.2504         31.5004
  20888851.2354   -5848464.91049  -4543867.60847                  20888850.7984
        48.5004         34.5004
  21933784.0794   -3327293.45749  -2586559.31347                  21933783.3644
        44.5004         29.5004
 04  6 30 15  3 49.9970000  0  8G 6G15G16G18G21G22G26G29
  19880141.0714   -2514136.84449  -1955188.58448                  19880139.7204
        50.2504         39.5004
  22643893.1104  -10632492.77749  -8273113.88647                  22643891.7984
        41.7504         26.0004
  22913656.6964   -7377129.99249  -5743782.20247                  22913653.5994
        42.0004         25.7504
  19994553.7434   -9097263.49249  -7070624.71648                  19994551.1224
        50.5004         40.0004
  20065220.4464   -7387145.40649  -5742843.72747                  20065216.9974
        51.2504         38.7504
  21938416.0874  -12008839.93049  -9343269.90547                  21938413.2864
        47.0004         32.5004
  20885755.8134   -5864732.42649  -4556543.64347                  20885754.7554
        48.5004         34.0004
  21932412.2594   -3334502.10249  -2592176.46147                  21932411.3804
        45.0004         29.5004
 04  6 30 15  3 59.9970000  0  8G 6G15G16G18G21G22G26G29
  19879286.5714   -2518628.68749  -1958688.71348                  19879284.9314
        49.7504         39.7504
  22635330.8454  -10677486.74649  -8308174.09347                  22635329.9074
        42.2504         26.2504
  22908922.9934   -7402005.42249  -5763165.67046                  22908919.8924
        39.7504         24.5004
  19988292.5094   -9130165.02749  -7096262.27048                  19988290.2124
        50.2504         39.7504
  20059650.8294   -7416413.37949  -5765649.93047                  20059647.7784
        51.0004         38.7504
  21929332.2354  -12056577.28149  -9380467.80547                  21929328.9114
        46.7504         32.5004
  20882674.0954   -5880926.04749  -4569162.03447                  20882673.1224
        48.2504         34.7504
  21931051.5714   -3341652.97749  -2597748.56947                  21931050.9704
        44.5004         29.5004
 04  6 30 15  4  9.9970000  0  8G 6G15G16G18G21G22G26G29
  19878441.2594   -2523070.90649  -1962150.20548                  19878439.4624
        50.0004         40.2504
  22626768.6344  -10722480.58649  -8343234.19447                  22626767.9074
        42.0004         27.0004
  22904199.6344   -7426826.32449  -5782506.65247                  22904197.4234
        41.0004         25.7504
  19982039.9234   -9163023.19949  -7121866.04948                  19982037.3924
        50.7504         41.0004
  20054084.3924   -7445666.53149  -5788444.59848                  20054080.8924
        51.2504         39.5004
  21920253.2904  -12104285.22749  -9417642.81347                  21920250.8024
        47.2504         33.0004
  20879606.1264   -5897048.72349  -4581725.16947                  20879604.8334
        48.5004         35.0004
  21929701.1574   -3348749.02049  -2603277.98047                  21929700.7824
        45.0004         29.2504
 04  6 30 15  4 19.9970000  0  8G 6G15G16G18G21G22G26G29
  19877604.9234   -2527464.35949  -1965573.67248                  19877604.0174
        50.7504         39.7504
  22618206.6184  -10767475.05549  -8378294.83647                  22618205.5714
        42.5004         27.2504
  22899486.0094   -7451593.53149  -5801805.78446                  22899484.0634
        42.5004         25.0004
  19975795.7674   -9195838.78549  -7147436.62348                  19975792.9664
        50.2504         40.5004
  20048520.2514   -7474905.60949  -5811228.30147                  20048516.7164
        51.0004         39.0004
  21911180.7124  -12151964.52049  -9454795.50347                  21911177.0634
        46.7504         32.5004
  20876551.7124   -5913101.19949  -4594233.59947                  20876549.9784
        48.7504         34.5004
  21928361.4934   -3355791.21549  -2608765.38447                  21928360.1064
        44.7504         29.2504
 04  6 30 15  4 29.9970000  0  8G 6G15G16G18G21G22G26G29
  19876778.5484   -2531806.86349  -1968957.44848                  19876777.5174
        50.7504         39.7504
  22609644.2744  -10812467.95349  -8413354.22147                  22609643.5564
        42.5004         26.5004
  22894784.1184   -7476304.70749  -5821061.24746                  22894781.5524
        41.5004         24.0004
  19969559.4314   -9228609.58249  -7172972.30048                  19969557.0994
        50.2504         40.2504
  20042959.1264   -7504128.25849  -5833999.18247                  20042956.2634
        50.7504         39.0004
  21902113.2044  -12199612.85249  -9491924.08147                  21902109.9584
        46.5004         31.2504
  20873510.6424   -5929081.35949  -4606685.66447                  20873509.2004
        48.7504         34.5004
  21927031.6344   -3362777.25449  -2614209.05647                  21927030.6224
        45.0004         28.7504
 04  6 30 15  4 39.9970000  0  8G 6G15G16G18G21G22G26G29
  19875961.9384   -2536099.61349  -1972302.46848                  19875960.6734
        50.5004         39.5004
  22601082.7124  -10857460.50849  -8448413.36347                  22601081.5054
        43.5004         27.0004
  22890092.1964   -7500961.16849  -5840274.09446                  22890090.0364
        42.0004         24.5004
  19963331.4314   -9261336.85249  -7198474.07548                  19963328.6734
        50.2504         40.2504
  20037401.4854   -7533335.71549  -5856758.25147                  20037398.3924
        51.0004         39.2504
  21893051.5244  -12247231.41049  -9529029.43847                  21893048.6464
        47.5004         31.7504
  20870483.0954   -5944990.26249  -4619082.22447                  20870481.9234
        48.2504         34.2504
  21925712.7744   -3369708.44149  -2619610.00647                  21925711.4544
        45.2504         27.2504
 04  6 30 15  4 49.9970000  0  8G 6G15G16G18G21G22G26G29
  19875154.6884   -2540341.16849  -1975607.53647                  19875153.3414
        50.0004         39.0004
  22592521.4234  -10902451.21149  -8483470.99447                  22592520.4504
        43.0004         26.5004
  22885411.0484   -7525561.45749  -5859443.12746                  22885408.7824
        40.5004         24.5004
  19957112.3064   -9294019.14849  -7223940.77747                  19957109.7824
        50.0004         39.0004
  20031846.4544   -7562526.55949  -5879504.30747                  20031843.8134
        51.2504         38.2504
  21883995.6264  -12294818.72349  -9566110.43947                  21883993.2314
        47.5004         31.0004
  20867469.8764   -5960826.60249  -4631422.21847                  20867468.8064
        48.2504         33.5004
  21924404.5014   -3376583.38349  -2624967.06047                  21924402.9504
        44.7504         27.2504
 04  6 30 15  4 59.9970000  0  8G 6G15G16G18G21G22G26G29
  19874356.8994   -2544533.83249  -1978874.61048                  19874355.4854
        49.5004         39.7504
  22583959.7204  -10947442.34049  -8518529.01747                  22583958.5914
        44.2504         28.2504
  22880740.0014   -7550107.72349  -5878570.10046                  22880737.7124
        40.0004         25.5004
  19950901.1574   -9326658.63749  -7249374.15548                  19950898.7244
        50.2504         40.0004
  20026294.4384   -7591703.03549  -5902239.27747                  20026291.4744
        51.7504         39.0004
  21874945.7124  -12342377.02349  -9603168.85347                  21874943.0754
        47.0004         31.5004
  20864469.5094   -5976592.61349  -4643707.43947                  20864468.5914
        48.2504         34.7504
  21923106.4234   -3383404.37549  -2630282.16547                  21923104.9704
        45.0004         28.0004
 04  6 30 15  5  9.9970000  0  8G 6G15G16G18G21G22G26G29
  19873569.3454   -2548673.48049  -1982100.29848                  19873568.0874
        50.7504         39.7504
  22575398.6734  -10992429.66049  -8553584.05847                  22575397.7084
        43.0004         27.7504
  22876080.1184   -7574596.01249  -5897651.90846                  22876077.8884
        40.5004         25.0004
  19944699.2204   -9359251.25049  -7274770.97548                  19944696.4584
        50.0004         39.5004
  20020745.8604   -7620860.88749  -5924959.66147                  20020743.0874
        51.7504         38.7504
  21865902.3684  -12389902.05149  -9640201.30747                  21865899.0324
        47.7504         31.0004
  20861483.3134   -5992284.12549  -4655934.58747                  20861482.8064
        48.0004         34.7504
  21921819.6884   -3390167.39849  -2635552.03447                  21921818.3294
        45.7504         28.0004
 04  6 30 15  5 19.9970000  0  8G 6G15G16G18G21G22G26G29
  19872791.1654   -2552763.34849  -1985287.23548                  19872789.4384
        50.5004         40.5004
  22566838.4234  -11037416.41049  -8588638.66147                  22566837.3564
        42.5004         26.7504
  22871430.0634   -7599029.34849  -5916690.85546                  22871428.7124
        40.5004         25.2504
  19938505.2744   -9391800.02049  -7300133.66148                  19938502.6654
        49.7504         40.5004
  20015200.2984   -7650003.25049  -5947668.01147                  20015196.9234
        51.0004         39.0004
  21856864.2354  -12437396.96949  -9677210.34247                  21856860.9814
        47.5004         31.7504
  20858511.2354   -6007904.19949  -4668106.07847                  20858510.1264
        48.0004         34.7504
  21920543.2824   -3396875.44549  -2640779.10647                  21920541.0134
        45.7504         28.5004
 04  6 30 15  5 29.9970000  0  8G 6G15G16G18G21G22G26G29
  19872022.1424   -2556802.13349  -1988434.34348                  19872020.8684
        50.7504         39.7504
  22558278.0174  -11082401.17249  -8623691.73147                  22558276.9274
        43.2504         26.5004
  22866791.5404   -7623406.48049  -5935686.05846                  22866789.9894
        41.0004         24.2504
  19932320.2204   -9424303.75849  -7325461.25048                  19932317.8254
        51.0004         40.5004
  20009657.9704   -7679128.87549  -5970363.30347                  20009654.3494
        50.7504         39.0004
  21847832.0404  -12484860.46549  -9714194.88247                  21847828.8334
        46.0004         31.0004
  20855552.4074   -6023451.71149  -4680221.02547                  20855551.4114
        48.5004         34.2504
  21919277.3134   -3403527.43449  -2645962.47747                  21919275.7284
        45.5004         27.5004
 04  6 30 15  5 39.9970000  0  8G 6G15G16G18G21G22G26G29
  19871263.2514   -2560791.19549  -1991542.68948                  19871262.2674
        50.2504         39.7504
  22549717.8844  -11127385.36349  -8658744.33447                  22549716.5954
        43.7504         27.0004
  22862163.3844   -7647728.74249  -5954638.44446                  22862161.2864
        40.2504         25.5004
  19926143.1654   -9456763.74249  -7350754.73648                  19926140.3604
        50.0004         39.5004
  20004118.0714   -7708238.96149  -5993046.48047                  20004114.9854
        50.5004         38.2504
  21838805.5564  -12532293.81649  -9751155.90647                  21838802.2004
        47.2504         31.0004
  20852607.2124   -6038927.98849  -4692280.46947                  20852606.1064
        47.7504         33.5004
  21918021.9074   -3410124.66049  -2651103.16447                  21918020.0754
        46.0004         28.7504
 04  6 30 15  5 49.9970000  0  8G 6G15G16G18G21G22G26G29
  19870514.0014   -2564730.43749  -1994612.24948                  19870512.2354
        51.0004         39.7504
  22541157.4854  -11172368.85949  -8693796.39247                  22541156.7514
        44.0004         27.2504
  22857546.0794   -7671996.04349  -5973548.06546                  22857543.4354
        40.5004         23.5004
  19919974.4934   -9489179.86749  -7376014.04748                  19919971.6924
        50.5004         40.0004
  19998581.7204   -7737333.47749  -6015717.53647                  19998578.4584
        50.7504         39.0004
  21829785.1494  -12579696.84049  -9788093.31847                  21829781.9584
        47.0004         32.0004
  20849676.1344   -6054332.76649  -4704284.17247                  20849674.6614
        48.2504         34.0004
  21916776.6964   -3416666.98849  -2656201.07247                  21916775.4894
        45.5004         28.0004
 04  6 30 15  5 59.9970000  0  8G 6G15G16G18G21G22G26G29
  19869773.6424   -2568619.67649  -1997642.80648                  19869772.1534
        51.0004         39.7504
  22532597.5404  -11217351.46949  -8728847.77147                  22532596.7354
        44.0004         26.7504
  22852938.4384   -7696208.18049  -5992414.70046                  22852936.4504
        41.5004         24.2504
  19913814.3454   -9521552.02049  -7401239.09648                  19913811.6884
        50.0004         39.5004
  19993048.4074   -7766412.33649  -6038376.35847                  19993044.9934
        50.7504         38.5004
  21820770.7514  -12627069.30949  -9825006.91847                  21820767.5214
        47.2504         30.7504
  20846758.0874   -6069666.02749  -4716232.18047                  20846757.0244
        48.5004         33.0004
  21915542.0484   -3423154.37949  -2661256.18147                  21915540.7634
        45.2504         27.0004
 04  6 30 15  6  9.9970000  0  8G 6G15G16G18G21G22G26G29
  19869043.2904   -2572457.61749  -2000633.44148                  19869042.0364
        50.7504         40.2504
  22524038.3454  -11262331.86749  -8763897.44147                  22524037.4854
        43.5004         27.2504
  22848341.0874   -7720363.93449  -6011237.32246                  22848339.0014
        41.0004         25.2504
  19907662.3454   -9553878.91849  -7426428.89348                  19907659.7824
        50.5004         40.0004
  19987518.0094   -7795474.18749  -6061021.97347                  19987514.7904
        51.5004         39.2504
  21811762.3684  -12674409.88349  -9861895.69547                  21811758.4624
        47.2504         31.0004
  20843853.9624   -6084926.41849  -4728123.40247                  20843852.7284
        47.0004         33.7504
  21914318.3604   -3429585.55949  -2666267.49447                  21914317.4234
        45.0004         29.2504
 04  6 30 15  6 19.9970000  0  8G 6G15G16G18G21G22G26G29
  19868322.8454   -2576245.25049  -2003584.85048                  19868321.4314
        50.5004         39.7504
  22515478.8214  -11307310.96149  -8798946.04747                  22515478.4034
        43.5004         27.2504
  22843755.2124   -7744464.13749  -6030016.70346                  22843752.6424
        41.2504         23.7504
  19901519.6884   -9586161.48449  -7451584.12048                  19901516.6424
        50.5004         40.0004
  19981990.8604   -7824519.66849  -6083654.80947                  19981987.3454
        50.7504         38.5004
  21802759.4784  -12721719.42249  -9898760.24947                  21802755.9504
        47.5004         31.2504
  20840963.7824   -6100114.89849  -4739958.58347                  20840962.7514
        47.2504         33.5004
  21913105.1104   -3435961.53149  -2671235.81547                  21913104.1464
        45.5004         28.0004
